     2              OBSERVATION DATA                        RINEX VERSION / TYPE
ASHCAN V. 1.90 20000421 17:45:49UTC                         PGM / RUN BY / DATE
AGMT ARGOS_MTN____                                          MARKER NAME
JEG                                                         OBSERVER / AGENCY
LP03033 ASHTECH Z-XII3 CC00 1D02                            REC # / TYPE / VERS
CR519991758 ASH701945B_M SCIT                               ANT # / TYPE
 -2339948.5439 -4707772.3986  3601661.3477                  APPROX POSITION XYZ
        0.0083        0.0000        0.0000                  ANTENNA: DELTA H/E/N
     1     1                                                WAVELENGTH FACT L1/2
     5    L1    L2    C1    P1    P2                        # / TYPES OF OBSERV
  2000     4    20     0     0    0.000000                  TIME OF FIRST OBS
  2000     4    20     1    59   59.000000                  TIME OF LAST OBS
     0                                                      INTERVAL
                                                            END OF HEADER
 00  4 20  0  0  0.0000000  0  7 26 30 17 23 21 22  6                0.000000000
 -18584829.205 9 -14467546.13748  21740643.935    21740643.9454   21740654.8624
   -210426.718 8   -154044.24645  25442256.456    25442256.6024   25442284.8294
 -24716909.196 9 -19236617.43849  20772934.031    20772933.3384   20772943.3444
 -24191812.027 9 -18827282.56549  20922003.736    20922003.1294   20922013.4104
  -8790125.841 9  -6374120.88746  23747132.629    23747132.1034   23747150.1974
  -6792035.871 9  -5281960.07746  23736291.514    23736290.5984   23736305.6434
 -25936999.777 9 -20192730.66648  20989358.941    20989358.6794   20989369.0324
 00  4 20  0  0  1.0000000  0  7 26 30 17 23 21 22  6               -0.000000015
 -18584540.045 9 -14467320.81948  21740698.959    21740698.9674   21740709.8884
   -208858.692 8   -152822.41345  25442554.833    25442554.9854   25442583.2044
 -24717002.106 9 -19236689.83449  20772916.350    20772915.6604   20772925.6754
 -24192283.049 9 -18827649.59549  20921914.100    20921913.4914   20921923.7734
  -8791438.259 9  -6375143.54746  23746882.866    23746882.3464   23746900.4354
  -6791828.883 9  -5281798.78846  23736330.918    23736330.0004   23736345.0494
 -25935954.760 9 -20191916.36848  20989557.804    20989557.5414   20989567.8974
 00  4 20  0  0  1.0000000  0  7 26 30 17 23 21 22  6               -0.000000015
 -18584250.708 9 -14467095.36248  21740754.038    21740754.0494   21740764.9644
   -207290.722 8   -151600.62245  25442853.215    25442853.3694   25442881.5804
 -24717094.965 9 -19236762.19249  20772898.675    20772897.9924   20772907.9934
 -24192753.964 9 -18828016.54149  20921824.506    20921823.8934   20921834.1754
  -8792750.621 9  -6376166.15646  23746633.141    23746632.6294   23746650.7084
  -6791621.767 9  -5281637.40246  23736370.319    23736369.4034   23736384.4324
 -25934909.615 9 -20191101.97348  20989756.682    20989756.4144   20989766.7764
 00  4 20  0  0  2.0000000  0  7 26 30 17 23 21 22  6               -0.000000015
 -18583961.173 9 -14466869.74948  21740809.137    21740809.1514   21740820.0634
   -205722.756 8   -150378.83845  25443151.606    25443151.7434   25443179.9784
 -24717187.745 9 -19236834.48749  20772881.044    20772880.3544   20772890.3634
 -24193224.734 9 -18828383.37149  20921734.911    20921734.2954   20921744.5854
  -8794062.890 9  -6377188.70046  23746383.417    23746382.9024   23746400.9834
  -6791414.479 9  -5281475.87946  23736409.767    23736408.8564   23736423.8884
 -25933864.294 9 -20190287.43548  20989955.622    20989955.3564   20989965.7194
 00  4 20  0  0  2.0000000  0  7 26 30 17 23 21 22  6               -0.000000015
 -18583671.518 9 -14466644.04148  21740864.257    21740864.2734   21740875.1744
   -204154.894 8   -149157.13145  25443449.957    25443450.0964   25443478.3294
 -24717280.516 9 -19236906.77649  20772863.364    20772862.6764   20772872.6884
 -24193695.435 9 -18828750.14949  20921645.345    20921644.7374   20921655.0194
  -8795375.148 9  -6378211.23146  23746133.696    23746133.1844   23746151.2564
  -6791207.112 9  -5281314.29846  23736449.230    23736448.3194   23736463.3404
 -25932818.889 9 -20189472.83548  20990154.538    20990154.2784   20990164.6384
 00  4 20  0  0  3.0000000  0  7 26 30 17 23 21 22  6               -0.000000015
 -18583381.727 9 -14466418.22748  21740919.392    21740919.4054   21740930.3144
   -202587.101 8   -147935.47945  25443748.283    25443748.4204   25443776.6464
 -24717373.271 9 -19236979.05249  20772845.725    20772845.0394   20772855.0404
 -24194166.067 9 -18829116.87449  20921555.761    20921555.1494   20921565.4284
  -8796687.387 9  -6379233.74746  23745883.984    23745883.4774   23745901.5484
  -6790999.639 9  -5281152.63146  23736488.708    23736487.7914   23736502.8254
 -25931773.396 9 -20188658.16648  20990353.504    20990353.2404   20990363.6024
 00  4 20  0  0  3.0000000  0  8 26 30 17  3 23 21 22  6            -0.000000015
 -18583091.694 9 -14466192.22648  21740974.581    21740974.5874   21740985.5044
   -201019.321 8   -146713.83945  25444046.640    25444046.7834   25444075.0034
 -24717465.920 9 -19237051.24749  20772828.105    20772827.4114   20772837.4214
   -783261.392 8   -594424.07652         0.000           0.0004          0.0005
 -24194636.520 9 -18829483.45949  20921466.263    20921465.6514   20921475.9334
  -8797999.499 9  -6380256.16746  23745634.279    23745633.7704   23745651.8434
  -6790791.975 9  -5280990.81446  23736528.217    23736527.2944   23736542.3374
 -25930727.694 9 -20187843.33548  20990552.495    20990552.2334   20990562.5934
 00  4 20  0  0  4.0000000  0  7 26 30 17 23 21 22  6               -0.000000015
 -18582801.477 9 -14465966.08548  21741029.808    21741029.8284   21741040.7344
   -199451.572 8   -145492.21945  25444344.973    25444345.1164   25444373.3384
 -24717558.523 9 -19237123.40749  20772810.472    20772809.7834   20772819.7854
 -24195106.863 9 -18829849.96149  20921376.746    20921376.1334   20921386.4164
  -8799311.552 9  -6381278.53946  23745384.598    23745384.0934   23745402.1664
  -6790584.179 9  -5280828.89546  23736567.787    23736566.8574   23736581.9114
 -25929681.865 9 -20187028.40748  20990751.496    20990751.2354   20990761.5964
 00  4 20  0  0  4.0000000  0  8 26 30 17  3 23 21 22  6            -0.000000015
 -18582511.073 9 -14465739.79548  21741085.061    21741085.0704   21741095.9834
   -197883.859 8   -144270.62845  25444643.312    25444643.4494   25444671.6734
 -24717651.036 9 -19237195.49549  20772792.880    20772792.1954   20772802.2044
   -786730.672 8   -597127.40452         0.000           0.0004          0.0005
 -24195577.067 9 -18830216.35249  20921287.266    20921286.6554   20921296.9304
  -8800623.522 9  -6382300.84446  23745134.933    23745134.4364   23745152.5044
  -6790376.225 9  -5280666.85446  23736607.349    23736606.4204   23736621.4634
 -25928635.878 9 -20186213.35348  20990950.559    20990950.2974   20990960.6584
 00  4 20  0  0  5.0000000  0  8 26 30 17  3 23 21 22  6            -0.000000015
 -18582220.525 9 -14465513.39048  21741140.351    21741140.3724   21741151.2824
   -196316.220 8   -143049.09345  25444941.610    25444941.7524   25444969.9664
 -24717743.543 9 -19237267.57749  20772775.275    20772774.5974   20772784.5864
   -788465.289 8   -598479.05352         0.000           0.0004          0.0005
 -24196047.200 9 -18830582.68849  20921197.789    20921197.1774   20921207.4624
  -8801935.471 9  -6383323.13746  23744885.268    23744884.7694   23744902.8434
  -6790168.169 9  -5280504.73646  23736646.939    23736646.0024   23736661.0594
 -25927589.782 9 -20185398.21348  20991149.614    20991149.3594   20991159.7144
 00  4 20  0  0  5.0000000  0  7 26 30 17 23 21 22  6               -0.000000015
 -18581929.784 9 -14465286.84048  21741195.678    21741195.6934   21741206.6124
   -194748.609 8   -141827.58445  25445239.923    25445240.0764   25445268.2694
 -24717835.964 9 -19237339.59249  20772757.669    20772756.9804   20772766.9884
 -24196517.185 9 -18830948.90949  20921108.378    20921107.7694   20921118.0414
  -8803247.330 9  -6384345.35946  23744635.646    23744635.1524   23744653.2164
  -6789959.960 9  -5280342.49646  23736686.556    23736685.6154   23736700.6704
 -25926543.521 9 -20184582.94648  20991348.724    20991348.4724   20991358.8204
 00  4 20  0  0  6.0000000  0  7 26 30 17 23 21 22  6               -0.000000015
 -18581638.891 9 -14465060.16848  21741251.029    21741251.0454   21741261.9564
   -193181.058 8   -140606.12045  25445538.232    25445538.3794   25445566.5744
 -24717928.352 9 -19237411.58249  20772740.091    20772739.4024   20772749.4084
 -24196987.084 9 -18831315.06249  20921018.946    20921018.3304   20921028.6174
  -8804559.158 9  -6385367.55846  23744385.995    23744385.5044   23744403.5664
  -6789751.631 9  -5280180.15846  23736726.209    23736725.2674   23736740.3264
 -25925497.164 9 -20183767.60648  20991547.822    20991547.5644   20991557.9154
 00  4 20  0  0  6.0000000  0  8 26 30 17  3 23 21 22  6            -0.000000015
 -18581347.821 9 -14464833.35948  21741306.433    21741306.4574   21741317.3534
   -191613.537 8   -139384.67945  25445836.514    25445836.6724   25445864.8484
 -24718020.685 9 -19237483.53049  20772722.540    20772721.8444   20772731.8554
   -793668.961 8   -602533.85152         0.000           0.0004          0.0005
 -24197456.856 9 -18831681.11749  20920929.561    20920928.9524   20920939.2254
  -8805870.923 9  -6386389.70446  23744136.363    23744135.8674   23744153.9364
  -6789543.167 9  -5280017.71846  23736765.893    23736764.9494   23736780.0124
 -25924450.650 9 -20182952.13948  20991746.989    20991746.7364   20991757.0824
 00  4 20  0  0  7.0000000  0  8 26 30 17  3 23 21 22  6            -0.000000015
 -18581056.584 9 -14464606.42148  21741361.846    21741361.8594   21741372.7794
   -190046.082 8   -138163.29345  25446134.782    25446134.9464   25446163.1124
 -24718112.973 9 -19237555.44249  20772704.959    20772704.2664   20772714.2724
   -795403.480 8   -603885.42452         0.000           0.0004          0.0005
 -24197926.534 9 -18832047.10149  20920840.169    20920839.5544   20920849.8324
  -8807182.642 9  -6387411.81546  23743886.745    23743886.2604   23743904.3164
  -6789334.571 9  -5279855.17946  23736805.583    23736804.6424   23736819.6864
 -25923404.019 9 -20182136.58348  20991946.150    20991945.8984   20991956.2414
 00  4 20  0  0  7.0000000  0  8 26 30 17  3 23 21 22  6            -0.000000015
 -18580765.194 9 -14464379.36748  21741417.286    21741417.3004   21741428.2144
   -188478.707 8   -136941.96645  25446433.065    25446433.2404   25446461.3954
 -24718205.225 9 -19237627.32649  20772687.398    20772686.7084   20772696.7154
   -797137.988 8   -605236.98742         0.000           0.0004   24917220.2984
 -24198396.112 9 -18832413.00549  20920750.812    20920750.1964   20920760.4754
  -8808494.322 9  -6388433.89946  23743637.145    23743636.6634   23743654.7164
  -6789125.876 9  -5279692.56046  23736845.305    23736844.3554   23736859.4124
 -25922357.279 9 -20181320.94448  20992145.337    20992145.0804   20992155.4284
 00  4 20  0  0  8.0000000  0  8 26 30 17  3 23 21 22  6            -0.000000015
 -18580473.617 9 -14464152.16048  21741472.780    21741472.7924   21741483.7024
   -186911.354 8   -135720.65745  25446731.315    25446731.4934   25446759.6424
 -24718297.420 9 -19237699.16649  20772669.852    20772669.1614   20772679.1674
   -798872.471 8   -606588.53043         0.000           0.0004   24916890.3644
 -24198865.567 9 -18832778.81249  20920661.478    20920660.8684   20920671.1484
  -8809805.942 9  -6389455.93646  23743387.545    23743387.0654   23743405.1214
  -6788917.031 9  -5279529.82046  23736885.048    23736884.0874   23736899.1474
 -25921310.388 9 -20180505.18548  20992344.559    20992344.3024   20992354.6534
 00  4 20  0  0  8.0000000  0  8 26 30 17  3 23 21 22  6            -0.000000015
 -18580181.913 9 -14463924.86248  21741528.290    21741528.3034   21741539.2114
   -185344.095 8   -134499.42145  25447029.548    25447029.7274   25447057.8704
 -24718389.593 9 -19237770.99049  20772652.337    20772651.6434   20772661.6534
   -800606.953 8   -607940.07143         0.000           0.0004   24916560.1954
 -24199334.943 9 -18833144.55849  20920572.153    20920571.5404   20920581.8244
  -8811117.544 9  -6390477.95746  23743137.938    23743137.4584   23743155.5214
  -6788708.080 9  -5279366.99946  23736924.820    23736923.8604   23736938.9174
 -25920263.402 9 -20179689.35248  20992543.786    20992543.5344   20992553.8794
 00  4 20  0  0  9.0000000  0  8 26 30 17  3 23 21 22  6            -0.000000015
 -18579889.995 9 -14463697.39248  21741583.837    21741583.8654   21741594.7604
   -183776.873 8   -133278.21445  25447327.796    25447327.9814   25447356.1204
 -24718481.691 9 -19237842.75149  20772634.785    20772634.0854   20772644.0984
   -802341.434 8   -609291.61443         0.000           0.0004   24916230.1944
 -24199804.181 9 -18833510.19749  20920482.852    20920482.2424   20920492.5154
  -8812429.046 9  -6391499.89746  23742888.385    23742887.9114   23742905.9664
  -6788498.978 9  -5279204.06546  23736964.586    23736963.6224   23736978.6774
 -25919216.260 9 -20178873.39748  20992743.059    20992742.8064   20992753.1604
 00  4 20  0  0  9.0000000  0  8 26 30 17  3 23 21 22  6            -0.000000015
 -18579597.881 9 -14463469.77048  21741639.417    21741639.4464   21741650.3364
   -182209.638 8   -132056.99645  25447626.023    25447626.2144   25447654.3394
 -24718573.701 9 -19237914.44949  20772617.294    20772616.5974   20772626.6024
   -804075.823 8   -610643.08443         0.000           0.0004   24915900.2884
 -24200273.278 9 -18833875.72649  20920393.608    20920392.9934   20920403.2724
  -8813740.475 9  -6392521.78546  23742638.808    23742638.3444   23742656.3884
  -6788289.730 9  -5279041.01846  23737004.429    23737003.4554   23737018.5144
 -25918168.955 9 -20178057.31748  20992942.356    20992942.0994   20992952.4514
 00  4 20  0  0 10.0000000  0  8 26 30 17  3 23 21 22  6            -0.000000015
 -18579305.660 9 -14463242.06648  21741695.037    21741695.0584   21741705.9614
   -180642.552 8   -130835.89445  25447924.245    25447924.4384   25447952.5614
 -24718665.729 9 -19237986.15949  20772599.771    20772599.0694   20772609.0814
   -805810.264 8   -611994.59343         0.000           0.0004   24915570.6164
 -24200742.330 9 -18834241.21849  20920304.352    20920303.7454   20920314.0214
  -8815051.914 9  -6393543.67946  23742389.264    23742388.7974   23742406.8474
  -6788080.405 9  -5278877.90946  23737044.259    23737043.2874   23737058.3424
 -25917121.580 9 -20177241.18348  20993141.659    20993141.4014   20993151.7544
 00  4 20  0  0 10.0000000  0  8 26 30 17  3 23 21 22  6            -0.000000016
 -18579013.194 9 -14463014.17048  21741750.676    21741750.6994   21741761.5964
   -179075.425 8   -129614.76245  25448222.462    25448222.6614   25448250.7754
 -24718757.634 9 -19238057.77449  20772582.277    20772581.5814   20772591.5864
   -807544.618 8   -613346.03743         0.000           0.0004   24915240.7424
 -24201211.201 9 -18834606.57149  20920215.099    20920214.4874   20920224.7694
  -8816363.224 9  -6394565.47546  23742139.706    23742139.2404   23742157.2924
  -6787870.892 9  -5278714.65446  23737084.135    23737083.1604   23737098.2124
 -25916074.019 9 -20176424.90348  20993341.019    20993340.7634   20993351.1154
 00  4 20  0  0 11.0000000  0  8 26 30 17  3 23 21 22  6            -0.000000016
 -18578720.576 9 -14462786.15748  21741806.380    21741806.4014   21741817.2964
   -177508.372 8   -128393.68845  25448520.659    25448520.8554   25448548.9654
 -24718849.505 9 -19238129.36149  20772564.799    20772564.1034   20772574.1034
   -809278.959 8   -614697.47144         0.000           0.0004   24914910.7624
 -24201679.975 9 -18834971.84849  20920125.898    20920125.2894   20920135.5684
  -8817674.489 9  -6395587.23446  23741890.185    23741889.7224   23741907.7644
  -6787661.254 9  -5278551.29946  23737124.026    23737123.0424   23737138.0954
 -25915026.324 9 -20175608.51948  20993540.367    20993540.1154   20993550.4574
 00  4 20  0  0 11.0000000  0  8 26 30 17  3 23 21 22  6            -0.000000016
 -18578427.796 9 -14462558.01148  21741862.081    21741862.1124   21741873.0024
   -175941.372 8   -127172.65645  25448818.865    25448819.0684   25448847.1724
 -24718941.324 9 -19238200.90749  20772547.332    20772546.6354   20772556.6374
   -811013.272 8   -616048.88244         0.000           0.0004   24914580.6264
 -24202148.647 9 -18835337.04649  20920036.734    20920036.1304   20920046.3984
  -8818985.715 9  -6396608.96546  23741640.666    23741640.1954   23741658.2444
  -6787451.492 9  -5278387.85046  23737163.932    23737162.9444   23737177.9964
 -25913978.516 9 -20174792.04548  20993739.781    20993739.5264   20993749.8744
 00  4 20  0  0 12.0000000  0  8 26 30 17  3 23 21 22  6            -0.000000016
 -18578134.876 9 -14462329.76048  21741917.820    21741917.8534   21741928.7384
   -174374.440 8   -125951.67545  25449117.047    25449117.2524   25449145.3484
 -24719033.120 9 -19238272.43749  20772529.864    20772529.1674   20772539.1714
   -812747.591 8   -617400.29744         0.000           0.0004   24914250.5024
 -24202617.240 9 -18835702.18349  20919947.539    20919946.9324   20919957.2034
  -8820296.897 9  -6397630.66246  23741391.144    23741390.6784   23741408.7204
  -6787241.623 9  -5278224.31546  23737203.893    23737202.8974   23737217.9524
 -25912930.613 9 -20173975.49748  20993939.194    20993938.9384   20993949.2934
 00  4 20  0  0 12.0000000  0  8 26 30 17  3 23 21 22  6            -0.000000016
 -18577841.704 9 -14462101.31248  21741973.616    21741973.6354   21741984.5344
   -172807.481 8   -124730.67445  25449415.216    25449415.4164   25449443.5124
 -24719124.788 9 -19238343.86649  20772512.416    20772511.7204   20772521.7184
   -814481.847 8   -618751.66444         0.000           0.0004   24913920.6804
 -24203085.639 9 -18836067.17049  20919858.429    20919857.8244   20919868.0974
  -8821607.957 9  -6398652.25746  23741141.665    23741141.1914   23741159.2404
  -6787031.565 9  -5278060.63146  23737243.854    23737242.8594   23737257.9184
 -25911882.499 9 -20173158.78448  20994138.630    20994138.3704   20994148.7284
 00  4 20  0  0 13.0000000  0  8 26 30 17  3 23 21 22  6            -0.000000016
 -18577548.408 9 -14461872.76948  21742029.412    21742029.4464   21742040.3334
   -171240.621 8   -123509.74945  25449713.391    25449713.5894   25449741.6924
 -24719216.444 9 -19238415.28649  20772494.978    20772494.2824   20772504.2814
   -816216.091 8   -620103.02044         0.000           0.0004   24913590.4154
 -24203553.977 9 -18836432.10849  20919769.283    20919768.6764   20919778.9454
  -8822919.000 9  -6399673.84346  23740892.173    23740891.6944   23740909.7434
  -6786821.395 9  -5277896.86546  23737283.851    23737282.8614   23737297.9214
 -25910834.299 9 -20172342.00748  20994338.109    20994337.8524   20994348.2034
 00  4 20  0  0 13.0000000  0  8 26 30 17  3 23 21 22  6            -0.000000016
 -18577254.944 9 -14461644.09448  21742085.261    21742085.2884   21742096.1794
   -169673.838 8   -122288.88645  25450011.543    25450011.7534   25450039.8334
 -24719308.052 9 -19238486.66849  20772477.534    20772476.8344   20772486.8394
   -817950.340 8   -621454.38044         0.000           0.0004   24913260.5884
 -24204022.209 9 -18836796.96249  20919680.186    20919679.5774   20919689.8454
  -8824229.980 9  -6400695.37846  23740642.677    23740642.1964   23740660.2434
  -6786611.107 9  -5277733.00346  23737323.871    23737322.8734   23737337.9254
 -25909785.981 9 -20171525.13748  20994537.577    20994537.3244   20994547.6714
 00  4 20  0  0 14.0000000  0  8 26 30 17  3 23 21 22  6            -0.000000016
 -18576961.315 9 -14461415.29348  21742141.127    21742141.1494   21742152.0464
   -168107.090 8   -121068.05045  25450309.707    25450309.9164   25450337.9964
 -24719399.620 9 -19238558.02049  20772460.128    20772459.4264   20772469.4374
   -819684.559 8   -622805.71844         0.000           0.0004   24912930.2704
 -24204490.341 9 -18837161.73849  20919591.091    20919590.4894   20919600.7584
  -8825540.932 9  -6401716.89546  23740393.206    23740392.7294   23740410.7664
  -6786400.706 9  -5277569.05446  23737363.896    23737362.8964   23737377.9534
 -25908737.545 9 -20170708.17448  20994737.105    20994736.8464   20994747.1974
 00  4 20  0  0 14.0000000  0  8 26 30 17  3 23 21 22  6            -0.000000016
 -18576667.462 9 -14461186.31648  21742197.058    21742197.0804   21742207.9844
   -166540.372 8   -119847.23845  25450607.827    25450608.0404   25450636.1154
 -24719491.080 9 -19238629.28849  20772442.698    20772441.9984   20772452.0064
   -821418.713 8   -624157.00344         0.000           0.0004   24912599.9664
 -24204958.312 9 -18837526.38949  20919502.048    20919501.4414   20919511.7114
  -8826851.763 9  -6402738.31346  23740143.780    23740143.2924   23740161.3364
  -6786190.113 9  -5277404.95646  23737403.980    23737402.9784   23737418.0384
 -25907688.925 9 -20169891.06948  20994936.661    20994936.4084   20994946.7604
 00  4 20  0  0 15.0000000  0  8 26 30 17  3 23 21 22  6            -0.000000016
 -18576373.473 9 -14460957.23448  21742253.010    21742253.0324   21742263.9314
   -164973.666 8   -118626.43345  25450905.969    25450906.1844   25450934.2514
 -24719582.511 9 -19238700.53249  20772425.313    20772424.6104   20772434.6204
   -823152.834 8   -625508.26544         0.000           0.0004   24912269.9254
 -24205426.194 9 -18837890.97249  20919413.009    20919412.4024   20919422.6754
  -8828162.564 9  -6403759.70646  23739894.320    23739893.8344   23739911.8754
  -6785979.422 9  -5277240.77946  23737444.069    23737443.0704   23737458.1264
 -25906640.210 9 -20169073.89148  20995136.216    20995135.9604   20995146.3104
 00  4 20  0  0 15.0000000  0  8 26 30 17  3 23 21 22  6            -0.000000016
 -18576079.360 9 -14460728.05448  21742308.952    21742308.9734   21742319.8714
   -163407.131 8   -117405.76045  25451204.087    25451204.2974   25451232.3764
 -24719673.949 9 -19238771.78049  20772407.916    20772407.2124   20772417.2214
   -824887.061 8   -626859.60844         0.000           0.0004   24911940.2424
 -24205894.021 9 -18838255.51049  20919323.999    20919323.3944   20919333.6634
  -8829473.361 9  -6404781.09946  23739644.898    23739644.4074   23739662.4504
  -6785768.646 9  -5277076.53846  23737484.198    23737483.1924   23737498.2484
 -25905591.420 9 -20168256.65548  20995335.800    20995335.5424   20995345.8984
 00  4 20  0  0 16.0000000  0  8 26 30 17  3 23 21 22  6            -0.000000017
 -18575785.013 9 -14460498.69348  21742364.977    21742365.0044   21742375.9024
   -161840.551 8   -116185.05345  25451502.199    25451502.4114   25451530.4824
 -24719765.274 9 -19238842.94449  20772390.548    20772389.8444   20772399.8524
   -826621.169 8   -628210.85844         0.000           0.0004   24911610.3004
 -24206361.677 9 -18838619.91649  20919235.002    20919234.3964   20919244.6664
  -8830784.036 9  -6405802.39946  23739395.462    23739394.9704   23739413.0154
  -6785557.675 9  -5276912.14646  23737524.322    23737523.3244   23737538.3704
 -25904542.449 9 -20167439.27548  20995535.392    20995535.1334   20995545.4894
 00  4 20  0  0 16.0000000  0  8 26 30 17  3 23 21 22  6            -0.000000017
 -18575490.486 9 -14460269.19048  21742421.026    21742421.0554   21742431.9454
   -160274.024 8   -114964.38745  25451800.288    25451800.4954   25451828.5674
 -24719856.530 9 -19238914.05249  20772373.160    20772372.4564   20772382.4644
   -828355.240 8   -629562.08344         0.000           0.0004   24911280.1454
 -24206829.207 9 -18838984.22349  20919146.028    20919145.4274   20919155.6914
  -8832094.650 9  -6406823.65046  23739146.051    23739145.5624   23739163.5994
  -6785346.559 9  -5276747.64246  23737564.491    23737563.4964   23737578.5534
 -25903493.332 9 -20166621.78348  20995735.047    20995734.7854   20995745.1434
 00  4 20  0  0 17.0000000  0  8 26 30 17  3 23 21 22  6            -0.000000017
 -18575195.772 9 -14460039.54448  21742477.095    21742477.1164   21742488.0184
   -158707.557 8   -113743.76945  25452098.379    25452098.5784   25452126.6584
 -24719947.727 9 -19238985.11549  20772355.804    20772355.1084   20772365.1054
   -830089.297 8   -630913.29444         0.000           0.0004   24910950.4104
 -24207296.615 9 -18839348.43849  20919057.086    20919056.4794   20919066.7514
  -8833405.192 9  -6407844.84646  23738896.669    23738896.1754   23738914.2144
  -6785135.321 9  -5276583.04146  23737604.689    23737603.6984   23737618.7454
 -25902444.091 9 -20165804.19448  20995934.701    20995934.4474   20995944.7994
 00  4 20  0  0 17.0000000  0  8 26 30 17  3 23 21 22  6            -0.000000017
 -18574900.922 9 -14459809.79148  21742533.202    21742533.2284   21742544.1184
   -157141.140 8   -112523.18845  25452396.471    25452396.6724   25452424.7474
 -24720038.913 9 -19239056.16849  20772338.469    20772337.7704   20772347.7744
   -831823.37418   -632264.52244         0.000           0.0005   24910620.3874
 -24207763.961 9 -18839712.60249  20918968.136    20918967.5304   20918977.7994
  -8834715.724 9  -6408866.03446  23738647.273    23738646.7774   23738664.8174
  -6784923.975 9  -5276418.35946  23737644.923    23737643.9414   23737658.9844
 -25901394.764 9 -20164986.53648  20996134.392    20996134.1394   20996144.4934
 00  4 20  0  0 18.0000000  0  8 26 30 17  3 23 21 22  6            -0.000000017
 -18574605.865 9 -14459579.87648  21742589.351    21742589.3794   21742600.2714
   -155574.752 8   -111302.62745  25452694.566    25452694.7654   25452722.8454
 -24720130.005 9 -19239127.15049  20772321.137    20772320.4324   20772330.4454
   -833557.39918   -633615.70844         0.000           0.0005   24910289.9684
 -24208231.149 9 -18840076.64449  20918879.260    20918878.6624   20918888.9204
  -8836026.146 9  -6409887.13746  23738397.900    23738397.4104   23738415.4494
  -6784712.458 9  -5276253.54246  23737685.172    23737684.1934   23737699.2404
 -25900345.271 9 -20164168.74948  20996334.101    20996333.8404   20996344.2024
 00  4 20  0  0 18.0000000  0  8 26 30 17  3 23 21 22  6            -0.000000017
 -18574310.619 9 -14459349.81448  21742645.531    21742645.5504   21742656.4584
   -154008.416 8   -110082.11345  25452992.623    25452992.8294   25453020.8984
 -24720221.030 9 -19239198.07849  20772303.802    20772303.1044   20772313.1104
   -835291.36718   -634966.85044         0.000           0.0005   24909959.6674
 -24208698.221 9 -18840440.59549  20918790.364    20918789.7634   20918800.0264
  -8837336.505 9  -6410908.19146  23738148.564    23738148.0734   23738166.1074
  -6784500.801 9  -5276088.61646  23737725.440    23737724.4654   23737739.5044
 -25899295.637 9 -20163350.85248  20996533.835    20996533.5824   20996543.9284
 00  4 20  0  0 19.0000000  0  8 26 30 17  3 23 21 22  6            -0.000000017
 -18574015.233 9 -14459119.64048  21742701.750    21742701.7714   21742712.6744
   -152442.134 8   -108861.63945  25453290.693    25453290.8924   25453318.9634
 -24720312.023 9 -19239268.97949  20772286.481    20772285.7764   20772295.7814
   -837025.33818   -636317.99644         0.000           0.0005   24909629.8854
 -24209165.205 9 -18840804.47749  20918701.502    20918700.9054   20918711.1644
  -8838646.827 9  -6411929.21646  23737899.217    23737898.7254   23737916.7614
  -6784289.032 9  -5275923.60346  23737765.742    23737764.7674   23737779.8164
 -25898245.902 9 -20162532.87648  20996733.601    20996733.3444   20996743.7024
 00  4 20  0  0 19.0000000  0  8 26 30 17  3 23 21 22  6            -0.000000017
 -18573719.703 9 -14458889.35748  21742757.990    21742758.0124   21742768.9084
   -150875.938 8   -107641.22845  25453588.732    25453588.9374   25453616.9994
 -24720402.990 9 -19239339.86349  20772269.192    20772268.4884   20772278.4954
   -838759.33818   -637669.16245         0.000           0.0005   24909299.9194
 -24209632.109 9 -18841168.29549  20918612.658    20918612.0564   20918622.3194
  -8839957.125 9  -6412950.22046  23737649.863    23737649.3684   23737667.4104
  -6784077.166 9  -5275758.50946  23737806.053    23737805.0894   23737820.1344
 -25897196.073 9 -20161714.82948  20996933.375    20996933.1164   20996943.4704
 00  4 20  0  0 20.0000000  0  8 26 30 17  3 23 21 22  6            -0.000000017
 -18573423.955 9 -14458658.90448  21742814.281    21742814.3034   21742825.2004
   -149309.822 8   -106420.88345  25453886.736    25453886.9404   25453915.0084
 -24720493.864 9 -19239410.67549  20772251.879    20772251.1904   20772261.1794
   -840493.27818   -639020.28245         0.000           0.0005   24908969.7754
 -24210098.866 9 -18841532.00149  20918523.835    20918523.2384   20918533.5034
  -8841267.334 9  -6413971.15846  23737400.535    23737400.0404   23737418.0784
  -6783865.137 9  -5275593.29246  23737846.405    23737845.4414   23737860.4884
 -25896146.078 9 -20160896.65248  20997133.188    20997132.9374   20997143.2854
 00  4 20  0  0 20.0000000  0  8 26 30 17  3 23 21 22  6            -0.000000017
 -18573128.020 9 -14458428.30448  21742870.573    21742870.6044   21742881.4954
   -147743.647 8   -105200.49245  25454184.796    25454185.0044   25454213.0674
 -24720584.663 9 -19239481.42749  20772234.604    20772233.9024   20772243.9104
   -842227.15518   -640371.35445         0.000           0.0005   24908639.3604
 -24210565.492 9 -18841895.60549  20918435.039    20918434.4394   20918444.6974
  -8842577.447 9  -6414992.02046  23737151.206    23737150.7134   23737168.7484
  -6783652.946 9  -5275427.94846  23737886.781    23737885.8234   23737900.8684
 -25895095.935 9 -20160078.36148  20997333.043    20997332.7894   20997343.1464
 00  4 20  0  0 21.0000000  0  8 26 30 17  3 23 21 22  6            -0.000000017
 -18572831.951 9 -14458197.60348  21742926.921    21742926.9554   21742937.8404
   -146177.627 8   -103980.22145  25454482.791    25454482.9984   25454511.0614
 -24720675.452 9 -19239552.17149  20772217.325    20772216.6244   20772226.6274
   -843961.09518   -641722.47345         0.000           0.0005   24908309.9674
 -24211032.047 9 -18842259.15349  20918346.261    20918345.6614   20918355.9234
  -8843887.562 9  -6416012.87946  23736901.907    23736901.4164   23736919.4494
  -6783440.669 9  -5275262.53646  23737927.193    23737926.2354   23737941.2904
 -25894045.712 9 -20159260.00848  20997532.894    20997532.6404   20997542.9974
 00  4 20  0  0 21.0000000  0  8 26 30 17  3 23 21 22  6            -0.000000017
 -18572535.709 9 -14457966.76348  21742983.281    21742983.3164   21742994.2054
   -144611.603 8   -102759.94745  25454780.793    25454780.9914   25454809.0584
 -24720766.177 9 -19239622.86549  20772200.050    20772199.3464   20772209.3564
   -845694.98018   -643073.55245         0.000           0.0005   24907979.9354
 -24211498.494 9 -18842622.61949  20918257.487    20918256.8824   20918267.1464
  -8845197.605 9  -6417033.68646  23736652.613    23736652.1184   23736670.1554
  -6783228.258 9  -5275097.02046  23737967.593    23737966.6374   23737981.6914
 -25892995.353 9 -20158441.54548  20997732.764    20997732.5124   20997742.8654
 00  4 20  0  0 22.0000000  0  8 26 30 17  3 23 21 22  6            -0.000000018
 -18572239.225 9 -14457735.73748  21743039.712    21743039.7374   21743050.6444
   -143045.604 8   -101539.69445  25455078.799    25455079.0054   25455107.0574
 -24720856.780 9 -19239693.46449  20772182.834    20772182.1384   20772192.1314
   -847428.78118   -644424.56445         0.000           0.0005   24907650.0704
 -24211964.760 9 -18842985.94249  20918168.769    20918168.1644   20918178.4334
  -8846507.526 9  -6418054.39946  23736403.348    23736402.8514   23736420.8884
  -6783015.665 9  -5274931.36346  23738008.055    23738007.1004   23738022.1574
 -25891944.804 9 -20157622.93748  20997932.671    20997932.4144   20997942.7754
 00  4 20  0  0 22.0000000  0  8 26 30 17  3 23 21 22  6            -0.000000018
 -18571942.601 9 -14457504.59848  21743096.161    21743096.1884   21743107.0784
   -141479.710 8   -100319.52245  25455376.795    25455376.9984   25455405.0584
 -24720947.376 9 -19239764.05849  20772165.589    20772164.8904   20772174.8884
   -849162.62518   -645775.60845         0.000           0.0005   24907320.1364
 -24212430.962 9 -18843349.21449  20918080.029    20918079.4254   20918089.6904
  -8847817.438 9  -6419075.10046  23736154.061    23736153.5644   23736171.6014
  -6782802.976 9  -5274765.62846  23738048.523    23738047.5624   23738062.6254
 -25890894.175 9 -20156804.26748  20998132.601    20998132.3454   20998142.7064
 00  4 20  0  0 23.0000000  0  8 26 30 17  3 23 21 22  6            -0.000000018
 -18571645.806 9 -14457273.32948  21743152.644    21743152.6794   21743163.5594
   -139913.823 8    -99099.35545  25455674.762    25455674.9634   25455703.0224
 -24721037.905 9 -19239834.60249  20772148.369    20772147.6714   20772157.6644
   -850896.44818   -647126.63545         0.000           0.0005   24906990.4004
 -24212897.043 9 -18843712.39349  20917991.356    20917990.7574   20918001.0134
  -8849127.281 9  -6420095.74746  23735904.820    23735904.3264   23735922.3624
  -6782590.145 9  -5274599.78346  23738089.016    23738088.0544   23738103.1264
 -25889843.407 9 -20155985.49048  20998332.565    20998332.3074   20998342.6694
 00  4 20  0  0 23.0000000  0  8 26 30 17  3 23 21 22  6            -0.000000018
 -18571348.797 9 -14457041.89348  21743209.158    21743209.1894   21743220.0724
   -138347.965 8    -97879.21145  25455972.751    25455972.9474   25456001.0194
 -24721128.339 9 -19239905.07049  20772131.152    20772130.4634   20772140.4494
   -852630.20118   -648477.60845         0.000           0.0005   24906660.4164
 -24213362.969 9 -18844075.45149  20917902.693    20917902.0884   20917912.3524
  -8850437.022 9  -6421116.31846  23735655.564    23735655.0684   23735673.1064
  -6782377.152 9  -5274433.81546  23738129.560    23738128.6054   23738143.6644
 -25888792.479 9 -20155166.58548  20998532.540    20998532.2884   20998542.6494
 00  4 20  0  0 24.0000000  0  8 26 30 17  3 23 21 22  6            -0.000000018
 -18571051.663 9 -14456810.36148  21743265.683    21743265.7204   21743276.6044
   -136782.236 8    -96659.16545  25456270.700    25456270.8904   25456298.9654
 -24721218.771 9 -19239975.53649  20772113.939    20772113.2354   20772123.2394
   -854363.96518   -649828.59245         0.000           0.0005   24906330.3464
 -24213828.841 9 -18844438.46649  20917814.031    20917813.4294   20917823.6904
  -8851746.761 9  -6422136.88846  23735406.335    23735405.8414   23735423.8704
  -6782164.070 9  -5274267.77546  23738170.112    23738169.1474   23738184.2214
 -25887741.472 9 -20154347.62048  20998732.536    20998732.2804   20998742.6404
 00  4 20  0  0 24.0000000  0  8 26 30 17  3 23 21 22  6            -0.000000018
 -18570754.358 9 -14456578.69248  21743322.285    21743322.3114   21743333.2004
   -135216.543 8    -95439.15145  25456568.644    25456568.8244   25456596.9194
 -24721309.138 9 -19240045.95149  20772096.740    20772096.0374   20772106.0364
   -856097.72318   -651179.57145         0.000           0.0005   24906000.5034
 -24214294.578 9 -18844801.37849  20917725.413    20917724.8114   20917735.0694
  -8853056.432 9  -6423157.40446  23735157.089    23735156.5934   23735174.6224
  -6781950.856 9  -5274101.63446  23738210.692    23738209.7394   23738224.8124
 -25886690.327 9 -20153528.54648  20998932.560    20998932.3124   20998942.6654
 00  4 20  0  0 25.0000000  0  8 26 30 17  3 23 21 22  6            -0.000000018
 -18570456.854 9 -14456346.87148  21743378.882    21743378.9024   21743389.7954
   -133650.866 8    -94219.14445  25456866.580    25456866.7584   25456894.8554
 -24721399.433 9 -19240116.31049  20772079.565    20772078.8794   20772088.8644
   -857831.41818   -652530.50045         0.000           0.0005   24905670.6634
 -24214760.192 9 -18845164.19249  20917636.797    20917636.1924   20917646.4544
  -8854366.027 9  -6424177.86446  23734907.899    23734907.4154   23734925.4274
  -6781737.497 9  -5273935.38046  23738251.269    23738250.3214   23738265.3944
 -25885639.043 9 -20152709.36448  20999132.614    20999132.3634   20999142.7174
 00  4 20  0  0 25.0000000  0  8 26 30 17  3 23 21 22  6            -0.000000018
 -18570159.232 9 -14456114.95548  21743435.527    21743435.5634   21743446.4404
   -132085.286 8    -92999.21745  25457164.514    25457164.6914   25457192.7944
 -24721489.736 9 -19240186.67549  20772062.358    20772061.6614   20772071.6594
   -859565.17218   -653881.47645         0.000           0.0005   24905340.9104
 -24215225.759 9 -18845526.97049  20917548.209    20917547.6034   20917557.8644
  -8855675.632 9  -6425198.32946  23734658.686    23734658.1984   23734676.2124
  -6781524.072 9  -5273769.07346  23738291.896    23738290.9334   23738306.0184
 -25884587.686 9 -20151890.12548  20999332.678    20999332.4254   20999342.7824
 00  4 20  0  0 26.0000000  0  8 26 30 17  3 23 21 22  6            -0.000000018
 -18569861.374 9 -14455882.85848  21743492.212    21743492.2344   21743503.1274
   -130519.729 8    -91779.30845  25457462.426    25457462.6054   25457490.7094
 -24721579.919 9 -19240256.94849  20772045.218    20772044.5234   20772054.5214
   -861298.82618   -655232.37545         0.000           0.0005   24905011.1774
 -24215691.131 9 -18845889.59749  20917459.651    20917459.0454   20917469.3044
  -8856985.115 9  -6426218.70146  23734409.499    23734409.0114   23734427.0154
  -6781310.429 9  -5273602.60146  23738332.551    23738331.5954   23738346.6764
 -25883536.142 9 -20151070.74248  20999532.784    20999532.5364   20999542.8944
 00  4 20  0  0 26.0000000  0  8 26 30 17  3 23 21 22  6            -0.000000018
 -18569563.357 9 -14455650.63448  21743548.924    21743548.9544   21743559.8484
   -128954.246 8    -90559.45645  25457760.343    25457760.5194   25457788.6234
 -24721670.041 9 -19240327.17249  20772028.066    20772027.3754   20772037.3644
   -863032.47118   -656583.26545         0.000           0.0005   24904681.1524
 -24216156.396 9 -18846252.13949  20917371.098    20917370.4964   20917380.7524
  -8858294.527 9  -6427239.01446  23734160.317    23734159.8334   23734177.8334
  -6781096.672 9  -5273436.03746  23738373.235    23738372.2774   23738387.3604
 -25882484.473 9 -20150251.25948  20999732.919    20999732.6674   20999743.0324
 00  4 20  0  0 27.0000000  0  8 26 30 17  3 23 21 22  6            -0.000000018
 -18569265.206 9 -14455418.30948  21743605.647    21743605.6754   21743616.5584
   -127388.792 8    -89339.62645  25458058.245    25458058.4134   25458086.5214
 -24721760.170 9 -19240397.40249  20772010.898    20772010.1974   20772020.2004
   -864766.17618   -657934.20345         0.000           0.0005   24904351.3744
 -24216621.608 9 -18846614.64149  20917282.571    20917281.9674   20917292.2344
  -8859603.942 9  -6428259.32946  23733911.145    23733910.6664   23733928.6604
  -6780882.833 9  -5273269.40846  23738413.923    23738412.9594   23738428.0374
 -25881432.731 9 -20149431.72248  20999933.072    20999932.8194   20999943.1844
 00  4 20  0  0 27.0000000  0  8 26 30 17  3 23 21 22  6            -0.000000019
 -18568966.839 9 -14455185.81848  21743662.424    21743662.4564   21743673.3314
   -125823.360 8    -88119.81345  25458356.134    25458356.2874   25458384.4164
 -24721850.194 9 -19240467.54949  20771993.778    20771993.0794   20772003.0744
   -866499.77018   -659285.05445         0.000           0.0005   24904021.3734
 -24217086.648 9 -18846977.00949  20917194.094    20917193.4884   20917203.7494
  -8860913.250 9  -6429279.56746  23733661.981    23733661.4984   23733679.4904
  -6780668.810 9  -5273102.63846  23738454.642    23738453.6904   23738468.7574
 -25880380.820 9 -20148612.05248  21000133.237    21000132.9904   21000143.3464
 00  4 20  0  0 28.0000000  0  8 26 30 17  3 23 21 22  6            -0.000000019
 -18568668.327 9 -14454953.21348  21743719.241    21743719.2764   21743730.1484
   -124258.042 8    -86900.08745  25458654.007    25458654.1514   25458682.2704
 -24721940.187 9 -19240537.67549  20771976.658    20771975.9604   20771985.9554
   -868233.39518   -660635.92945         0.000           0.0005   24903691.4724
 -24217551.613 9 -18847339.31749  20917105.614    20917105.0104   20917115.2694
  -8862222.536 9  -6430299.78446  23733412.829    23733412.3514   23733430.3384
  -6780454.694 9  -5272935.79546  23738495.399    23738494.4424   23738509.5134
 -25879328.802 9 -20147792.29948  21000333.419    21000333.1724   21000343.5284
 00  4 20  0  0 28.0000000  0  8 26 30 17  3 23 21 22  6            -0.000000019
 -18568369.615 9 -14454720.44848  21743776.077    21743776.1174   21743787.0004
   -122692.746 8    -85680.37845  25458951.874    25458952.0154   25458980.1464
 -24722030.115 9 -19240607.74749  20771959.551    20771958.8524   20771968.8534
   -869967.00018   -661986.78545         0.000           0.0005   24903361.3014
 -24218016.442 9 -18847701.52149  20917017.163    20917016.5614   20917026.8204
  -8863531.742 9  -6431319.93846  23733163.697    23733163.2234   23733181.1964
  -6780240.407 9  -5272768.82046  23738536.166    23738535.2144   23738550.2754
 -25878276.643 9 -20146972.43648  21000533.659    21000533.4134   21000543.7664
 00  4 20  0  0 29.0000000  0  8 26 30 17  3 23 21 22  6            -0.000000019
 -18568070.729 9 -14454487.54748  21743832.955    21743832.9874   21743843.8694
   -121127.486 8    -84460.69845  25459249.758    25459249.8884   25459278.0234
 -24722119.984 9 -19240677.77549  20771942.430    20771941.7344   20771951.7294
   -871700.56918   -663337.61545         0.000           0.0005   24903031.1714
 -24218481.162 9 -18848063.63949  20916928.711    20916928.1024   20916938.3704
  -8864840.890 9  -6432340.04946  23732914.559    23732914.0864   23732932.0494
  -6780025.999 9  -5272601.74846  23738576.970    23738576.0164   23738591.0774
 -25877224.352 9 -20146152.47148  21000733.897    21000733.6444   21000744.0044
 00  4 20  0  0 29.0000000  0  8 26 30 17  3 23 21 22  6            -0.000000019
 -18567771.709 9 -14454254.54448  21743889.855    21743889.8984   21743900.7684
   -119562.342 8    -83241.10945  25459547.594    25459547.7224   25459575.8564
 -24722209.834 9 -19240747.78849  20771925.325    20771924.6264   20771934.6244
   -873434.12618   -664688.43645         0.000           0.0005   24902701.1944
 -24218945.801 9 -18848425.69449  20916840.298    20916839.6934   20916849.9524
  -8866150.009 9  -6433360.13746  23732665.444    23732664.9684   23732682.9354
  -6779811.482 9  -5272434.59546  23738617.781    23738616.8274   23738631.8854
 -25876171.968 9 -20145332.43148  21000934.155    21000933.9064   21000944.2604
 00  4 20  0  0 30.0000000  0  8 26 30 17  3 23 21 22  6            -0.000000019
 -18567472.397 9 -14454021.31748  21743946.799    21743946.8394   21743957.7094
   -117997.121 8    -82021.46145  25459845.437    25459845.5564   25459873.6954
 -24722299.519 9 -19240817.67249  20771908.261    20771907.5584   20771917.5574
   -875167.56118   -666039.16145         0.000           0.0005   24902371.1874
 -24219410.212 9 -18848787.57249  20916751.928    20916751.3244   20916761.5824
  -8867458.959 9  -6434380.09246  23732416.365    23732415.8914   23732433.8594
  -6779596.728 9  -5272267.25346  23738658.664    23738657.7194   23738672.7694
 -25875119.343 9 -20144512.20548  21001134.470    21001134.2274   21001144.5844
 00  4 20  0  0 30.0000000  0  8 26 30 17  3 23 21 22  6            -0.000000019
 -18567173.034 9 -14453788.04348  21744003.788    21744003.8194   21744014.7004
   -116432.068 8    -80801.94345  25460143.266    25460143.3804   25460171.5244
 -24722389.275 9 -19240887.61049  20771891.206    20771890.5104   20771900.5014
   -876901.10018   -667389.96645         0.000           0.0005   24902041.2624
 -24219874.642 9 -18849149.46349  20916663.537    20916662.9264   20916673.1884
  -8868767.979 9  -6435400.09746  23732167.238    23732166.7634   23732184.7294
  -6779381.970 9  -5272099.90746  23738699.529    23738698.5804   23738713.6264
 -25874066.716 9 -20143691.97748  21001334.779    21001334.5294   21001344.8944
 00  4 20  0  0 31.0000000  0  8 26 30 17  3 23 21 22  6            -0.000000020
 -18566873.468 9 -14453554.61448  21744060.791    21744060.8304   21744071.7004
   -114867.069 8    -79582.46945  25460441.083    25460441.1944   25460469.3384
 -24722478.948 9 -19240957.48449  20771874.124    20771873.4314   20771883.4194
   -878634.59818   -668740.74245         0.000           0.0005   24901711.3264
 -24220338.930 9 -18849511.24549  20916575.188    20916574.5774   20916584.8434
  -8870076.920 9  -6436420.04746  23731918.168    23731917.6964   23731935.6624
  -6779167.037 9  -5271932.42446  23738740.439    23738739.5024   23738754.5344
 -25873013.933 9 -20142871.62848  21001535.103    21001534.8604   21001545.2134
 00  4 20  0  0 31.0000000  0  8 26 30 17  3 23 21 22  6            -0.000000020
 -18566573.683 9 -14453321.01548  21744117.834    21744117.8614   21744128.7424
   -113302.048 8    -78362.97545  25460738.916    25460739.0274   25460767.1724
 -24722568.525 9 -19241027.28449  20771857.067    20771856.3734   20771866.3684
   -880368.03718   -670091.47045         0.000           0.0005   24901381.4684
 -24220803.057 9 -18849872.90049  20916486.873    20916486.2684   20916496.5264
  -8871385.761 9  -6437439.91646  23731669.086    23731668.6084   23731686.5794
  -6778951.954 9  -5271764.82946  23738781.349    23738780.4144   23738795.4454
 -25871960.981 9 -20142051.14448  21001735.471    21001735.2214   21001745.5904
 00  4 20  0  0 32.0000000  0  8 26 30 17  3 23 21 22  6            -0.000000020
 -18566273.745 9 -14453087.29548  21744174.900    21744174.9414   21744185.8014
   -111737.111 8    -77143.54945  25461036.715    25461036.8214   25461064.9714
 -24722658.071 9 -19241097.06049  20771840.036    20771839.3354   20771849.3404
   -882101.44818   -671442.17645         0.000           0.0005   24901051.3334
 -24221267.100 9 -18850234.49249  20916398.557    20916397.9494   20916408.2134
  -8872694.568 9  -6438459.75946  23731420.030    23731419.5514   23731437.5174
  -6778736.757 9  -5271597.14446  23738822.303    23738821.3764   23738836.3934
 -25870907.924 9 -20141230.58148  21001935.877    21001935.6324   21001945.9974
 00  4 20  0  0 32.0000000  0  8 26 30 17  3 23 21 22  6            -0.000000020
 -18565973.584 9 -14452853.40548  21744232.035    21744232.0714   21744242.9414
   -110172.166 8    -75924.11445  25461334.515    25461334.6154   25461362.7714
 -24722747.514 9 -19241166.75649  20771823.016    20771822.3274   20771832.3224
   -883834.82118   -672792.85645         0.000           0.0005   24900721.5934
 -24221730.981 9 -18850595.95749  20916310.281    20916309.6704   20916319.9354
  -8874003.266 9  -6439479.52046  23731170.996    23731170.5234   23731188.4854
  -6778521.384 9  -5271429.32246  23738863.290    23738862.3574   23738877.3754
 -25869854.688 9 -20140409.88148  21002136.297    21002136.0544   21002146.4114
 00  4 20  0  0 33.0000000  0  8 26 30 17  3 23 21 22  6            -0.000000020
 -18565673.302 9 -14452619.41948  21744289.168    21744289.1924   21744300.0674
   -108607.359 8    -74704.79245  25461632.301    25461632.3984   25461660.5544
 -24722836.953 9 -19241236.44949  20771805.996    20771805.2984   20771815.2964
   -885568.20118   -674143.54445         0.000           0.0005   24900391.7314
 -24222194.799 9 -18850957.37349  20916222.021    20916221.4114   20916231.6754
  -8875311.958 9  -6440499.27346  23730921.942    23730921.4664   23730939.4334
  -6778305.923 9  -5271261.42946  23738904.281    23738903.3594   23738918.3614
 -25868801.379 9 -20139589.12248  21002336.751    21002336.5054   21002346.8704
 00  4 20  0  0 33.0000000  0  8 26 30 17  3 23 21 22  6            -0.000000019
 -18565372.814 9 -14452385.27648  21744346.346    21744346.3724   21744357.2464
   -107042.553 8    -73485.46645  25461930.077    25461930.1824   25461958.3224
 -24722926.313 9 -19241306.08249  20771788.985    20771788.2904   20771798.2864
   -887301.54618   -675494.19945         0.000           0.0005   24900062.0314
 -24222658.476 9 -18851318.67749  20916133.785    20916133.1824   20916143.4394
  -8876620.573 9  -6441518.96846  23730672.930    23730672.4484   23730690.4274
  -6778090.309 9  -5271093.42346  23738945.309    23738944.3914   23738959.3864
 -25867747.912 9 -20138768.23848  21002537.210    21002536.9664   21002547.3264
 00  4 20  0  0 34.0000000  0  8 26 30 17  3 23 21 22  6            -0.000000019
 -18565072.194 9 -14452151.02748  21744403.553    21744403.5934   21744414.4474
   -105477.849 8    -72266.21745  25462227.831    25462227.9364   25462256.0754
 -24723015.659 9 -19241375.70349  20771771.982    20771771.2824   20771781.2764
   -889034.91218   -676844.87345         0.000           0.0005   24899732.1944
 -24223122.084 9 -18851679.92949  20916045.560    20916044.9544   20916055.2154
  -8877929.162 9  -6442538.64146  23730423.905    23730423.4204   23730441.3924
  -6777874.618 9  -5270925.35246  23738986.358    23738985.4424   23739000.4534
 -25866694.355 9 -20137947.28548  21002737.696    21002737.4474   21002747.8174
 00  4 20  0  0 34.0000000  0  8 26 30 17  3 23 21 22  6            -0.000000019
 -18564771.411 9 -14451916.64848  21744460.798    21744460.8334   21744471.6984
   -103913.201 8    -71047.01745  25462525.572    25462525.6704   25462553.8244
 -24723104.961 9 -19241445.28849  20771755.008    20771754.3144   20771764.3024
   -890768.27718   -678195.54645  24899385.390    24899386.4135   24899402.0594
 -24223585.595 9 -18852041.10649  20915957.354    20915956.7454   20915967.0054
  -8879237.717 9  -6443558.28846  23730174.884    23730174.4034   23730192.3674
  -6777658.793 9  -5270757.17446  23739027.433    23739026.5144   23739041.5124
 -25865640.688 9 -20137126.24948  21002938.184    21002937.9384   21002948.3044
 00  4 20  0  0 35.0000000  0  8 26 30 17  3 23 21 22  6            -0.000000019
 -18564470.403 9 -14451682.09648  21744518.070    21744518.1034   21744528.9654
   -102348.548 8    -69827.81045  25462823.324    25462823.4244   25462851.5764
 -24723194.158 9 -19241514.79249  20771738.011    20771737.3164   20771747.3124
   -892501.544 8   -679546.14245  24899055.554    24899056.5824   24899072.3094
 -24224048.933 9 -18852402.14649  20915869.205    20915868.5964   20915878.8634
  -8880546.158 9  -6444577.84546  23729925.898    23729925.4154   23729943.3804
  -6777442.785 9  -5270588.85546  23739068.542    23739067.6254   23739082.6384
 -25864586.832 9 -20136305.06348  21003138.741    21003138.5004   21003148.8634
 00  4 20  0  0 35.0000000  0  8 26 30 17  3 23 21 22  6            -0.000000020
 -18564169.227 9 -14451447.41248  21744575.385    21744575.4244   21744586.2824
   -100783.990 8    -68608.67545  25463121.051    25463121.1574   25463149.3074
 -24723283.319 9 -19241584.26649  20771721.068    20771720.3674   20771730.3624
   -894234.812 8   -680896.73845  24898725.724    24898726.9304   24898742.6144
 -24224512.182 9 -18852763.11949  20915781.025    20915780.4174   20915790.6744
  -8881854.567 9  -6445597.38346  23729676.920    23729676.4284   23729694.4004
  -6777226.656 9  -5270420.44446  23739109.654    23739108.7464   23739123.7524
 -25863532.867 9 -20135483.79248  21003339.307    21003339.0614   21003349.4244
 00  4 20  0  0 36.0000000  0  8 26 30 17  3 23 21 22  6            -0.000000020
 -18563867.941 9 -14451212.64248  21744632.707    21744632.7344   21744643.6014
    -99219.530 8    -67389.62145  25463418.761    25463418.8614   25463447.0094
 -24723372.483 9 -19241653.74349  20771704.084    20771703.3894   20771713.3824
   -895968.140 8   -682247.38045  24898395.891    24898397.2184   24898413.2014
 -24224975.378 9 -18853124.05049  20915692.899    20915692.2884   20915702.5534
  -8883162.963 9  -6446616.90746  23729427.936    23729427.4404   23729445.4154
  -6777010.447 9  -5270251.96846  23739150.818    23739149.9184   23739164.9164
 -25862478.828 9 -20134662.46348  21003539.895    21003539.6424   21003550.0174
 00  4 20  0  0 36.0000000  0  8 26 30 17  3 23 21 22  6            -0.000000020
 -18563566.407 9 -14450977.68048  21744690.094    21744690.1144   21744700.9984
    -97655.030 8    -66170.53545  25463716.471    25463716.5754   25463744.7254
 -24723461.524 9 -19241723.12649  20771687.147    20771686.4514   20771696.4464
   -897701.347 8   -683597.92845  24898066.076    24898067.5964   24898083.4764
 -24225438.387 9 -18853484.83549  20915604.797    20915604.1894   20915614.4494
  -8884471.240 9  -6447636.33546  23729178.957    23729178.4634   23729196.4414
  -6776794.048 9  -5270083.34346  23739191.997    23739191.0994   23739206.1004
 -25861424.593 9 -20133840.98348  21003740.509    21003740.2634   21003750.6304
 00  4 20  0  0 37.0000000  0  8 26 30 17  3 23 21 22  6            -0.000000020
 -18563264.693 9 -14450742.57948  21744747.503    21744747.5254   21744758.3884
    -96090.603 8    -64951.50645  25464014.167    25464014.2794   25464042.4184
 -24723550.517 9 -19241792.47349  20771670.210    20771669.5134   20771679.5064
   -899434.529 8   -684948.45745  24897736.252    24897738.6944   24897753.5264
 -24225901.292 9 -18853845.53849  20915516.686    20915516.0804   20915526.3374
  -8885779.452 9  -6448655.71446  23728930.020    23728929.5154   23728947.4924
  -6776577.519 9  -5269914.61946  23739233.193    23739232.3014   23739247.3024
 -25860370.225 9 -20133019.39848  21003941.150    21003940.9044   21003951.2774
 00  4 20  0  0 37.0000000  0  8 26 30 17  3 23 21 22  6            -0.000000020
 -18562962.867 9 -14450507.38848  21744804.955    21744804.9754   21744815.8414
    -94526.303 8    -63732.57745  25464311.868    25464311.9824   25464340.1124
 -24723639.507 9 -19241861.81549  20771653.263    20771652.5644   20771662.5584
   -901167.777 8   -686299.03745  24897406.413    24897409.0124   24897424.1524
 -24226364.139 9 -18854206.19749  20915428.623    20915428.0114   20915438.2734
  -8887087.658 9  -6449675.09246  23728681.086    23728680.5774   23728698.5574
  -6776360.914 9  -5269745.83846  23739274.405    23739273.5134   23739288.5094
 -25859315.785 9 -20132197.75848  21004141.778    21004141.5354   21004151.9014
 00  4 20  0  0 38.0000000  0  8 26 30 17  3 23 21 22  6            -0.000000020
 -18562660.827 9 -14450272.03248  21744862.416    21744862.4354   21744873.3064
    -92962.008 8    -62513.65045  25464609.539    25464609.6664   25464637.7814
 -24723728.418 9 -19241931.09549  20771636.358    20771635.6564   20771645.6524
   -902900.954 8   -687649.56445  24897076.592    24897079.3014   24897094.3884
 -24226826.842 9 -18854566.74449  20915340.572    20915339.9624   20915350.2264
  -8888395.791 9  -6450694.40646  23728432.133    23728431.6194   23728449.5984
  -6776144.137 9  -5269576.91846  23739315.657    23739314.7644   23739329.7714
 -25858261.174 9 -20131375.98548  21004342.477    21004342.2364   21004352.6054
 00  4 20  0  0 38.0000000  0  8 26 30 17  3 23 21 22  6            -0.000000020
 -18562358.628 9 -14450036.55148  21744919.927    21744919.9454   21744930.8234
    -91397.796 8    -61294.78945  25464907.207    25464907.3404   25464935.4584
 -24723817.287 9 -19242000.34349  20771619.450    20771618.7484   20771628.7464
   -904634.100 8   -689000.06345  24896746.807    24896749.6194   24896764.8754
 -24227289.449 9 -18854927.21449  20915252.542    20915251.9334   20915262.1934
  -8889703.878 9  -6451713.69046  23728183.223    23728182.7124   23728200.6814
  -6775927.232 9  -5269407.90346  23739356.938    23739356.0464   23739371.0454
 -25857206.463 9 -20130554.13348  21004543.179    21004542.9384   21004553.3024
 00  4 20  0  0 39.0000000  0  8 26 30 17  3 23 21 22  6            -0.000000021
 -18562056.199 9 -14449800.89448  21744977.472    21744977.4954   21744988.3694
    -89833.545 8    -60075.89645  25465204.870    25465205.0044   25465233.1274
 -24723906.050 9 -19242069.50849  20771602.555    20771601.8594   20771611.8444
   -906367.177 8   -690350.51045  24896416.989    24896419.5774   24896434.9864
 -24227751.894 9 -18855287.56349  20915164.522    20915163.9134   20915174.1704
  -8891011.859 9  -6452732.89346  23727934.313    23727933.7944   23727951.7694
  -6775710.145 9  -5269238.74646  23739398.237    23739397.3474   23739412.3554
 -25856151.557 9 -20129732.13048  21004743.930    21004743.6884   21004754.0534
 00  4 20  0  0 39.0000000  0  8 26 30 17  3 23 21 22  6            -0.000000021
 -18561753.598 9 -14449565.10248  21745035.069    21745035.0954   21745045.9644
    -88269.416 8    -58857.10145  25465502.521    25465502.6584   25465530.7764
 -24723994.764 9 -19242138.63749  20771585.680    20771584.9814   20771594.9744
   -908100.235 8   -691700.94145  24896087.217    24896089.8064   24896104.8504
 -24228214.218 9 -18855647.81449  20915076.545    20915075.9344   20915086.1944
  -8892319.764 9  -6453752.03546  23727685.415    23727684.8964   23727702.8734
  -6775492.922 9  -5269069.48246  23739439.570    23739438.6794   23739453.6894
 -25855096.516 9 -20128910.02348  21004944.707    21004944.4604   21004954.8324
 00  4 20  0  0 40.0000000  0  8 26 30 17  3 23 21 22  6            -0.000000021
 -18561450.837 9 -14449329.18348  21745092.672    21745092.6954   21745103.5574
    -86705.299 8    -57638.31345  25465800.167    25465800.3134   25465828.4234
 -24724083.454 9 -19242207.74749  20771568.792    20771568.0934   20771578.0814
   -909833.299 8   -693051.38045  24895757.429    24895760.1244   24895774.9734
 -24228676.460 9 -18856008.00249  20914988.589    20914987.9854   20914998.2414
  -8893627.667 9  -6454771.17446  23727436.547    23727436.0284   23727454.0024
  -6775275.590 9  -5268900.13646  23739480.931    23739480.0404   23739495.0404
 -25854041.376 9 -20128087.83648  21005145.489    21005145.2404   21005155.6114
 00  4 20  0  0 40.0000000  0  8 26 30 17  3 23 21 22  6            -0.000000021
 -18561147.876 9 -14449093.10948  21745150.334    21745150.3564   21745161.2164
    -85141.223 8    -56419.55745  25466097.800    25466097.9374   25466126.0624
 -24724172.058 9 -19242276.78849  20771551.928    20771551.2244   20771561.2154
   -911566.326 8   -694401.78945  24895427.634    24895430.1724   24895445.3234
 -24229138.565 9 -18856368.08249  20914900.651    20914900.0464   20914910.3044
  -8894935.462 9  -6455790.23046  23727187.653    23727187.1314   23727205.1094
  -6775058.087 9  -5268730.65146  23739522.321    23739521.4214   23739536.4384
 -25852986.071 9 -20127265.52348  21005346.296    21005346.0514   21005356.4214
 00  4 20  0  0 41.0000000  0  8 26 30 17  3 23 21 22  6            -0.000000021
 -18560844.772 9 -14448856.92348  21745208.005    21745208.0264   21745218.8934
    -83577.244 8    -55200.87945  25466395.402    25466395.5314   25466423.6744
 -24724260.640 9 -19242345.81349  20771535.076    20771534.3764   20771544.3614
   -913299.335 8   -695752.18445  24895097.863    24895100.0114   24895115.2874
 -24229600.580 9 -18856728.09149  20914812.729    20914812.1174   20914822.3814
  -8896243.235 9  -6456809.26646  23726938.808    23726938.2844   23726956.2614
  -6774840.490 9  -5268561.09746  23739563.738    23739562.8434   23739577.8414
 -25851930.663 9 -20126443.12748  21005547.137    21005546.8924   21005557.2604
 00  4 20  0  0 41.0000000  0  8 26 30 17  3 23 21 22  6            -0.000000021
 -18560541.540 9 -14448620.63548  21745265.717    21745265.7364   21745276.5974
    -82013.328 8    -53982.24545  25466693.025    25466693.1454   25466721.3084
 -24724349.223 9 -19242414.83749  20771518.206    20771517.5084   20771527.4914
   -915032.358 8   -697102.59045  24894768.068    24894770.0594   24894785.4814
 -24230062.538 9 -18857088.05649  20914724.816    20914724.2084   20914734.4644
  -8897551.004 9  -6457828.30046  23726689.924    23726689.3964   23726707.3634
  -6774622.809 9  -5268391.47446  23739605.136    23739604.2344   23739619.2454
 -25850875.174 9 -20125620.66748  21005748.008    21005747.7634   21005758.1364
 00  4 20  0  0 42.0000000  0  8 26 30 17  3 23 21 22  6            -0.000000021
 -18560238.071 9 -14448384.16748  21745323.475    21745323.4964   21745334.3554
    -80449.435 8    -52763.62945  25466990.628    25466990.7504   25467018.9134
 -24724437.685 9 -19242483.76949  20771501.384    20771500.6794   20771510.6764
   -916765.301 8   -698452.93145  24894438.298    24894440.2884   24894455.3684
 -24230524.318 9 -18857447.88449  20914636.957    20914636.3494   20914646.6094
  -8898858.640 9  -6458847.22946  23726441.080    23726440.5484   23726458.5284
  -6774404.930 9  -5268221.69946  23739646.611    23739645.7254   23739660.7154
 -25849819.499 9 -20124798.06548  21005948.879    21005948.6344   21005959.0034
 00  4 20  0  0 42.0000000  0  8 26 30 17  3 23 21 22  6            -0.000000021
 -18559934.439 9 -14448147.56848  21745381.243    21745381.2564   21745392.1224
    -78885.633 8    -51545.09045  25467288.197    25467288.3034   25467316.4854
 -24724526.123 9 -19242552.67949  20771484.553    20771483.8514   20771493.8454
   -918498.243 8   -699803.27245  24894108.529    24894110.8164   24894125.5854
 -24230986.011 9 -18857807.64449  20914549.081    20914548.4804   20914558.7274
  -8900166.255 9  -6459866.14146  23726192.245    23726191.7114   23726209.6864
  -6774186.941 9  -5268051.83646  23739688.086    23739687.1964   23739702.1894
 -25848763.704 9 -20123975.36748  21006149.804    21006149.5654   21006159.9294
 00  4 20  0  0 43.0000000  0  8 26 30 17  3 23 21 22  6            -0.000000021
 -18559630.652 9 -14447910.85248  21745439.048    21745439.0764   21745449.9294
    -77321.900 8    -50326.59945  25467585.784    25467585.8974   25467614.0754
 -24724614.518 9 -19242621.55849  20771467.732    20771467.0434   20771477.0194
   -920231.162 8   -701153.59645  24893778.788    24893781.0144   24893795.9744
 -24231447.608 9 -18858167.32949  20914461.255    20914460.6504   20914470.9054
  -8901473.813 9  -6460885.01346  23725943.445    23725942.9034   23725960.8864
  -6773968.825 9  -5267881.87646  23739729.585    23739728.6974   23739743.6924
 -25847707.795 9 -20123152.58248  21006350.716    21006350.4764   21006360.8404
 00  4 20  0  0 43.0000000  0  8 26 30 17  3 23 21 22  6            -0.000000021
 -18559326.668 9 -14447673.98048  21745496.886    21745496.8964   21745507.7654
    -75758.125 8    -49108.07945  25467883.362    25467883.4814   25467911.6514
 -24724702.838 9 -19242690.38049  20771450.926    20771450.2344   20771460.2224
   -921964.037 8   -702503.88545  24893449.040    24893451.4224   24893466.4294
 -24231909.063 9 -18858526.90349  20914373.444    20914372.8414   20914383.0904
  -8902781.297 9  -6461903.82846  23725694.636    23725694.0954   23725712.0754
  -6773750.561 9  -5267711.80346  23739771.130    23739770.2484   23739785.2334
 -25846651.734 9 -20122329.67948  21006551.685    21006551.4474   21006561.8114
 00  4 20  0  0 44.0000000  0  8 26 30 17  3 23 21 22  6            -0.000000022
 -18559022.457 9 -14447436.93448  21745554.794    21745554.8064   21745565.6764
    -74194.405 8    -47889.60145  25468180.938    25468181.0554   25468209.2304
 -24724791.067 9 -19242759.13049  20771434.126    20771433.4364   20771443.4234
   -923696.856 8   -703854.13245  24893119.287    24893121.5314   24893136.7934
 -24232370.370 9 -18858886.36149  20914285.655    20914285.0524   20914295.3024
  -8904088.667 9  -6462922.55246  23725445.844    23725445.2974   23725463.2814
  -6773532.106 9  -5267541.58146  23739812.701    23739811.8304   23739826.7994
 -25845595.486 9 -20121506.63148  21006752.677    21006752.4384   21006762.8064
 00  4 20  0  0 44.0000000  0  8 26 30 17  3 23 21 22  6            -0.000000022
 -18558718.146 9 -14447199.80848  21745612.688    21745612.7064   21745623.5674
    -72630.833 8    -46671.23645  25468478.463    25468478.5794   25468506.7554
 -24724879.312 9 -19242827.89049  20771417.357    20771416.6674   20771426.6494
   -925429.695 8   -705204.39245  24892789.559    24892791.8794   24892807.7334
 -24232831.633 9 -18859245.78549  20914197.870    20914197.2634   20914207.5194
  -8905396.061 9  -6463941.29146  23725197.031    23725196.4794   23725214.4624
  -6773313.592 9  -5267371.31046  23739854.276    23739853.4014   23739868.3874
 -25844539.172 9 -20120683.53048  21006953.698    21006953.4594   21006963.8264
 00  4 20  0  0 45.0000000  0  8 26 30 17  3 23 21 22  6            -0.000000022
 -18558413.672 9 -14446962.55248  21745670.622    21745670.6364   21745681.4944
    -71067.280 8    -45452.88945  25468776.022    25468776.1324   25468804.3064
 -24724967.519 9 -19242896.62249  20771400.567    20771399.8694   20771409.8534
   -927162.559 8   -706554.67445  24892459.848    24892462.0774   24892477.7514
 -24233292.802 9 -18859605.13549  20914110.107    20914109.5034   20914119.7574
  -8906703.411 9  -6464959.99846  23724948.248    23724947.7014   23724965.6764
  -6773094.957 9  -5267200.94646  23739895.869    23739895.0024   23739909.9824
 -25843482.755 9 -20119860.34848  21007154.739    21007154.4994   21007164.8654
 00  4 20  0  0 45.0000000  0  8 26 30 17  3 23 21 22  6            -0.000000022
 -18558108.966 9 -14446725.11748  21745728.627    21745728.6454   21745739.5024
    -69503.731 8    -44234.54445  25469073.547    25469073.6664   25469101.8284
 -24725055.617 9 -19242965.27049  20771383.804    20771383.1014   20771393.0984
   -928895.309 8   -707904.86745  24892130.116    24892132.2454   24892147.6604
 -24233753.801 9 -18859964.35549  20914022.396    20914021.7844   20914032.0464
  -8908010.637 9  -6465978.61146  23724699.481    23724698.9334   23724716.9104
  -6772876.129 9  -5267030.42746  23739937.513    23739936.6444   23739951.6294
 -25842426.131 9 -20119037.00548  21007355.813    21007355.5704   21007365.9414
 00  4 20  0  0 46.0000000  0  8 26 30 17  3 23 21 22  6            -0.000000022
 -18557804.107 9 -14446487.56748  21745786.633    21745786.6454   21745797.5064
    -67940.261 8    -43016.25945  25469371.076    25469371.2004   25469399.3534
 -24725143.672 9 -19243033.88549  20771367.047    20771366.3424   20771376.3344
   -930628.100 8   -709255.09145  24891800.412    24891802.2044   24891817.8774
 -24234214.694 9 -18860323.49249  20913934.681    20913934.0754   20913944.3294
  -8909317.817 9  -6466997.18846  23724450.735    23724450.1954   23724468.1694
  -6772657.171 9  -5266859.81046  23739979.177    23739978.3054   23739993.2994
 -25841369.389 9 -20118213.56848  21007556.893    21007556.6514   21007567.0264
 00  4 20  0  0 46.0000000  0  8 26 30 17  3 23 21 22  6            -0.000000022
 -18557499.053 9 -14446249.86348  21745844.681    21745844.6854   21745855.5534
    -66376.827 8    -41798.00345  25469668.567    25469668.6944   25469696.8494
 -24725231.658 9 -19243102.44449  20771350.299    20771349.5944   20771359.5834
   -932360.784 8   -710605.23245  24891470.705    24891472.0134   24891488.0604
 -24234675.468 9 -18860682.53649  20913846.994    20913846.3864   20913856.6464
  -8910624.921 9  -6468015.70446  23724202.001    23724201.4584   23724219.4284
  -6772438.075 9  -5266689.08746  23740020.870    23740019.9964   23740034.9984
 -25840312.508 9 -20117390.02548  21007758.018    21007757.7624   21007768.1494
 00  4 20  0  0 47.0000000  0  8 26 30 17  3 23 21 22  6            -0.000000022
 -18557193.889 9 -14446012.07348  21745902.762    21745902.7654   21745913.6324
    -64813.500 8    -40579.83645  25469966.082    25469966.2184   25469994.3684
 -24725319.660 9 -19243171.01949  20771333.564    20771332.8564   20771342.8504
   -934093.561 8   -711955.44545  24891141.003    24891142.1814   24891158.6534
 -24235136.203 9 -18861041.54849  20913759.319    20913758.7164   20913768.9684
  -8911932.040 9  -6469034.23246  23723953.260    23723952.7204   23723970.6844
  -6772218.906 9  -5266518.30646  23740062.598    23740061.7174   23740076.7234
 -25839255.552 9 -20116566.42448  21007959.145    21007958.8934   21007969.2754
 00  4 20  0  0 47.0000000  0  8 26 30 17  3 23 21 22  6            -0.000000022
 -18556888.469 9 -14445774.08048  21745960.865    21745960.8654   21745971.7424
    -63250.175 8    -39361.66445  25470263.566    25470263.7034   25470291.8424
 -24725407.536 9 -19243239.49449  20771316.839    20771316.1374   20771326.1204
   -935826.240 8   -713305.58045  24890811.269    24890812.0794   24890828.6954
 -24235596.756 9 -18861400.42049  20913671.700    20913671.0974   20913681.3514
  -8913239.036 9  -6470052.66846  23723704.545    23723704.0024   23723721.9704
  -6771999.525 9  -5266347.36146  23740104.324    23740103.4494   23740118.4524
 -25838198.398 9 -20115742.67148  21008160.310    21008160.0634   21008170.4394
 00  4 20  0  0 48.0000000  0  8 26 30 17  3 23 21 22  6            -0.000000022
 -18556582.948 9 -14445536.00948  21746019.003    21746019.0054   21746029.8784
    -61686.941 8    -38143.56745  25470561.047    25470561.1874   25470589.3264
 -24725495.429 9 -19243307.97949  20771300.113    20771299.4094   20771309.4024
   -937558.918 8   -714655.71845  24890481.566    24890481.9784   24890498.7224
 -24236057.267 9 -18861759.25849  20913584.047    20913583.4384   20913593.6924
  -8914546.035 9  -6471071.10046  23723455.817    23723455.2754   23723473.2354
  -6771780.072 9  -5266176.36046  23740146.098    23740145.2204   23740160.2334
 -25837141.188 9 -20114918.87048  21008361.485    21008361.2444   21008371.6194
 00  4 20  0  0 48.0000000  0  8 26 30 17  3 23 21 22  6            -0.000000023
 -18556277.201 9 -14445297.76648  21746077.180    21746077.1744   21746088.0564
    -60123.706 8    -36925.46745  25470858.534    25470858.6714   25470886.8114
 -24725583.207 9 -19243376.37849  20771283.410    20771282.7004   20771292.6894
   -939291.571 8   -716005.83345  24890151.871    24890153.0764   24890168.4094
 -24236517.608 9 -18862117.96449  20913496.461    20913495.8584   20913506.1124
  -8915852.922 9  -6472089.44846  23723207.122    23723206.5774   23723224.5364
  -6771560.430 9  -5266005.21146  23740187.899    23740187.0214   23740202.0364
 -25836083.782 9 -20114094.92048  21008562.706    21008562.4654   21008572.8324
 00  4 20  0  0 49.0000000  0  8 26 30 17  3 23 21 22  6            -0.000000023
 -18555971.280 9 -14445059.38648  21746135.412    21746135.4144   21746146.2804
    -58560.520 8    -35707.40445  25471155.978    25471156.1154   25471184.2554
 -24725670.946 9 -19243444.74749  20771266.698    20771265.9924   20771275.9804
   -941024.177 8   -717355.91445  24889822.196    24889823.1244   24889838.4154
 -24236977.852 9 -18862476.59749  20913408.864    20913408.2594   20913418.5114
  -8917159.756 9  -6473107.75346  23722958.429    23722957.8894   23722975.8454
  -6771340.661 9  -5265833.96146  23740229.717    23740228.8324   23740243.8514
 -25835026.258 9 -20113270.87748  21008763.970    21008763.7254   21008774.0994
 00  4 20  0  0 49.0000000  0  8 26 30 17  3 23 21 22  6            -0.000000023
 -18555665.148 9 -14444820.84548  21746193.663    21746193.6634   21746204.5344
    -56997.387 8    -34489.38445  25471453.457    25471453.5994   25471481.7344
 -24725758.590 9 -19243513.04049  20771250.038    20771249.3334   20771259.3174
   -942756.721 8   -718705.94445  24889492.507    24889493.2624   24889508.8834
 -24237437.946 9 -18862835.10949  20913321.315    20913320.7094   20913330.9674
  -8918466.497 9  -6474125.98746  23722709.771    23722709.2314   23722727.1804
  -6771120.725 9  -5265662.58346  23740271.557    23740270.6824   23740285.6914
 -25833968.560 9 -20112446.69848  21008965.228    21008964.9864   21008975.3564
 00  4 20  0  0 50.0000000  0  8 26 30 17  3 23 21 22  6            -0.000000023
 -18555358.874 9 -14444582.18848  21746251.949    21746251.9434   21746262.8114
    -55434.279 8    -33271.38245  25471750.896    25471751.0424   25471779.1804
 -24725846.209 9 -19243581.31549  20771233.355    20771232.6454   20771242.6344
   -944489.309 8   -720056.01045  24889162.815    24889163.1014   24889179.2674
 -24237897.966 9 -18863193.56549  20913233.779    20913233.1704   20913243.4254
  -8919773.201 9  -6475144.19246  23722461.100    23722460.5534   23722478.5104
  -6770900.670 9  -5265491.11046  23740313.443    23740312.5644   23740327.5784
 -25832910.763 9 -20111622.44148  21009166.509    21009166.2574   21009176.6374
 00  4 20  0  0 50.0000000  0  8 26 30 17  3 23 21 22  6            -0.000000023
 -18555052.482 9 -14444343.44148  21746310.250    21746310.2534   21746321.1184
    -53871.339 8    -32053.50845  25472048.317    25472048.4664   25472076.5974
 -24725933.830 9 -19243649.58949  20771216.664    20771215.9564   20771225.9484
   -946221.875 8   -721406.06145  24888833.134    24888833.2694   24888849.7784
 -24238357.929 9 -18863551.97549  20913146.259    20913145.6514   20913155.9074
  -8921079.907 9  -6476162.39646  23722212.431    23722211.8854   23722229.8434
  -6770680.546 9  -5265319.58946  23740355.329    23740354.4554   23740369.4654
 -25831852.898 9 -20110798.13048  21009367.826    21009367.5774   21009377.9564
 00  4 20  0  0 51.0000000  0  8 26 30 17  3 23 21 22  6            -0.000000023
 -18554745.863 9 -14444104.51448  21746368.594    21746368.6024   21746379.4604
    -52308.374 8    -30835.61845  25472345.765    25472345.9204   25472374.0434
 -24726021.348 9 -19243717.78449  20771200.031    20771199.3184   20771209.3184
   -947954.366 8   -722756.04845  24888503.486    24888503.6474   24888519.9984
 -24238817.733 9 -18863910.26349  20913058.766    20913058.1614   20913068.4144
  -8922386.506 9  -6477180.51546  23721963.789    23721963.2474   23721981.1984
  -6770460.235 9  -5265147.91846  23740397.263    23740396.3854   23740411.3954
 -25830794.844 9 -20109973.67348  21009569.161    21009568.9184   21009579.2934
 00  4 20  0  0 51.0000000  0  8 26 30 17  3 23 21 22  6            -0.000000023
 -18554439.045 9 -14443865.43348  21746426.986    21746426.9824   21746437.8414
    -50745.443 8    -29617.75445  25472643.173    25472643.3354   25472671.4454
 -24726108.781 9 -19243785.91449  20771183.392    20771182.6804   20771192.6744
   -949686.846 8   -724106.03245  24888173.830    24888173.6364   24888190.9954
 -24239277.407 9 -18864268.45149  20912971.283    20912970.6824   20912980.9294
  -8923693.023 9  -6478198.57746  23721715.156    23721714.6104   23721732.5624
  -6770239.765 9  -5264976.12346  23740439.194    23740438.3074   23740453.3314
 -25829736.635 9 -20109149.09748  21009770.545    21009770.2994   21009780.6734
 00  4 20  0  0 52.0000000  0  8 26 30 17  3 23 21 22  6            -0.000000023
 -18554132.046 9 -14443626.21448  21746485.404    21746485.4014   21746496.2584
    -49182.496 8    -28399.87745  25472940.609    25472940.7694   25472968.8854
 -24726196.152 9 -19243853.99549  20771166.749    20771166.0414   20771176.0294
   -951419.279 8   -725455.98045  24887844.169    24887844.3444   24887861.4224
 -24239736.967 9 -18864626.54649  20912883.825    20912883.2224   20912893.4744
  -8924999.471 9  -6479216.58546  23721466.534    23721465.9924   23721483.9314
  -6770019.139 9  -5264804.20846  23740481.188    23740480.2984   23740495.3134
 -25828678.293 9 -20108324.41548  21009971.948    21009971.6994   21009982.0764
 00  4 20  0  0 52.0000000  0  8 26 30 17  3 23 21 22  6            -0.000000023
 -18553824.889 9 -14443386.87148  21746543.850    21746543.8514   21746554.7114
    -47619.668 8    -27182.09445  25473237.988    25473238.1534   25473266.2574
 -24726283.479 9 -19243922.04249  20771150.154    20771149.4424   20771159.4324
   -953151.676 8   -726805.89545  24887514.532    24887514.6024   24887531.7594
 -24240196.421 9 -18864984.56049  20912796.402    20912795.8034   20912806.0504
  -8926305.865 9  -6480234.54746  23721217.944    23721217.3944   23721235.3374
  -6769798.402 9  -5264632.20746  23740523.200    23740522.3094   23740537.3264
 -25827619.828 9 -20107499.63748  21010173.359    21010173.1104   21010183.4904
 00  4 20  0  0 53.0000000  0  8 26 30 17  3 23 21 22  6            -0.000000023
 -18553517.582 9 -14443147.41048  21746602.326    21746602.3214   21746613.1974
    -46056.939 8    -25964.38845  25473535.389    25473535.5674   25473563.6594
 -24726370.782 9 -19243990.06949  20771133.512    20771132.8144   20771142.7924
   -954884.089 8   -728155.82745  24887184.911    24887184.8004   24887201.6804
 -24240655.806 9 -18865342.52249  20912708.980    20912708.3734   20912718.6284
  -8927612.230 9  -6481252.48746  23720969.334    23720968.7864   23720986.7264
  -6769577.542 9  -5264460.11246  23740565.223    23740564.3294   23740579.3534
 -25826561.262 9 -20106674.78348  21010374.813    21010374.5604   21010384.9474
 00  4 20  0  0 53.0000000  0  8 26 30 17  3 23 21 22  6            -0.000000023
 -18553210.094 9 -14442907.80748  21746660.833    21746660.8304   21746671.6944
    -44494.185 8    -24746.66245  25473832.769    25473832.9414   25473861.0284
 -24726458.021 9 -19244058.04749  20771116.915    20771116.2054   20771126.2004
   -956616.497 8   -729505.75345  24886855.254    24886855.2094   24886872.2504
 -24241115.074 9 -18865700.39249  20912621.563    20912620.9544   20912631.2074
  -8928918.542 9  -6482270.38746  23720720.760    23720720.2094   23720738.1574
  -6769356.557 9  -5264287.91646  23740607.289    23740606.4004   23740621.4184
 -25825502.562 9 -20105849.82248  21010576.252    21010576.0014   21010586.3894
 00  4 20  0  0 54.0000000  0  8 26 30 17  3 23 21 22  6            -0.000000023
 -18552902.424 9 -14442668.06448  21746719.399    21746719.3904   21746730.2634
    -42931.484 8    -23528.97945  25474130.155    25474130.3354   25474158.4134
 -24726545.200 9 -19244125.98149  20771100.338    20771099.6474   20771109.6184
   -958348.861 8   -730855.64545  24886525.635    24886525.7974   24886542.2804
 -24241574.228 9 -18866058.17649  20912534.189    20912533.5844   20912543.8384
  -8930224.781 9  -6483288.22946  23720472.181    23720471.6314   23720489.5724
  -6769135.423 9  -5264115.60446  23740649.377    23740648.4814   23740663.5034
 -25824443.731 9 -20105024.76048  21010777.743    21010777.4914   21010787.8784
 00  4 20  0  0 54.0000000  0  8 26 30 17  3 23 21 22  6            -0.000000023
 -18552594.576 9 -14442428.18248  21746777.979    21746777.9694   21746788.8384
    -41368.816 8    -22311.32145  25474427.517    25474427.6994   25474455.7764
 -24726632.317 9 -19244193.86349  20771083.755    20771083.0584   20771093.0364
   -960081.196 8   -732205.51445  24886195.994    24886195.8754   24886213.0284
 -24242033.280 9 -18866415.87849  20912446.841    20912446.2354   20912456.4904
  -8931530.959 9  -6484306.02146  23720223.614    23720223.0534   23720241.0124
  -6768914.144 9  -5263943.18146  23740691.473    23740690.5724   23740705.6044
 -25823384.766 9 -20104199.59848  21010979.260    21010979.0124   21010989.3944
 00  4 20  0  0 55.0000000  0  8 26 30 17  3 23 21 22  6            -0.000000023
 -18552286.549 9 -14442188.15748  21746836.570    21746836.5584   21746847.4324
    -39806.266 8    -21093.75545  25474724.868    25474725.0534   25474753.1234
 -24726719.374 9 -19244261.70049  20771067.202    20771066.5004   20771076.4894
   -961813.523 8   -733555.37645  24885866.381    24885866.3134   24885883.5134
 -24242492.214 9 -18866773.48849  20912359.501    20912358.8954   20912369.1454
  -8932837.070 9  -6485323.76446  23719975.067    23719974.5054   23719992.4644
  -6768692.725 9  -5263770.64346  23740733.606    23740732.7034   23740747.7414
 -25822325.671 9 -20103374.32948  21011180.808    21011180.5424   21011190.9324
 00  4 20  0  0 55.0000000  0  8 26 30 17  3 23 21 22  6            -0.000000023
 -18551978.363 9 -14441948.01448  21746895.229    21746895.2284   21746906.0894
    -38243.715 8    -19876.18845  25475022.215    25475022.4084   25475050.4724
 -24726806.391 9 -19244329.50549  20771050.618    20771049.9114   20771059.9014
   -963545.800 8   -734905.20045  24885536.739    24885536.3324   24885553.7554
 -24242951.054 9 -18867131.02449  20912272.183    20912271.5764   20912281.8354
  -8934143.139 9  -6486341.47546  23719726.515    23719725.9464   23719743.9044
  -6768471.186 9  -5263598.01746  23740775.754    23740774.8544   23740789.8814
 -25821266.464 9 -20102548.97448  21011382.384    21011382.1234   21011392.5114
 00  4 20  0  0 56.0000000  0  8 26 30 17  3 23 21 22  6            -0.000000023
 -18551669.999 9 -14441707.73148  21746953.907    21746953.8974   21746964.7684
    -36681.221 8    -18658.66745  25475319.562    25475319.7524   25475347.8224
 -24726893.343 9 -19244397.25749  20771034.092    20771033.3834   20771043.3804
   -965278.047 8   -736254.99945  24885207.125    24885207.0404   24885223.9854
 -24243409.794 9 -18867488.48149  20912184.915    20912184.3164   20912194.5584
  -8935449.148 9  -6487359.13846  23719477.995    23719477.4294   23719495.3894
  -6768249.514 9  -5263425.28146  23740817.951    23740817.0554   23740832.0894
 -25820207.126 9 -20101723.51648  21011583.971    21011583.7034   21011594.1034
 00  4 20  0  0 56.0000000  0  8 26 30 17  3 23 21 22  6            -0.000000023
 -18551361.537 9 -14441467.36948  21747012.588    21747012.5774   21747023.4474
    -35118.895 8    -17441.27645  25475616.855    25475617.0564   25475645.1114
 -24726980.321 9 -19244465.03449  20771017.538    20771016.8344   20771026.8264
   -967010.407 8   -737604.88745  24884877.479    24884877.2684   24884894.2634
 -24243868.510 9 -18867845.92149  20912097.614    20912097.0074   20912107.2664
  -8936755.186 9  -6488376.82646  23719229.448    23719228.8804   23719246.8334
  -6768027.785 9  -5263252.50746  23740860.127    23740859.2354   23740874.2644
 -25819147.747 9 -20100898.02548  21011785.561    21011785.2944   21011795.6954
 00  4 20  0  0 57.0000000  0  8 26 30 17  3 23 21 22  6            -0.000000023
 -18551052.771 9 -14441226.77248  21747071.347    21747071.3364   21747082.2054
    -33556.443 8    -16223.78645  25475914.198    25475914.4004   25475942.4524
 -24727067.113 9 -19244532.66349  20771001.028    20771000.3364   20771010.3094
   -968742.571 8   -738954.62245  24884547.874    24884547.7364   24884564.4004
 -24244326.979 9 -18868203.16849  20912010.354    20912009.7474   20912020.0054
  -8938061.031 9  -6489394.35946  23718980.945    23718980.3734   23718998.3324
  -6767805.783 9  -5263079.51846  23740902.384    23740901.4964   23740916.5144
 -25818088.109 9 -20100072.33448  21011987.186    21011986.9344   21011997.3124
 00  4 20  0  0 57.0000000  0  8 26 30 17  3 23 21 22  6            -0.000000023
 -18550743.900 9 -14440986.09248  21747130.133    21747130.1354   21747140.9884
    -31994.082 8    -15006.36645  25476211.501    25476211.7144   25476239.7584
 -24727153.910 9 -19244600.29749  20770984.509    20770983.8074   20770993.7934
   -970474.809 8   -740304.41245  24884218.258    24884218.2644   24884234.8714
 -24244785.415 9 -18868560.39149  20911923.116    20911922.5074   20911932.7624
  -8939366.875 9  -6490411.89546  23718732.441    23718731.8654   23718749.8224
  -6767583.719 9  -5262906.47946  23740944.626    23740943.7274   23740958.7514
 -25817028.407 9 -20099246.59348  21012188.838    21012188.5844   21012198.9694
 00  4 20  0  0 58.0000000  0  8 26 30 17  3 23 21 22  6            -0.000000023
 -18550434.762 9 -14440745.20648  21747188.961    21747188.9644   21747199.8244
    -30431.729 8    -13788.95345  25476508.794    25476509.0184   25476537.0564
 -24727240.558 9 -19244667.81549  20770967.998    20770967.2994   20770977.2884
   -972206.917 8   -741654.10345  24883888.665    24883888.8524   24883905.2654
 -24245243.656 9 -18868917.45949  20911835.928    20911835.3284   20911845.5744
  -8940672.579 9  -6491429.31746  23718483.978    23718483.4074   23718501.3604
  -6767361.426 9  -5262733.26446  23740986.951    23740986.0674   23741001.0804
 -25815968.500 9 -20098420.69648  21012390.531    21012390.2754   21012400.6574
 00  4 20  0  0 58.0000000  0  8 26 30 17  3 23 21 22  6            -0.000000023
 -18550125.480 9 -14440504.20948  21747247.798    21747247.7944   21747258.6534
    -28869.447 8    -12571.59445  25476806.117    25476806.3424   25476834.3844
 -24727327.174 9 -19244735.30849  20770951.525    20770950.8304   20770960.8124
   -973939.030 8   -743003.79945  24883559.089    24883558.8414   24883575.6814
 -24245701.808 9 -18869274.46049  20911748.742    20911748.1384   20911758.3854
  -8941978.235 9  -6492446.70346  23718235.518    23718234.9394   23718252.8934
  -6767139.014 9  -5262559.95646  23741029.263    23741028.3684   23741043.4064
 -25814908.473 9 -20097594.70148  21012592.267    21012592.0154   21012602.4004
 00  4 20  0  0 59.0000000  0  8 26 30 17  3 23 21 22  6            -0.000000023
 -18549816.071 9 -14440263.11148  21747306.697    21747306.6934   21747317.5684
    -27307.227 8    -11354.28445  25477103.400    25477103.6374   25477131.6644
 -24727413.774 9 -19244802.78849  20770935.040    20770934.3514   20770944.3234
   -975671.142 8   -744353.49545  24883229.503    24883229.9084   24883246.0974
 -24246159.902 9 -18869631.41649  20911661.572    20911660.9684   20911671.2194
  -8943283.876 9  -6493464.07946  23717987.047    23717986.4714   23718004.4244
  -6766916.515 9  -5262386.57746  23741071.586    23741070.6994   23741085.7254
 -25813848.372 9 -20096768.64848  21012793.989    21012793.7354   21012804.1194
 00  4 20  0  0 59.0000000  0  8 26 30 17  3 23 21 22  6            -0.000000023
 -18549506.517 9 -14440021.90048  21747365.603    21747365.6024   21747376.4714
    -25745.080 8    -10137.03145  25477400.674    25477400.9214   25477428.9474
 -24727500.344 9 -19244870.24549  20770918.574    20770917.8834   20770927.8644
   -977403.276 8   -745703.20845  24882899.891    24882900.1374   24882916.5084
 -24246617.920 9 -18869988.31249  20911574.410    20911573.8094   20911584.0554
  -8944589.503 9  -6494481.44246  23717738.608    23717738.0324   23717755.9824
  -6766693.902 9  -5262213.11346  23741113.954    23741113.0604   23741128.1074
 -25812788.172 9 -20095942.51948  21012995.747    21012995.4964   21013005.8804
 00  4 20  0  1  0.0000000  0  8 26 30 17  3 23 21 22  6            -0.000000024
 -18549196.787 9 -14439780.54948  21747424.519    21747424.5124   21747435.3864
    -24183.004 8     -8919.83345  25477697.911    25477698.1564   25477726.1854
 -24727586.859 9 -19244937.65949  20770902.102    20770901.4144   20770911.3914
   -979135.401 8   -747052.91245  24882570.292    24882570.3354   24882586.8954
 -24247075.815 9 -18870345.11149  20911487.260    20911486.6594   20911496.9084
  -8945895.057 9  -6495498.75146  23717490.153    23717489.5754   23717507.5284
  -6766471.148 9  -5262039.54046  23741156.337    23741155.4514   23741170.4934
 -25811727.838 9 -20095116.28648  21013197.517    21013197.2564   21013207.6534
 00  4 20  0  1  0.0000000  0  8 26 30 17  3 23 21 22  6            -0.000000023
 -18548886.852 9 -14439539.04248  21747483.511    21747483.5014   21747494.3694
    -22620.906 8     -7702.61845  25477995.183    25477995.4304   25478023.4514
 -24727673.282 9 -19245005.00349  20770885.658    20770884.9654   20770894.9434
   -980867.450 8   -748402.56045  24882240.706    24882240.8334   24882257.2934
 -24247533.580 9 -18870701.81049  20911400.163    20911399.5594   20911409.8044
  -8947200.516 9  -6496515.98646  23717241.716    23717241.1364   23717259.0864
  -6766248.230 9  -5261865.83946  23741198.769    23741197.8814   23741212.9334
 -25810667.351 9 -20094289.93348  21013399.317    21013399.0474   21013409.4494
 00  4 20  0  1  1.0000000  0  8 26 30 17  3 23 21 22  6            -0.000000023
 -18548576.749 9 -14439297.40248  21747542.530    21747542.5204   21747553.3894
    -21058.893 8     -6485.46745  25478292.435    25478292.6844   25478320.7104
 -24727759.665 9 -19245072.31349  20770869.229    20770868.5274   20770878.5254
   -982599.483 8   -749752.19445  24881911.139    24881911.2714   24881927.7064
 -24247991.253 9 -18871058.43749  20911313.067    20911312.4604   20911322.7074
  -8948505.940 9  -6497533.19646  23716993.307    23716992.7284   23717010.6754
  -6766025.181 9  -5261692.03646  23741241.201    23741240.3124   23741255.3634
 -25809606.744 9 -20093463.48648  21013601.139    21013600.8874   21013611.2754
 00  4 20  0  1  1.0000000  0  8 26 30 17  3 23 21 22  6            -0.000000024
 -18548266.508 9 -14439055.65648  21747601.570    21747601.5794   21747612.4454
    -19496.940 8     -5268.36645  25478589.653    25478589.9094   25478617.9224
 -24727846.012 9 -19245139.59549  20770852.801    20770852.1084   20770862.0954
   -984331.542 8   -751101.84845  24881581.557    24881581.3504   24881598.1024
 -24248448.836 9 -18871414.99349  20911226.006    20911225.4004   20911235.6544
  -8949811.320 9  -6498550.37046  23716744.895    23716744.3204   23716762.2664
  -6765802.022 9  -5261518.14646  23741283.675    23741282.7824   23741297.8444
 -25808546.041 9 -20092636.96648  21013803.008    21013802.7474   21013813.1374
 00  4 20  0  1  2.0000000  0  8 26 30 17  3 23 21 22  6            -0.000000024
 -18547956.038 9 -14438813.73448  21747660.645    21747660.6484   21747671.5194
    -17935.005 8     -4051.28045  25478886.876    25478887.1324   25478915.1424
 -24727932.268 9 -19245206.80749  20770836.385    20770835.7004   20770845.6784
   -986063.520 8   -752451.43945  24881251.977    24881251.5784   24881268.4864
 -24248906.280 9 -18871771.44249  20911138.948    20911138.3404   20911148.5944
  -8951116.606 9  -6499567.47346  23716496.502    23716495.9224   23716513.8724
  -6765578.672 9  -5261344.11046  23741326.151    23741325.2634   23741340.3274
 -25807485.161 9 -20091810.30848  21014004.889    21014004.6274   21014015.0214
 00  4 20  0  1  2.0000000  0  8 26 30 17  3 23 21 22  6            -0.000000024
 -18547645.429 9 -14438571.69748  21747719.734    21747719.7474   21747730.6154
    -16373.129 8     -2834.23845  25479184.114    25479184.3664   25479212.3744
 -24728018.494 9 -19245273.99549  20770819.978    20770819.2914   20770829.2674
   -987795.498 8   -753801.03145  24880922.397    24880922.2564   24880938.8864
 -24249363.637 9 -18872127.82349  20911051.920    20911051.3214   20911061.5604
  -8952421.863 9  -6500584.54646  23716248.104    23716247.5244   23716265.4774
  -6765355.217 9  -5261169.98746  23741368.674    23741367.7834   23741382.8544
 -25806424.188 9 -20090983.57848  21014206.773    21014206.5174   21014216.9034
 00  4 20  0  1  3.0000000  0  8 26 30 17  3 23 21 22  6            -0.000000024
 -18547334.644 9 -14438329.52848  21747778.889    21747778.8964   21747789.7664
    -14811.328 8     -1617.25545  25479481.313    25479481.5804   25479509.5624
 -24728104.666 9 -19245341.14249  20770803.564    20770802.8624   20770812.8644
   -989527.458 8   -755150.60845  24880592.846    24880593.0244   24880609.3044
 -24249820.885 9 -18872484.12049  20910964.894    20910964.2914   20910974.5394
  -8953727.054 9  -6501601.57646  23715999.729    23715999.1464   23716017.1044
  -6765131.616 9  -5260995.75346  23741411.232    23741410.3444   23741425.4194
 -25805363.096 9 -20090156.75348  21014408.696    21014408.4384   21014418.8324
 00  4 20  0  1  3.0000000  0  8 26 30 17  3 23 21 22  6            -0.000000024
 -18547023.713 9 -14438087.24348  21747838.040    21747838.0454   21747848.9164
    -13249.558 8      -400.29845  25479778.519    25479778.7944   25479806.7674
 -24728190.804 9 -19245408.26049  20770787.180    20770786.4844   20770796.4674
   -991259.417 8   -756500.18445  24880263.282    24880263.2524   24880279.7284
 -24250278.066 9 -18872840.36249  20910877.891    20910877.2914   20910887.5324
  -8955032.219 9  -6502618.57846  23715751.363    23715750.7884   23715768.7354
  -6764907.908 9  -5260821.43346  23741453.811    23741452.9244   23741467.9954
 -25804301.891 9 -20089329.83948  21014610.623    21014610.3684   21014620.7604
 00  4 20  0  1  4.0000000  0  8 26 30 17  3 23 21 22  6            -0.000000024
 -18546712.578 9 -14437844.79948  21747897.248    21747897.2444   21747908.1244
    -11687.862 8       816.60445  25480075.705    25480075.9794   25480103.9454
 -24728276.853 9 -19245475.31249  20770770.806    20770770.1054   20770780.0944
   -992991.346 8   -757849.74045  24879933.724    24879934.5904   24879950.1564
 -24250735.100 9 -18873196.49249  20910790.929    20910790.3214   20910800.5764
  -8956337.299 9  -6503635.51746  23715503.020    23715502.4404   23715520.3884
  -6764684.030 9  -5260646.98046  23741496.393    23741495.5054   23741510.5764
 -25803240.527 9 -20088502.80548  21014812.596    21014812.3384   21014822.7344
 00  4 20  0  1  4.0000000  0  8 26 30 17  3 23 21 22  6            -0.000000023
 -18546401.152 9 -14437602.13148  21747956.529    21747956.5334   21747967.4114
    -10126.085 8      2033.56845  25480372.908    25480373.1934   25480401.1454
 -24728362.744 9 -19245542.24249  20770754.448    20770753.7464   20770763.7404
   -994723.134 8   -759199.18645  24879604.202    24879605.2084   24879620.6204
 -24251191.917 9 -18873552.45349  20910703.986    20910703.3814   20910713.6264
  -8957642.209 9  -6504652.32846  23715254.706    23715254.1224   23715272.0694
  -6764459.903 9  -5260472.33646  23741539.036    23741538.1554   23741553.2264
 -25802178.932 9 -20087675.58948  21015014.627    21015014.3584   21015024.7664
 00  4 20  0  1  5.0000000  0  8 26 30 17  3 23 21 22  6            -0.000000023
 -18546089.630 9 -14437359.38548  21748015.790    21748015.8024   21748026.6744
     -8564.381 8      3250.47645  25480670.080    25480670.3684   25480698.3204
 -24728448.652 9 -19245609.18349  20770738.125    20770737.4384   20770747.4114
   -996454.961 8   -760548.65945  24879274.650    24879275.9764   24879291.0874
 -24251648.712 9 -18873908.39749  20910617.072    20910616.4724   20910626.7094
  -8958947.145 9  -6505669.15646  23715006.364    23715005.7744   23715023.7214
  -6764235.708 9  -5260297.64046  23741581.718    23741580.8364   23741595.9054
 -25801117.293 9 -20086848.33748  21015216.644    21015216.3884   21015226.7824
 00  4 20  0  1  5.0000000  0  8 26 30 17  3 23 21 22  6            -0.000000023
 -18545777.994 9 -14437116.54948  21748075.089    21748075.0914   21748085.9654
     -7002.826 8      4467.26645  25480967.253    25480967.5524   25480995.4954
 -24728534.562 9 -19245676.12449  20770721.759    20770721.0694   20770731.0514
   -998186.831 8   -761898.16645  24878945.084    24878946.3544   24878961.5504
 -24252105.453 9 -18874264.29749  20910530.157    20910529.5524   20910539.7954
  -8960252.084 9  -6506685.98946  23714758.038    23714757.4464   23714775.3934
  -6764011.441 9  -5260122.88846  23741624.389    23741623.5074   23741638.5874
 -25800055.582 9 -20086021.02948  21015418.676    21015418.4094   21015428.8074
 00  4 20  0  1  6.0000000  0  8 26 30 17  3 23 21 22  6            -0.000000023
 -18545466.123 9 -14436873.53348  21748134.451    21748134.4704   21748145.3214
     -5441.278 8      5684.05345  25481264.421    25481264.7174   25481292.6684
 -24728620.361 9 -19245742.98149  20770705.448    20770704.7504   20770714.7364
   -999918.637 8   -763247.62345  24878615.566    24878617.1524   24878632.0304
 -24252562.027 9 -18874620.06749  20910443.260    20910442.6524   20910452.8974
  -8961556.902 9  -6507702.72146  23714509.724    23714509.1284   23714527.0774
  -6763786.974 9  -5259947.97946  23741667.107    23741666.2174   23741681.3044
 -25798993.691 9 -20085193.58548  21015620.751    21015620.4894   21015630.8904
 00  4 20  0  1  6.0000000  0  8 26 30 17  3 23 21 22  6            -0.000000023
 -18545154.080 9 -14436630.38148  21748193.817    21748193.8294   21748204.6944
     -3879.745 8      6900.83145  25481561.572    25481561.8714   25481589.8324
 -24728706.113 9 -19245809.79949  20770689.127    20770688.4424   20770698.4104
  -1001650.425 8   -764597.06845  24878286.024    24878287.4704   24878302.5054
 -24253018.519 9 -18874975.77349  20910356.406    20910355.8024   20910366.0414
  -8962861.691 9  -6508719.43346  23714261.440    23714260.8404   23714278.7894
  -6763562.385 9  -5259772.97846  23741709.833    23741708.9474   23741724.0324
 -25797931.685 9 -20084366.04948  21015822.844    21015822.5894   21015832.9824
 00  4 20  0  1  7.0000000  0  8 26 30 17  3 23 21 22  6            -0.000000023
 -18544841.824 9 -14436387.06748  21748253.230    21748253.2484   21748264.1134
     -2318.244 8      8117.58145  25481858.714    25481859.0164   25481886.9804
 -24728791.771 9 -19245876.54749  20770672.826    20770672.1234   20770682.1094
  -1003382.126 8   -765946.44145  24877956.491    24877957.9384   24877972.9754
 -24253474.861 9 -18875331.36349  20910269.574    20910268.9624   20910279.2124
  -8964166.378 9  -6509736.06646  23714013.174    23714012.5724   23714030.5274
  -6763337.601 9  -5259597.82346  23741752.622    23741751.7374   23741766.8214
 -25796869.513 9 -20083538.38548  21016024.986    21016024.7194   21016035.1164
 00  4 20  0  1  7.0000000  0  8 26 30 17  3 23 21 22  6            -0.000000023
 -18544529.451 9 -14436143.65848  21748312.685    21748312.7064   21748323.5704
      -756.895 8      9334.21245  25482155.847    25482156.1404   25482184.1224
 -24728877.435 9 -19245943.29749  20770656.514    20770655.8144   20770665.8004
  -1005113.889 8   -767295.86545  24877626.949    24877628.1964   24877643.4354
 -24253931.154 9 -18875686.91549  20910182.724    20910182.1124   20910192.3654
  -8965471.068 9  -6510752.70146  23713764.880    23713764.2744   23713782.2324
  -6763112.747 9  -5259422.61146  23741795.393    23741794.5074   23741809.6044
 -25795807.275 9 -20082710.66648  21016227.105    21016226.8394   21016237.2434
 00  4 20  0  1  8.0000000  0  8 26 30 17  3 23 21 22  6            -0.000000023
 -18544216.891 9 -14435900.10248  21748372.160    21748372.1754   21748383.0354
       804.484 8     10550.86845  25482452.972    25482453.2644   25482481.2534
 -24728963.012 9 -19246009.98149  20770640.240    20770639.5364   20770649.5264
  -1006845.582 8   -768645.23345  24877297.429    24877298.6654   24877313.9124
 -24254387.321 9 -18876042.36949  20910095.927    20910095.3224   20910105.5644
  -8966775.693 9  -6511769.28446  23713516.621    23713516.0054   23713533.9674
  -6762887.734 9  -5259247.27546  23741838.205    23741837.3184   23741852.4154
 -25794744.891 9 -20081882.83548  21016429.260    21016428.9994   21016439.3984
 00  4 20  0  1  8.0000000  0  8 26 30 17  3 23 21 22  6            -0.000000023
 -18543904.231 9 -14435656.47248  21748431.657    21748431.6844   21748442.5334
      2365.713 8     11767.40345  25482750.066    25482750.3584   25482778.3504
 -24729048.610 9 -19246076.67949  20770623.945    20770623.2474   20770633.2334
  -1008577.344 8   -769994.65445  24876967.903    24876968.9234   24876984.3784
 -24254843.458 9 -18876397.79949  20910009.125    20910008.5224   20910018.7634
  -8968080.339 9  -6512785.88446  23713268.358    23713267.7474   23713285.7014
  -6762662.653 9  -5259071.88746  23741881.058    23741880.1784   23741895.2754
 -25793682.449 9 -20081054.96148  21016631.465    21016631.2094   21016641.6014
 00  4 20  0  1  9.0000000  0  8 26 30 17  3 23 21 22  6            -0.000000023
 -18543591.353 9 -14435412.66948  21748491.197    21748491.2234   21748502.0704
      3926.957 8     12983.95145  25483047.165    25483047.4534   25483075.4564
 -24729134.104 9 -19246143.29749  20770607.665    20770606.9584   20770616.9534
  -1010309.032 8   -771344.01945  24876638.377    24876639.2414   24876654.8464
 -24255299.435 9 -18876753.10449  20909922.362    20909921.7534   20909932.0014
  -8969384.880 9  -6513802.40146  23713020.088    23713019.4794   23713037.4374
  -6762437.387 9  -5258896.35546  23741923.926    23741923.0394   23741938.1384
 -25792619.845 9 -20080226.95748  21016833.650    21016833.3794   21016843.7834
 00  4 20  0  1  9.0000000  0  8 26 30 17  3 23 21 22  6            -0.000000023
 -18543278.343 9 -14435168.76648  21748550.761    21748550.7914   21748561.6384
      5488.111 8     14200.43145  25483344.253    25483344.5474   25483372.5544
 -24729219.584 9 -19246209.90549  20770591.411    20770590.7194   20770600.6954
  -1012040.733 8   -772693.39445  24876308.866    24876309.5594   24876325.3164
 -24255755.356 9 -18877108.36649  20909835.602    20909834.9934   20909845.2354
  -8970689.410 9  -6514818.91446  23712771.834    23712771.2214   23712789.1834
  -6762212.032 9  -5258720.75546  23741966.806    23741965.9294   23741981.0224
 -25791557.144 9 -20079398.88048  21017035.871    21017035.5994   21017046.0134
 00  4 20  0  1 10.0000000  0  8 26 30 17  3 23 21 22  6            -0.000000023
 -18542965.109 9 -14434924.68748  21748610.368    21748610.3904   21748621.2444
      7049.202 8     15416.86045  25483641.309    25483641.6014   25483669.6124
 -24729304.948 9 -19246276.42249  20770575.175    20770574.4804   20770584.4684
  -1013772.368 8   -774042.71845  24875979.353    24875980.2974   24875995.7764
 -24256211.104 9 -18877463.49449  20909748.868    20909748.2634   20909758.5014
  -8971993.829 9  -6515835.33746  23712523.621    23712523.0124   23712540.9604
  -6761986.474 9  -5258544.99646  23742009.726    23742008.8494   23742023.9414
 -25790494.263 9 -20078570.66448  21017238.151    21017237.8894   21017248.2864
 00  4 20  0  1 10.0000000  0  8 26 30 17  3 23 21 22  6            -0.000000023
 -18542651.718 9 -14434680.48748  21748670.011    21748670.0394   21748680.8944
      8610.263 8     16633.26845  25483938.390    25483938.6864   25483966.6994
 -24729390.271 9 -19246342.90849  20770558.926    20770558.2224   20770568.2124
  -1015503.995 8   -775392.03745  24875649.847    24875651.1554   24875666.2414
 -24256666.760 9 -18877818.54949  20909662.161    20909661.5534   20909671.7924
  -8973298.209 9  -6516851.73246  23712275.393    23712274.7844   23712292.7294
  -6761760.800 9  -5258369.14946  23742052.651    23742051.7694   23742066.8664
 -25789431.273 9 -20077742.36148  21017440.421    21017440.1594   21017450.5564
 00  4 20  0  1 11.0000000  0  8 26 30 17  3 23 21 22  6            -0.000000023
 -18542338.113 9 -14434436.11648  21748729.683    21748729.6984   21748740.5514
     10171.370 8     17849.71145  25484235.452    25484235.7514   25484263.7684
 -24729475.497 9 -19246409.31749  20770542.728    20770542.0334   20770552.0084
  -1017235.560 8   -776741.30645  24875320.339    24875321.5934   24875336.7144
 -24257122.282 9 -18878173.49949  20909575.469    20909574.8734   20909585.1064
  -8974602.510 9  -6517868.06446  23712027.207    23712026.5964   23712044.5494
  -6761534.944 9  -5258193.15746  23742095.655    23742094.7794   23742109.8714
 -25788368.115 9 -20076913.92848  21017642.733    21017642.4694   21017652.8674
 00  4 20  0  1 11.0000000  0  8 26 30 17  3 23 21 22  6            -0.000000023
 -18542024.398 9 -14434191.66448  21748789.369    21748789.3874   21748800.2474
     11732.261 8     19065.98545  25484532.468    25484532.7554   25484560.7984
 -24729560.725 9 -19246475.72949  20770526.481    20770525.7844   20770535.7604
  -1018967.179 8   -778090.61745  24874990.838    24874992.2114   24875007.2064
 -24257577.747 9 -18878528.40649  20909488.798    20909488.2024   20909498.4344
  -8975906.806 9  -6518884.39546  23711778.978    23711778.3684   23711796.3174
  -6761308.993 9  -5258017.08946  23742138.645    23742137.7704   23742152.8684
 -25787304.888 9 -20076085.44148  21017845.053    21017844.7894   21017855.1874
 00  4 20  0  1 12.0000000  0  8 26 30 17  3 23 21 22  6            -0.000000023
 -18541710.457 9 -14433947.03548  21748849.131    21748849.1454   21748860.0144
     13293.227 8     20282.32145  25484829.516    25484829.8094   25484857.8524
 -24729645.845 9 -19246542.05649  20770510.311    20770509.6064   20770519.5904
  -1020698.709 8   -779439.86145  24874661.360    24874662.6494   24874677.6934
 -24258033.049 9 -18878883.18749  20909402.155    20909401.5534   20909411.7894
  -8977210.993 9  -6519900.63546  23711530.808    23711530.2004   23711548.1394
  -6761082.855 9  -5257840.87646  23742181.663    23742180.8004   23742195.8884
 -25786241.487 9 -20075256.81748  21018047.411    21018047.1494   21018057.5484
 00  4 20  0  1 12.0000000  0  8 26 30 17  3 23 21 22  6            -0.000000023
 -18541396.380 9 -14433702.30048  21748908.904    21748908.9144   21748919.7854
     14854.105 8     21498.58345  25485126.569    25485126.8534   25485154.9144
 -24729730.931 9 -19246608.35649  20770494.111    20770493.4074   20770503.3864
  -1022430.243 8   -780789.10645  24874331.857    24874332.9984   24874348.1464
 -24258488.281 9 -18879237.91149  20909315.526    20909314.9224   20909325.1554
  -8978515.166 9  -6520916.87146  23711282.621    23711282.0124   23711299.9454
  -6760856.603 9  -5257664.57746  23742224.735    23742223.8704   23742238.9594
 -25785177.986 9 -20074428.11548  21018249.797    21018249.5394   21018259.9414
 00  4 20  0  1 13.0000000  0  8 26 30 17  3 23 21 22  6            -0.000000023
 -18541082.110 9 -14433457.41148  21748968.693    21748968.7024   21748979.5774
     16414.930 8     22714.80745  25485423.575    25485423.8684   25485451.9324
 -24729815.947 9 -19246674.60249  20770477.936    20770477.2384   20770487.2094
  -1024161.757 8   -782138.33545  24874002.384    24874003.4664   24874018.6424
 -24258943.382 9 -18879592.53449  20909228.928    20909228.3234   20909238.5644
  -8979819.263 9  -6521933.04646  23711034.467    23711033.8634   23711051.7894
  -6760630.185 9  -5257488.14746  23742267.796    23742266.9214   23742282.0294
 -25784114.343 9 -20073599.30248  21018452.218    21018451.9584   21018462.3634
 00  4 20  0  1 13.0000000  0  8 26 30 17  3 23 21 22  6            -0.000000023
 -18540767.692 9 -14433212.40948  21749028.527    21749028.5414   21749039.4034
     17975.703 8     23930.99045  25485720.597    25485720.8824   25485748.9674
 -24729900.929 9 -19246740.82149  20770461.754    20770461.0594   20770471.0444
  -1025893.266 8   -783487.55945  24873672.911    24873673.7844   24873689.1334
 -24259398.402 9 -18879947.09549  20909142.350    20909141.7424   20909151.9884
  -8981123.331 9  -6522949.19446  23710786.290    23710785.6864   23710803.6104
  -6760403.674 9  -5257311.64146  23742310.915    23742310.0514   23742325.1594
 -25783050.597 9 -20072770.41148  21018654.645    21018654.3884   21018664.7854
 00  4 20  0  1 14.0000000  0  8 26 30 17  3 23 21 22  6            -0.000000023
 -18540453.115 9 -14432967.28348  21749088.392    21749088.4004   21749099.2604
     19536.410 8     25147.12045  25486017.592    25486017.8774   25486045.9674
 -24729985.845 9 -19246806.99049  20770445.589    20770444.8804   20770454.8804
  -1027624.782 8   -784836.79145  24873343.428    24873344.5524   24873359.6174
 -24259853.311 9 -18880301.56749  20909055.789    20909055.1824   20909065.4194
  -8982427.354 9  -6523965.30946  23710538.155    23710537.5474   23710555.4654
  -6760176.995 9  -5257135.01046  23742354.051    23742353.1814   23742368.2984
 -25781986.731 9 -20071941.42448  21018857.064    21018856.8084   21018867.2034
 00  4 20  0  1 14.0000000  0  8 26 30 17  3 23 21 22  6            -0.000000023
 -18540138.394 9 -14432722.04548  21749148.283    21749148.2984   21749159.1514
     21097.061 8     26363.20745  25486314.564    25486314.8514   25486342.9464
 -24730070.737 9 -19246873.13749  20770429.461    20770428.7514   20770438.7474
  -1029356.284 8   -786186.01345  24873013.932    24873015.0804   24873030.0894
 -24260308.142 9 -18880655.97949  20908969.236    20908968.6324   20908978.8724
  -8983731.342 9  -6524981.39846  23710290.009    23710289.3994   23710307.3164
  -6759950.222 9  -5256958.30346  23742397.199    23742396.3314   23742411.4474
 -25780922.762 9 -20071112.35948  21019059.533    21019059.2784   21019069.6794
 00  4 20  0  1 15.0000000  0  8 26 30 17  3 23 21 22  6            -0.000000023
 -18539823.504 9 -14432476.67248  21749208.198    21749208.2074   21749219.0754
     22657.642 8     27579.24145  25486611.524    25486611.8054   25486639.9184
 -24730155.582 9 -19246939.24949  20770413.291    20770412.5834   20770422.5824
  -1031087.756 8   -787535.20845  24872684.462    24872685.4884   24872700.6064
 -24260762.872 9 -18881010.31249  20908882.685    20908882.0824   20908892.3154
  -8985035.285 9  -6525997.45146  23710041.860    23710041.2514   23710059.1664
  -6759723.322 9  -5256781.49746  23742440.366    23742439.5014   23742454.6284
 -25779858.683 9 -20070283.20648  21019262.019    21019261.7584   21019272.1664
 00  4 20  0  1 15.0000000  0  8 26 30 17  3 23 21 22  6            -0.000000023
 -18539508.395 9 -14432231.13548  21749268.160    21749268.1754   21749279.0354
     24218.218 8     28795.27045  25486908.498    25486908.7804   25486936.8904
 -24730240.315 9 -19247005.27649  20770397.190    20770396.4944   20770406.4734
  -1032819.183 8   -788884.37045  24872354.966    24872355.8664   24872371.0924
 -24261217.450 9 -18881364.52849  20908796.186    20908795.5824   20908805.8194
  -8986339.131 9  -6527013.42946  23709793.734    23709793.1234   23709811.0444
  -6759496.227 9  -5256604.53946  23742483.565    23742482.7114   23742497.8314
 -25778794.430 9 -20069453.91848  21019464.561    21019464.2974   21019474.7084
 00  4 20  0  1 16.0000000  0  8 26 30 17  3 23 21 22  6            -0.000000022
 -18539193.109 9 -14431985.45748  21749328.154    21749328.1734   21749339.0224
     25778.729 8     30011.24645  25487205.480    25487205.7644   25487233.8824
 -24730324.982 9 -19247071.24949  20770381.063    20770380.3554   20770390.3474
  -1034550.574 8   -790233.50445  24872025.524    24872026.1854   24872041.6334
 -24261671.909 9 -18881718.65149  20908709.709    20908709.1024   20908719.3454
  -8987642.917 9  -6528029.36046  23709545.650    23709545.0354   23709562.9564
  -6759268.977 9  -5256427.46346  23742526.809    23742525.9614   23742541.0784
 -25777730.043 9 -20068624.52748  21019667.098    21019666.8374   21019677.2414
 00  4 20  0  1 16.0000000  0  8 26 30 17  3 23 21 22  6            -0.000000022
 -18538877.656 9 -14431739.65048  21749388.198    21749388.2124   21749399.0644
     27339.203 8     31227.19545  25487502.418    25487502.6994   25487530.8304
 -24730409.604 9 -19247137.18849  20770364.976    20770364.2664   20770374.2584
  -1036281.963 8   -791582.63745  24871696.037    24871696.7734   24871712.1364
 -24262126.262 9 -18882072.69249  20908623.249    20908622.6424   20908632.8794
  -8988946.651 9  -6529045.25146  23709297.533    23709296.9164   23709314.8374
  -6759041.616 9  -5256250.29846  23742570.085    23742569.2414   23742584.3654
 -25776665.540 9 -20067795.04648  21019869.673    21019869.4174   21019879.8224
 00  4 20  0  1 17.0000000  0  8 26 30 17  3 23 21 22  6            -0.000000022
 -18538562.023 9 -14431493.70248  21749448.263    21749448.2804   21749459.1394
     28899.646 8     32443.12245  25487799.354    25487799.6334   25487827.7754
 -24730494.142 9 -19247203.06349  20770348.863    20770348.1574   20770358.1394
  -1038013.333 8   -792931.75245  24871366.591    24871367.2414   24871382.6934
 -24262580.492 9 -18882426.63749  20908536.801    20908536.2024   20908546.4344
  -8990250.317 9  -6530061.09046  23709049.465    23709048.8474   23709066.7734
  -6758814.086 9  -5256073.00146  23742613.383    23742612.5414   23742627.6694
 -25775600.894 9 -20066965.45348  21020072.271    21020072.0174   21020082.4224
 00  4 20  0  1 17.0000000  0  8 26 30 17  3 23 21 22  6            -0.000000022
 -18538246.256 9 -14431247.64948  21749508.335    21749508.3494   21749519.2034
     30459.984 8     33658.96345  25488096.282    25488096.5674   25488124.7134
 -24730578.665 9 -19247268.92349  20770332.794    20770332.0884   20770342.0754
  -1039744.707 8   -794280.87045  24871037.109    24871037.8894   24871053.1964
 -24263034.657 9 -18882780.53049  20908450.384    20908449.7824   20908460.0234
  -8991553.967 9  -6531076.91346  23708801.362    23708800.7394   23708818.6654
  -6758586.465 9  -5255895.63346  23742656.693    23742655.8514   23742670.9884
 -25774536.165 9 -20066135.79548  21020274.866    21020274.6074   21020285.0144
 00  4 20  0  1 18.0000000  0  8 26 30 17  3 23 21 22  6            -0.000000022
 -18537930.338 9 -14431001.47948  21749568.458    21749568.4674   21749579.3204
     32020.201 8     34874.71345  25488393.195    25488393.4814   25488421.6284
 -24730663.155 9 -19247334.76049  20770316.704    20770316.0094   20770325.9814
  -1041476.070 8   -795629.98145  24870707.640    24870708.3874   24870723.7184
 -24263488.730 9 -18883134.35049  20908363.980    20908363.3814   20908373.6134
  -8992857.588 9  -6532092.71546  23708553.301    23708552.6814   23708570.6014
  -6758358.726 9  -5255718.17246  23742700.025    23742699.1914   23742714.3254
 -25773471.332 9 -20065306.05548  21020477.515    21020477.2564   21020487.6664
 00  4 20  0  1 18.0000000  0  8 26 30 17  3 23 21 22  6            -0.000000022
 -18537614.205 9 -14430755.14148  21749628.636    21749628.6464   21749639.5004
     33580.514 8     36090.53545  25488690.113    25488690.4054   25488718.5544
 -24730747.516 9 -19247400.49649  20770300.674    20770299.9714   20770309.9494
  -1043207.365 8   -796979.03745  24870378.206    24870378.7654   24870394.2684
 -24263942.635 9 -18883488.04249  20908277.601    20908277.0014   20908287.2314
  -8994161.096 9  -6533108.43146  23708305.242    23708304.6234   23708322.5304
  -6758130.786 9  -5255540.55646  23742743.403    23742742.5614   23742757.6924
 -25772406.320 9 -20064476.17648  21020680.188    21020679.9364   21020690.3374
 00  4 20  0  1 19.0000000  0  8 26 30 17  3 23 21 22  6            -0.000000022
 -18537297.901 9 -14430508.67248  21749688.798    21749688.8144   21749699.6664
     35140.687 8     37306.25345  25488987.022    25488987.3204   25489015.4684
 -24730831.830 9 -19247466.19649  20770284.601    20770283.8924   20770293.8784
  -1044938.652 8   -798328.08945  24870048.747    24870049.6534   24870064.7994
 -24264396.442 9 -18883841.65749  20908191.236    20908190.6314   20908200.8664
  -8995464.546 9  -6534124.10146  23708057.209    23708056.5944   23708074.4964
  -6757902.712 9  -5255362.84146  23742786.783    23742785.9414   23742801.0864
 -25771341.185 9 -20063646.20348  21020882.875    21020882.6164   21020893.0294
 00  4 20  0  1 19.0000000  0  8 26 30 17  3 23 21 22  6            -0.000000022
 -18536981.431 9 -14430262.07248  21749749.043    21749749.0624   21749759.9134
     36700.829 8     38521.94245  25489283.892    25489284.1954   25489312.3524
 -24730916.100 9 -19247531.86049  20770268.571    20770267.8634   20770277.8404
  -1046669.900 8   -799677.11045  24869719.309    24869720.1814   24869735.3424
 -24264850.143 9 -18884195.19049  20908104.901    20908104.3014   20908114.5334
  -8996767.957 9  -6535139.74046  23707809.184    23707808.5664   23707826.4714
  -6757674.518 9  -5255185.03246  23742830.228    23742829.3914   23742844.5344
 -25770275.940 9 -20062816.14448  21021085.572    21021085.3154   21021095.7234
 00  4 20  0  1 20.0000000  0  8 26 30 17  3 23 21 22  6            -0.000000022
 -18536664.751 9 -14430015.30848  21749809.308    21749809.3104   21749820.1674
     38260.981 8     39737.63945  25489580.787    25489581.0894   25489609.2504
 -24731000.252 9 -19247597.43549  20770252.573    20770251.8744   20770261.8444
  -1048401.102 8   -801026.09845  24869389.868    24869390.8594   24869405.8874
 -24265303.689 9 -18884548.60249  20908018.604    20908018.0004   20908028.2354
  -8998071.266 9  -6536155.30246  23707561.158    23707560.5484   23707578.4464
  -6757446.132 9  -5255007.06846  23742873.689    23742872.8514   23742887.9954
 -25769210.519 9 -20061985.94948  21021288.322    21021288.0554   21021298.4714
 00  4 20  0  1 20.0000000  0  8 26 30 17  3 23 21 22  6            -0.000000022
 -18536347.944 9 -14429768.44548  21749869.593    21749869.6084   21749880.4564
     39821.026 8     40953.25545  25489877.676    25489877.9844   25489906.1444
 -24731084.391 9 -19247662.99749  20770236.556    20770235.8454   20770245.8244
  -1050132.319 8   -802375.09545  24869060.448    24869061.3574   24869076.4434
 -24265757.172 9 -18884901.96449  20907932.307    20907931.7004   20907941.9434
  -8999374.565 9  -6537170.84946  23707313.138    23707312.5304   23707330.4334
  -6757217.654 9  -5254829.03146  23742917.151    23742916.3114   23742931.4624
 -25768145.021 9 -20061155.69048  21021491.074    21021490.8154   21021501.2244
 00  4 20  0  1 21.0000000  0  8 26 30 17  3 23 21 22  6            -0.000000022
 -18536031.043 9 -14429521.51048  21749929.895    21749929.9074   21749940.7624
     41380.885 8     42168.72445  25490174.496    25490174.7994   25490202.9664
 -24731168.558 9 -19247728.58049  20770220.530    20770219.8164   20770229.8064
  -1051863.599 8   -803724.14545  24868731.004    24868731.9154   24868746.9744
 -24266210.623 9 -18885255.30049  20907846.013    20907845.4104   20907855.6464
  -9000677.890 9  -6538186.42046  23707065.129    23707064.5124   23707082.4194
  -6756989.121 9  -5254650.95446  23742960.629    23742959.8014   23742974.9374
 -25767079.472 9 -20060325.39348  21021693.856    21021693.5844   21021704.0114
 00  4 20  0  1 21.0000000  0  8 26 30 17  3 23 21 22  6            -0.000000022
 -18535713.932 9 -14429274.40748  21749990.231    21749990.2354   21750001.1064
     42940.823 8     43384.25545  25490471.356    25490471.6634   25490499.8274
 -24731252.604 9 -19247794.07049  20770204.552    20770203.8474   20770213.8214
  -1053594.833 8   -805073.15645  24868401.548    24868402.6234   24868417.4804
 -24266663.914 9 -18885608.51249  20907759.750    20907759.1504   20907769.3814
  -9001981.115 9  -6539201.91746  23706817.126    23706816.5134   23706834.4154
  -6756760.388 9  -5254472.72146  23743004.177    23743003.3514   23743018.4864
 -25766013.749 9 -20059494.96248  21021896.643    21021896.3844   21021906.7964
 00  4 20  0  1 22.0000000  0  8 26 30 17  3 23 21 22  6            -0.000000022
 -18535396.649 9 -14429027.17348  21750050.607    21750050.6234   21750061.4814
     44500.687 8     44599.72745  25490768.189    25490768.4984   25490796.6694
 -24731336.591 9 -19247859.51449  20770188.555    20770187.8484   20770197.8224
  -1055326.041 8   -806422.14945  24868072.125    24868073.1514   24868088.0294
 -24267117.097 9 -18885961.64149  20907673.506    20907672.9094   20907683.1444
  -9003284.270 9  -6540217.36046  23706569.122    23706568.5054   23706586.4114
  -6756531.524 9  -5254294.38546  23743047.730    23743046.8914   23743062.0404
 -25764947.904 9 -20058664.43548  21022099.463    21022099.2034   21022109.6104
 00  4 20  0  1 22.0000000  0  8 26 30 17  3 23 21 22  6            -0.000000022
 -18535079.102 9 -14428779.73548  21750111.033    21750111.0324   21750121.8934
     46060.595 8     45815.23745  25491065.038    25491065.3424   25491093.5204
 -24731420.427 9 -19247924.83949  20770172.602    20770171.8894   20770181.8764
  -1057057.127 8   -807771.04445  24867742.718    24867744.1594   24867758.5894
 -24267570.071 9 -18886314.60649  20907587.300    20907586.6994   20907596.9384
  -9004587.283 9  -6541232.68946  23706321.186    23706320.5664   23706338.4744
  -6756302.425 9  -5254115.86846  23743091.316    23743090.4904   23743105.6314
 -25763881.829 9 -20057833.72948  21022302.351    21022302.0834   21022312.5004
 00  4 20  0  1 23.0000000  0  8 26 30 17  3 23 21 22  6            -0.000000022
 -18534761.486 9 -14428532.24148  21750171.492    21750171.4904   21750182.3484
     47620.329 8     47030.61145  25491361.854    25491362.1574   25491390.3384
 -24731504.295 9 -19247990.19249  20770156.640    20770155.9304   20770165.9064
  -1058788.316 8   -809120.01845  24867413.294    24867414.8074   24867429.1454
 -24268023.043 9 -18886667.57149  20907501.118    20907500.5194   20907510.7514
  -9005890.353 9  -6542248.06046  23706073.213    23706072.5984   23706090.5024
  -6756073.294 9  -5253937.32546  23743134.930    23743134.0904   23743149.2484
 -25762815.745 9 -20057003.01648  21022505.215    21022504.9534   21022515.3624
 00  4 20  0  1 23.0000000  0  8 26 30 17  3 23 21 22  6            -0.000000022
 -18534443.643 9 -14428284.57148  21750231.980    21750231.9884   21750242.8514
     49180.058 8     48245.98045  25491658.646    25491658.9324   25491687.1344
 -24731588.048 9 -19248055.45449  20770140.717    20770140.0214   20770149.9864
  -1060519.425 8   -810468.93145  24867083.863    24867085.1854   24867099.6974
 -24268475.845 9 -18887020.40249  20907414.956    20907414.3584   20907424.5894
  -9007193.293 9  -6543263.33246  23705825.262    23705824.6504   23705842.5504
  -6755843.956 9  -5253758.62246  23743178.566    23743177.7404   23743192.8864
 -25761749.475 9 -20056172.15748  21022708.111    21022707.8424   21022718.2654
 00  4 20  0  1 24.0000000  0  8 26 30 17  3 23 21 22  6            -0.000000022
 -18534125.663 9 -14428036.79548  21750292.467    21750292.4764   21750303.3314
     50739.717 8     49461.29845  25491955.448    25491955.7274   25491983.9324
 -24731671.786 9 -19248120.70349  20770124.763    20770124.0524   20770134.0314
  -1062250.539 8   -811817.84845  24866754.467    24866755.7134   24866770.2764
 -24268928.574 9 -18887373.17749  20907328.776    20907328.1784   20907338.4084
  -9008496.231 9  -6544278.60046  23705577.307    23705576.6924   23705594.5994
  -6755614.537 9  -5253579.85446  23743222.205    23743221.3804   23743236.5194
 -25760683.113 9 -20055341.22548  21022911.040    21022910.7824   21022921.1894
 00  4 20  0  1 24.0000000  0  8 26 30 17  3 23 21 22  6            -0.000000022
 -18533807.530 9 -14427788.89448  21750353.005    21750353.0144   21750363.8724
     52299.284 8     50676.54045  25492252.230    25492252.5024   25492280.7264
 -24731755.462 9 -19248185.90449  20770108.845    20770108.1434   20770118.1154
  -1063981.660 8   -813166.77045  24866425.044    24866426.4514   24866440.8424
 -24269381.218 9 -18887725.88549  20907242.646    20907242.0574   20907252.2794
  -9009799.136 9  -6545293.84346  23705329.380    23705328.7634   23705346.6664
  -6755384.981 9  -5253400.98246  23743265.905    23743265.0804   23743280.2274
 -25759616.656 9 -20054510.22048  21023113.977    21023113.7214   21023124.1234
 00  4 20  0  1 25.0000000  0  8 26 30 17  3 23 21 22  6            -0.000000022
 -18533489.235 9 -14427540.87248  21750413.579    21750413.5824   21750424.4424
     53858.790 8     51891.73445  25492548.988    25492549.2464   25492577.4854
 -24731839.085 9 -19248251.06349  20770092.933    20770092.2344   20770102.2064
  -1065712.763 8   -814515.67945  24866095.642    24866097.0394   24866111.4224
 -24269833.752 9 -18888078.50649  20907156.525    20907155.9274   20907166.1594
  -9011101.977 9  -6546309.04046  23705081.459    23705080.8354   23705098.7504
  -6755155.315 9  -5253222.02246  23743309.604    23743308.7794   23743323.9194
 -25758550.069 9 -20053679.11348  21023316.954    21023316.6904   21023327.1034
 00  4 20  0  1 25.0000000  0  8 26 30 17  3 23 21 22  6            -0.000000022
 -18533170.742 9 -14427292.69348  21750474.208    21750474.2204   21750485.0684
     55418.330 8     53106.95645  25492845.770    25492846.0204   25492874.2734
 -24731922.624 9 -19248316.15949  20770077.042    20770076.3454   20770086.3134
  -1067443.828 8   -815864.55745  24865766.216    24865767.6174   24865781.9754
 -24270286.152 9 -18888431.02649  20907070.462    20907069.8674   20907080.0954
  -9012404.741 9  -6547324.17546  23704833.522    23704832.8964   23704850.8134
  -6754925.471 9  -5253042.92346  23743353.331    23743352.4994   23743367.6564
 -25757483.326 9 -20052847.88948  21023519.936    21023519.6804   21023530.0834
 00  4 20  0  1 26.0000000  0  8 26 30 17  3 23 21 22  6            -0.000000022
 -18532852.084 9 -14427044.39348  21750534.850    21750534.8584   21750545.7134
     56977.745 8     54322.08145  25493142.529    25493142.7754   25493171.0394
 -24732006.093 9 -19248381.20149  20770061.162    20770060.4664   20770070.4324
  -1069174.879 8   -817213.42645  24865436.833    24865438.3654   24865452.5804
 -24270738.442 9 -18888783.46149  20906984.369    20906983.7664   20906994.0004
  -9013707.451 9  -6548339.26646  23704585.623    23704584.9984   23704602.9074
  -6754695.489 9  -5252863.71546  23743397.105    23743396.2694   23743411.4324
 -25756416.468 9 -20052016.57348  21023722.948    21023722.6904   21023733.1024
 00  4 20  0  1 26.0000000  0  8 26 30 17  3 23 21 22  6            -0.000000022
 -18532533.274 9 -14426795.96848  21750595.505    21750595.5164   21750606.3664
     58537.087 8     55537.15045  25493439.275    25493439.5104   25493467.7964
 -24732089.530 9 -19248446.21649  20770045.281    20770044.5774   20770054.5534
  -1070905.902 8   -818562.27245  24865107.417    24865108.9934   24865123.1484
 -24271190.650 9 -18889135.83049  20906898.322    20906897.7264   20906907.9624
  -9015010.132 9  -6549354.33446  23704337.729    23704337.0994   23704355.0214
  -6754465.401 9  -5252684.42646  23743440.880    23743440.0394   23743455.2014
 -25755349.505 9 -20051185.17648  21023925.992    21023925.7294   21023936.1414
 00  4 20  0  1 27.0000000  0  8 26 30 17  3 23 21 22  6            -0.000000022
 -18532214.277 9 -14426547.39848  21750656.223    21750656.2244   21750667.0804
     60096.433 8     56752.22145  25493736.020    25493736.2444   25493764.5474
 -24732172.896 9 -19248511.17649  20770029.416    20770028.7184   20770038.6814
  -1072636.908 8   -819911.10545  24864778.026    24864779.5814   24864793.7464
 -24271642.731 9 -18889488.09849  20906812.284    20906811.6864   20906821.9174
  -9016312.731 9  -6550369.34246  23704089.862    23704089.2314   23704107.1494
  -6754235.159 9  -5252505.01546  23743484.702    23743483.8684   23743499.0354
 -25754282.403 9 -20050353.66648  21024129.039    21024128.7784   21024139.1834
 00  4 20  0  1 27.0000000  0  8 26 30 17  3 23 21 22  6            -0.000000022
 -18531895.171 9 -14426298.74548  21750716.941    21750716.9324   21750727.8064
     61655.632 8     57967.17545  25494032.722    25494032.9394   25494061.2554
 -24732256.224 9 -19248576.10649  20770013.560    20770012.8494   20770022.8274
  -1074367.934 8   -821259.95445  24864448.621    24864450.1704   24864464.3214
 -24272094.742 9 -18889840.31249  20906726.272    20906725.6754   20906735.9074
  -9017615.315 9  -6551384.33846  23703841.975    23703841.3434   23703859.2654
  -6754004.816 9  -5252325.52746  23743528.520    23743527.6784   23743542.8524
 -25753215.223 9 -20049522.09848  21024332.138    21024331.8684   21024342.2864
 00  4 20  0  1 28.0000000  0  8 26 30 17  3 23 21 22  6            -0.000000022
 -18531575.836 9 -14426049.91048  21750777.692    21750777.6804   21750788.5414
     63214.866 8     59182.16045  25494329.440    25494329.6434   25494357.9804
 -24732339.449 9 -19248640.95749  20769997.737    20769997.0304   20770007.0044
  -1076098.894 8   -822608.75145  24864119.239    24864120.7384   24864134.9244
 -24272546.604 9 -18890192.41149  20906640.296    20906639.6954   20906649.9364
  -9018917.795 9  -6552399.25046  23703594.120    23703593.4844   23703611.4064
  -6753774.304 9  -5252145.91146  23743572.403    23743571.5584   23743586.7424
 -25752147.867 9 -20048690.39448  21024535.247    21024534.9874   21024545.3974
 00  4 20  0  1 28.0000000  0  8 26 30 17  3 23 21 22  6            -0.000000022
 -18531256.349 9 -14425800.95948  21750838.504    21750838.5084   21750849.3514
     64773.978 8     60397.04845  25494626.140    25494626.3384   25494654.6894
 -24732422.655 9 -19248705.79349  20769981.892    20769981.1814   20769991.1554
  -1077829.863 8   -823957.55945  24863789.861    24863791.3164   24863805.5284
 -24272998.387 9 -18890544.45149  20906554.328    20906553.7344   20906563.9674
  -9020220.249 9  -6553414.14546  23703346.257    23703345.6264   23703363.5454
  -6753543.685 9  -5251966.20746  23743616.272    23743615.4374   23743630.6174
 -25751080.419 9 -20047858.61748  21024738.378    21024738.1174   21024748.5274
 00  4 20  0  1 29.0000000  0  8 26 30 17  3 23 21 22  6            -0.000000022
 -18530936.639 9 -14425551.83248  21750899.341    21750899.3464   21750910.2074
     66333.148 8     61611.98045  25494922.844    25494923.0334   25494951.3954
 -24732505.721 9 -19248770.52149  20769966.098    20769965.4024   20769975.3614
  -1079560.758 8   -825306.30645  24863460.478    24863461.8844   24863476.1264
 -24273449.993 9 -18890896.35149  20906468.382    20906467.7934   20906478.0224
  -9021522.584 9  -6554428.94746  23703098.440    23703097.8074   23703115.7304
  -6753312.861 9  -5251786.34446  23743660.193    23743659.3574   23743674.5364
 -25750012.786 9 -20047026.69848  21024941.522    21024941.2664   21024951.6704
 00  4 20  0  1 29.0000000  0  8 26 30 17  3 23 21 22  6            -0.000000022
 -18530616.830 9 -14425302.62848  21750960.198    21750960.1934   21750971.0484
     67892.131 8     62826.76745  25495219.511    25495219.6874   25495248.0694
 -24732588.784 9 -19248835.24349  20769950.281    20769949.5834   20769959.5514
  -1081291.692 8   -826655.08345  24863131.108    24863132.4024   24863146.7434
 -24273901.553 9 -18891248.21449  20906382.449    20906381.8534   20906392.0844
  -9022824.932 9  -6555443.75646  23702850.615    23702849.9894   23702867.8974
  -6753081.970 9  -5251606.42746  23743704.153    23743703.3164   23743718.4984
 -25748945.087 9 -20046194.72548  21025144.700    21025144.4454   21025154.8534
 00  4 20  0  1 30.0000000  0  8 26 30 17  3 23 21 22  6            -0.000000022
 -18530296.802 9 -14425053.25448  21751021.095    21751021.0914   21751031.9444
     69451.148 8     64041.58445  25495516.185    25495516.3624   25495544.7494
 -24732671.751 9 -19248899.89449  20769934.495    20769933.7944   20769943.7674
  -1083022.545 8   -828003.79745  24862801.749    24862802.9904   24862817.3734
 -24274352.959 9 -18891599.95749  20906296.566    20906295.9734   20906306.2024
  -9024127.172 9  -6556458.48546  23702602.800    23702602.1704   23702620.0864
  -6752850.901 9  -5251426.37646  23743748.111    23743747.2864   23743762.4634
 -25747877.223 9 -20045362.62248  21025347.917    21025347.6554   21025358.0694
 00  4 20  0  1 30.0000000  0  8 26 30 17  3 23 21 22  6            -0.000000022
 -18529976.596 9 -14424803.74448  21751082.017    21751082.0194   21751092.8644
     71010.164 8     65256.39745  25495812.844    25495813.0074   25495841.4154
 -24732754.646 9 -19248964.48649  20769918.729    20769918.0354   20769927.9934
  -1084753.417 8   -829352.52545  24862472.385    24862473.5584   24862488.0004
 -24274804.264 9 -18891951.62249  20906210.684    20906210.0924   20906220.3224
  -9025429.364 9  -6557473.17546  23702354.997    23702354.3724   23702372.2804
  -6752619.698 9  -5251246.21746  23743792.110    23743791.2854   23743806.4624
 -25746809.242 9 -20044530.43348  21025551.155    21025550.8944   21025561.3114
 00  4 20  0  1 31.0000000  0  8 26 30 17  3 23 21 22  6            -0.000000022
 -18529656.253 9 -14424554.12748  21751142.983    21751142.9874   21751153.8264
     72569.012 8     66471.07745  25496109.497    25496109.6514   25496138.0654
 -24732837.520 9 -19249029.06349  20769902.959    20769902.2564   20769912.2234
  -1086484.266 8   -830701.23745  24862143.015    24862144.1164   24862158.6144
 -24275255.488 9 -18892303.22549  20906124.817    20906124.2214   20906134.4554
  -9026731.528 9  -6558487.84346  23702107.193    23702106.5744   23702124.4774
  -6752388.394 9  -5251065.98046  23743836.134    23743835.3054   23743850.4904
 -25745741.174 9 -20043698.17248  21025754.412    21025754.1534   21025764.5614
 00  4 20  0  1 31.0000000  0  8 26 30 17  3 23 21 22  6            -0.000000022
 -18529335.704 9 -14424304.34948  21751203.999    21751203.9854   21751214.8374
     74127.814 8     67685.72445  25496406.132    25496406.2764   25496434.7044
 -24732920.306 9 -19249093.57149  20769887.200    20769886.4974   20769896.4664
  -1088215.091 8   -832049.92745  24861813.659    24861814.7144   24861829.2504
 -24275706.573 9 -18892654.71949  20906038.962    20906038.3714   20906048.5944
  -9028033.603 9  -6559502.44046  23701859.403    23701858.7764   23701876.6884
  -6752156.929 9  -5250885.61646  23743880.181    23743879.3544   23743894.5454
 -25744672.946 9 -20042865.79148  21025957.663    21025957.4024   21025967.8164
 00  4 20  0  1 32.0000000  0  8 26 30 17  3 23 21 22  6            -0.000000022
 -18529015.008 9 -14424054.45248  21751265.016    21751265.0034   21751275.8624
     75686.582 8     68900.34345  25496702.747    25496702.9004   25496731.3194
 -24733003.041 9 -19249158.03849  20769871.441    20769870.7484   20769880.7114
  -1089945.914 8   -833398.61845  24861484.292    24861485.3124   24861499.8704
 -24276157.578 9 -18893006.15049  20905953.134    20905952.5404   20905962.7674
  -9029335.660 9  -6560517.01846  23701611.638    23701611.0074   23701628.9214
  -6751925.353 9  -5250705.16846  23743924.252    23743923.4144   23743938.6134
 -25743604.625 9 -20042033.33248  21026160.955    21026160.7024   21026171.1114
 00  4 20  0  1 32.0000000  0  8 26 30 17  3 23 21 22  6            -0.000000022
 -18528694.111 9 -14423804.40648  21751326.076    21751326.0614   21751336.9304
     77245.372 8     70114.97845  25496999.383    25496999.5244   25497027.9594
 -24733085.681 9 -19249222.43249  20769855.714    20769855.0194   20769864.9774
  -1091676.663 8   -834747.25145  24861154.960    24861155.9604   24861170.5324
 -24276608.441 9 -18893357.47049  20905867.341    20905866.7604   20905876.9754
  -9030637.620 9  -6561531.52546  23701363.880    23701363.2494   23701381.1654
  -6751693.607 9  -5250524.58846  23743968.351    23743967.5134   23743982.7164
 -25742536.148 9 -20041200.75348  21026364.304    21026364.0514   21026374.4554
 00  4 20  0  1 33.0000000  0  8 26 30 17  3 23 21 22  6            -0.000000023
 -18528373.050 9 -14423554.22748  21751387.191    21751387.1784   21751398.0394
     78804.065 8     71329.53945  25497295.997    25497296.1394   25497324.5684
 -24733168.278 9 -19249286.79549  20769840.012    20769839.3094   20769849.2794
  -1093407.423 8   -836095.89545  24860825.619    24860826.5794   24860841.1724
 -24277059.201 9 -18893708.70749  20905781.568    20905780.9794   20905791.1984
  -9031939.534 9  -6562545.99846  23701116.116    23701115.4814   23701133.3994
  -6751461.741 9  -5250343.91546  23744012.477    23744011.6534   23744026.8414
 -25741467.560 9 -20040368.08848  21026567.640    21026567.3904   21026577.7974
 00  4 20  0  1 33.0000000  0  8 26 30 17  3 23 21 22  6            -0.000000023
 -18528051.813 9 -14423303.91548  21751448.307    21751448.2864   21751459.1604
     80362.705 8     72544.05845  25497592.603    25497592.7444   25497621.1864
 -24733250.797 9 -19249351.09449  20769824.293    20769823.5804   20769833.5544
  -1095138.143 8   -837444.50745  24860496.276    24860497.1774   24860511.8234
 -24277509.861 9 -18894059.87149  20905695.819    20905695.2384   20905705.4544
  -9033241.386 9  -6563560.42246  23700868.388    23700867.7424   23700885.6734
  -6751229.724 9  -5250163.12246  23744056.604    23744055.7724   23744070.9724
 -25740398.846 9 -20039535.32348  21026770.997    21026770.7394   21026781.1544
 00  4 20  0  1 34.0000000  0  8 26 30 17  3 23 21 22  6            -0.000000023
 -18527730.437 9 -14423053.49048  21751509.467    21751509.4534   21751520.3084
     81921.219 8     73758.48145  25497889.182    25497889.3184   25497917.7624
 -24733333.285 9 -19249415.37049  20769808.591    20769807.8814   20769817.8524
  -1096868.908 8   -838793.15445  24860166.913    24860167.7554   24860182.4534
 -24277960.442 9 -18894410.97149  20905610.079    20905609.4984   20905619.7134
  -9034543.216 9  -6564574.82746  23700620.658    23700620.0134   23700637.9434
  -6750997.599 9  -5249982.24546  23744100.778    23744099.9514   23744115.1474
 -25739330.038 9 -20038702.48748  21026974.414    21026974.1594   21026984.5694
 00  4 20  0  1 34.0000000  0  8 26 30 17  3 23 21 22  6            -0.000000023
 -18527408.878 9 -14422802.92448  21751570.655    21751570.6514   21751581.4974
     83479.746 8     74972.91445  25498185.776    25498185.9134   25498214.3594
 -24733415.707 9 -19249479.59549  20769792.913    20769792.2024   20769802.1754
  -1098599.601 8   -840141.74245  24859837.592    24859838.3934   24859853.1324
 -24278410.902 9 -18894761.97949  20905524.343    20905523.7574   20905533.9734
  -9035844.973 9  -6565589.17646  23700372.939    23700372.2854   23700390.2294
  -6750765.332 9  -5249801.25946  23744144.984    23744144.1614   23744159.3494
 -25738261.088 9 -20037869.54348  21027177.823    21027177.5684   21027187.9794
 00  4 20  0  1 35.0000000  0  8 26 30 17  3 23 21 22  6            -0.000000023
 -18527087.098 9 -14422552.18748  21751631.895    21751631.8794   21751642.7414
     85038.222 8     76187.30545  25498482.320    25498482.4574   25498510.9094
 -24733498.011 9 -19249543.72849  20769777.256    20769776.5434   20769786.5174
  -1100330.255 8   -841490.29945  24859508.254    24859508.9914   24859523.7864
 -24278861.216 9 -18895112.87249  20905438.660    20905438.0664   20905448.2924
  -9037146.640 9  -6566603.45846  23700125.237    23700124.5864   23700142.5194
  -6750532.878 9  -5249620.12546  23744189.216    23744188.3904   23744203.5734
 -25737191.988 9 -20037036.47948  21027381.270    21027381.0174   21027391.4224
 00  4 20  0  1 35.0000000  0  8 26 30 17  3 23 21 22  6            -0.000000023
 -18526765.216 9 -14422301.37148  21751693.133    21751693.1164   21751703.9704
     86596.576 8     77401.60245  25498778.877    25498779.0224   25498807.4704
 -24733580.315 9 -19249607.86149  20769761.585    20769760.8744   20769770.8514
  -1102060.922 8   -842838.86845  24859178.932    24859179.6194   24859194.4744
 -24279311.484 9 -18895463.72949  20905352.969    20905352.3764   20905362.6014
  -9038448.322 9  -6567617.75246  23699877.519    23699876.8684   23699894.8054
  -6750300.357 9  -5249438.94046  23744233.476    23744232.6504   23744247.8314
 -25736122.817 9 -20036203.35948  21027584.701    21027584.4464   21027594.8544
 00  4 20  0  1 36.0000000  0  8 26 30 17  3 23 21 22  6            -0.000000023
 -18526443.102 9 -14422050.37448  21751754.430    21751754.4244   21751765.2694
     88154.961 8     78615.92445  25499075.451    25499075.5964   25499104.0524
 -24733662.508 9 -19249671.90749  20769745.961    20769745.2554   20769755.2214
  -1103791.527 8   -844187.38845  24858849.605    24858850.2374   24858865.1424
 -24279761.582 9 -18895814.45449  20905267.331    20905266.7354   20905276.9584
  -9039749.875 9  -6568631.94546  23699629.834    23699629.1794   23699647.1204
  -6750067.633 9  -5249257.59746  23744277.747    23744276.9094   23744292.1004
 -25735053.466 9 -20035370.10048  21027788.209    21027787.9454   21027798.3624
 00  4 20  0  1 36.0000000  0  8 26 30 17  3 23 21 22  6            -0.000000023
 -18526120.880 9 -14421799.28948  21751815.742    21751815.7314   21751826.5814
     89713.192 8     79830.12545  25499371.959    25499372.1014   25499400.5634
 -24733744.690 9 -19249735.94449  20769730.315    20769729.6054   20769739.5704
  -1105522.181 8   -845535.94745  24858520.284    24858520.8554   24858535.8224
 -24280211.641 9 -18896165.14849  20905181.681    20905181.0844   20905191.3034
  -9041051.447 9  -6569646.14746  23699382.149    23699381.4904   23699399.4314
  -6749834.839 9  -5249076.19846  23744322.057    23744321.2284   23744336.4014
 -25733984.059 9 -20034536.79748  21027991.718    21027991.4644   21028001.8774
 00  4 20  0  1 37.0000000  0  8 26 30 17  3 23 21 22  6            -0.000000023
 -18525798.530 9 -14421548.10548  21751877.086    21751877.0694   21751887.9264
     91271.330 8     81044.25345  25499668.483    25499668.6264   25499697.0924
 -24733826.861 9 -19249799.97249  20769714.676    20769713.9664   20769723.9484
  -1107252.832 8   -846884.50545  24858190.949    24858191.4534   24858206.4894
 -24280661.637 9 -18896515.79349  20905096.047    20905095.4544   20905105.6764
  -9042353.010 9  -6570660.34346  23699134.478    23699133.8224   23699151.7644
  -6749601.959 9  -5248894.73546  23744366.382    23744365.5584   23744380.7234
 -25732914.573 9 -20033703.43348  21028195.237    21028194.9844   21028205.3904
 00  4 20  0  1 37.0000000  0  8 26 30 17  3 23 21 22  6            -0.000000023
 -18525475.988 9 -14421296.77348  21751938.477    21751938.4564   21751949.3134
     92829.398 8     82258.32745  25499964.966    25499965.1114   25499993.5814
 -24733908.951 9 -19249863.93749  20769699.054    20769698.3574   20769708.3294
  -1108983.482 8   -848233.05945  24857861.607    24857862.0814   24857877.1334
 -24281111.503 9 -18896866.33549  20905010.456    20905009.8634   20905020.0804
  -9043654.486 9  -6571674.47446  23698886.791    23698886.1334   23698904.0744
  -6749368.920 9  -5248713.14446  23744410.726    23744409.8974   23744425.0634
 -25731844.940 9 -20032869.95348  21028398.763    21028398.5134   21028408.9164
 00  4 20  0  1 38.0000000  0  8 26 30 17  3 23 21 22  6            -0.000000023
 -18525153.249 9 -14421045.28548  21751999.888    21751999.8644   21752010.7234
     94387.473 8     83472.40545  25500261.472    25500261.6164   25500290.0884
 -24733990.945 9 -19249927.82949  20769683.453    20769682.7484   20769692.7184
  -1110714.065 8   -849581.56445  24857532.314    24857532.7494   24857547.8254
 -24281561.237 9 -18897216.77749  20904924.862    20904924.2724   20904934.4904
  -9044955.893 9  -6572688.55246  23698639.157    23698638.5054   23698656.4344
  -6749135.708 9  -5248531.42446  23744455.098    23744454.2564   23744469.4214
 -25730775.168 9 -20032036.36748  21028602.350    21028602.0824   21028612.5094
 00  4 20  0  1 38.0000000  0  8 26 30 17  3 23 21 22  6            -0.000000023
 -18524830.238 9 -14420793.59248  21752061.362    21752061.3414   21752072.2014
     95945.568 8     84686.50045  25500557.953    25500558.1014   25500586.5684
 -24734072.778 9 -19249991.59649  20769667.879    20769667.1794   20769677.1404
  -1112444.542 8   -850929.98745  24857203.026    24857203.4174   24857218.5364
 -24282010.764 9 -18897567.05849  20904839.329    20904838.7314   20904848.9554
  -9046257.143 9  -6573702.50946  23698391.527    23698390.8664   23698408.8144
  -6748902.264 9  -5248349.52246  23744499.541    23744498.7064   23744513.8594
 -25729705.174 9 -20031202.60548  21028805.966    21028805.7114   21028816.1224
 00  4 20  0  1 39.0000000  0  8 26 30 17  3 23 21 22  6            -0.000000023
 -18524507.101 9 -14420541.79548  21752122.832    21752122.8094   21752133.6824
     97503.576 8     85900.52845  25500854.431    25500854.5764   25500883.0544
 -24734154.615 9 -19250055.36549  20769652.307    20769651.5994   20769661.5724
  -1114175.053 8   -852278.43245  24856873.728    24856874.0854   24856889.2314
 -24282460.236 9 -18897917.29449  20904753.780    20904753.1914   20904763.3994
  -9047558.395 9  -6574716.46546  23698143.909    23698143.2584   23698161.1924
  -6748668.758 9  -5248167.56846  23744543.948    23744543.1154   23744558.2704
 -25728635.108 9 -20030368.78948  21029009.578    21029009.3204   21029019.7324
 00  4 20  0  1 39.0000000  0  8 26 30 17  3 23 21 22  6            -0.000000024
 -18524183.846 9 -14420289.90948  21752184.342    21752184.3164   21752195.1894
     99061.439 8     87114.44245  25501150.891    25501151.0304   25501179.5154
 -24734236.407 9 -19250119.09949  20769636.754    20769636.0504   20769646.0204
  -1115905.596 8   -853626.90745  24856544.396    24856544.7234   24856559.8814
 -24282909.637 9 -18898267.47649  20904668.265    20904667.6704   20904677.8844
  -9048859.627 9  -6575730.40646  23697896.280    23697895.6294   23697913.5684
  -6748435.132 9  -5247985.52246  23744588.420    23744587.5844   23744602.7384
 -25727564.948 9 -20029534.90048  21029213.225    21029212.9694   21029223.3854
 00  4 20  0  1 40.0000000  0  8 26 30 17  3 23 21 22  6            -0.000000024
 -18523860.404 9 -14420037.87548  21752245.919    21752245.8944   21752256.7514
    100619.277 8     88328.34045  25501447.337    25501447.4854   25501475.9714
 -24734318.142 9 -19250182.78849  20769621.197    20769620.4914   20769630.4704
  -1117636.118 8   -854975.36245  24856215.109    24856215.4114   24856230.5914
 -24283358.927 9 -18898617.56949  20904582.779    20904582.1794   20904592.3974
  -9050160.806 9  -6576744.30346  23697648.655    23697648.0004   23697665.9444
  -6748201.368 9  -5247803.37246  23744632.893    23744632.0544   23744647.2094
 -25726494.672 9 -20028700.91848  21029416.891    21029416.6384   21029427.0514
 00  4 20  0  1 40.0000000  0  8 26 30 17  3 23 21 22  6            -0.000000024
 -18523536.817 9 -14419785.72948  21752307.473    21752307.4614   21752318.3064
    102177.007 8     89542.15245  25501743.782    25501743.9204   25501772.4214
 -24734399.854 9 -19250246.45949  20769605.635    20769604.9324   20769614.9064
  -1119366.636 8   -856323.81445  24855885.792    24855886.0694   24855901.2654
 -24283808.136 9 -18898967.60049  20904497.292    20904496.6984   20904506.9174
  -9051461.949 9  -6577758.17446  23697401.064    23697400.4124   23697418.3604
  -6747967.499 9  -5247621.13946  23744677.404    23744676.5634   23744691.7164
 -25725424.297 9 -20027866.86148  21029620.575    21029620.3174   21029630.7314
 00  4 20  0  1 41.0000000  0  8 26 30 17  3 23 21 22  6            -0.000000024
 -18523213.056 9 -14419533.45048  21752369.102    21752369.0784   21752379.9374
    103734.714 8     90755.94445  25502040.216    25502040.3544   25502068.8574
 -24734481.470 9 -19250310.05549  20769590.121    20769589.4224   20769599.3924
  -1121097.120 8   -857672.24145  24855556.508    24855556.7574   24855571.9714
 -24284257.231 9 -18899317.54349  20904411.825    20904411.2274   20904421.4504
  -9052763.038 9  -6578772.00346  23697153.479    23697152.8234   23697170.7714
  -6747733.485 9  -5247438.78846  23744721.937    23744721.0924   23744736.2524
 -25724353.793 9 -20027032.70448  21029824.301    21029824.0464   21029834.4584
 00  4 20  0  1 41.0000000  0  8 26 30 17  3 23 21 22  6            -0.000000024
 -18522889.081 9 -14419281.00148  21752430.728    21752430.7064   21752441.5714
    105292.366 8     91969.69445  25502336.627    25502336.7604   25502365.2624
 -24734562.988 9 -19250373.57549  20769574.610    20769573.9134   20769583.8844
  -1122827.552 8   -859020.62745  24855227.220    24855227.4354   24855242.6774
 -24284706.173 9 -18899667.36949  20904326.394    20904325.7964   20904336.0134
  -9054064.022 9  -6579785.75246  23696905.889    23696905.2354   23696923.1904
  -6747499.283 9  -5247256.29446  23744766.502    23744765.6514   23744780.8084
 -25723283.122 9 -20026198.41448  21030028.017    21030027.7654   21030038.1794
 00  4 20  0  1 42.0000000  0  8 26 30 17  3 23 21 22  6            -0.000000024
 -18522564.896 9 -14419028.38648  21752492.422    21752492.3934   21752503.2654
    106850.014 8     93183.44245  25502633.023    25502633.1544   25502661.6664
 -24734644.419 9 -19250437.02849  20769559.102    20769558.4044   20769568.3794
  -1124557.948 8   -860368.98545  24854897.936    24854898.1324   24854913.3794
 -24285154.980 9 -18900017.08949  20904240.998    20904240.4064   20904250.6154
  -9055364.917 9  -6580799.43446  23696658.343    23696657.6964   23696675.6374
  -6747264.927 9  -5247073.67946  23744811.096    23744810.2404   23744825.4034
 -25722212.295 9 -20025364.00648  21030231.804    21030231.5544   21030241.9654
 00  4 20  0  1 42.0000000  0  8 26 30 17  3 23 21 22  6            -0.000000024
 -18522240.611 9 -14418775.69548  21752554.131    21752554.1004   21752564.9854
    108407.558 8     94397.11045  25502929.438    25502929.5694   25502958.0734
 -24734725.845 9 -19250500.47649  20769543.610    20769542.9154   20769552.8804
  -1126288.374 8   -861717.36545  24854568.646    24854568.8304   24854584.0764
 -24285603.747 9 -18900366.77649  20904155.604    20904155.0054   20904165.2164
  -9056665.834 9  -6581813.12946  23696410.779    23696410.1274   23696428.0814
  -6747030.498 9  -5246891.00946  23744855.712    23744854.8494   23744870.0174
 -25721141.427 9 -20024529.56548  21030435.587    21030435.3234   21030445.7444
 00  4 20  0  1 43.0000000  0  8 26 30 17  3 23 21 22  6            -0.000000024
 -18521916.082 9 -14418522.81548  21752615.884    21752615.8584   21752626.7404
    109965.046 8     95610.73145  25503225.805    25503225.9344   25503254.4404
 -24734807.153 9 -19250563.83449  20769528.138    20769527.4354   20769537.4164
  -1128018.740 8   -863065.70045  24854239.371    24854239.5484   24854254.7854
 -24286052.352 9 -18900716.33649  20904070.219    20904069.6244   20904079.8304
  -9057966.639 9  -6582826.73846  23696163.229    23696162.5794   23696180.5324
  -6746795.872 9  -5246708.18146  23744900.374    23744899.5084   23744914.6704
 -25720070.378 9 -20023694.98248  21030639.391    21030639.1414   21030649.5504
 00  4 20  0  1 43.0000000  0  8 26 30 17  3 23 21 22  6            -0.000000024
 -18521591.418 9 -14418269.83048  21752677.665    21752677.6354   21752688.5044
    111522.510 8     96824.33445  25503522.198    25503522.3194   25503550.8344
 -24734888.435 9 -19250627.16849  20769512.659    20769511.9464   20769521.9304
  -1129749.112 8   -864414.03945  24853910.118    24853910.2864   24853925.5274
 -24286500.869 9 -18901065.82849  20903984.883    20903984.2834   20903994.5014
  -9059267.423 9  -6583840.32746  23695915.697    23695915.0404   23695933.0014
  -6746561.147 9  -5246525.27646  23744945.029    23744944.1574   23744959.3274
 -25718999.232 9 -20022860.32348  21030843.217    21030842.9604   21030853.3814
 00  4 20  0  1 44.0000000  0  8 26 30 17  3 23 21 22  6            -0.000000024
 -18521266.633 9 -14418016.75048  21752739.485    21752739.4624   21752750.3354
    113079.779 8     98037.78845  25503818.540    25503818.6644   25503847.1754
 -24734969.690 9 -19250690.48449  20769497.224    20769496.5174   20769506.4994
  -1131479.504 8   -865762.39545  24853580.835    24853580.9944   24853596.2324
 -24286949.332 9 -18901415.27749  20903899.524    20903898.9224   20903909.1414
  -9060568.203 9  -6584853.91846  23695668.161    23695667.5114   23695685.4544
  -6746326.332 9  -5246342.30446  23744989.722    23744988.8564   23745004.0174
 -25717928.023 9 -20022025.61648  21031047.080    21031046.8294   21031057.2444
 00  4 20  0  1 44.0000000  0  8 26 30 17  3 23 21 22  6            -0.000000025
 -18520941.685 9 -14417763.54548  21752801.309    21752801.2894   21752812.1504
    114637.026 8     99251.22445  25504114.868    25504114.9884   25504143.5044
 -24735050.901 9 -19250753.76649  20769481.771    20769481.0674   20769491.0494
  -1133209.898 8   -867110.75145  24853251.539    24853251.6824   24853266.9304
 -24287397.699 9 -18901764.65349  20903814.222    20903813.6214   20903823.8364
  -9061868.942 9  -6585867.47046  23695420.641    23695419.9934   23695437.9364
  -6746091.397 9  -5246159.23746  23745034.417    23745033.5464   23745048.7084
 -25716856.703 9 -20021190.82348  21031250.939    21031250.6884   21031261.0994
 00  4 20  0  1 45.0000000  0  8 26 30 17  3 23 21 22  6            -0.000000025
 -18520616.464 9 -14417510.12448  21752863.205    21752863.1864   21752874.0534
    116194.333 8    100464.70745  25504411.206    25504411.3234   25504439.8444
 -24735131.946 9 -19250816.91749  20769466.344    20769465.6484   20769475.6174
  -1134940.174 8   -868459.01545  24852922.292    24852922.4204   24852937.6754
 -24287845.847 9 -18902113.85849  20903728.946    20903728.3504   20903738.5544
  -9063169.518 9  -6586880.89946  23695173.123    23695172.4744   23695190.4114
  -6745856.221 9  -5245975.98346  23745079.182    23745078.3054   23745093.4744
 -25715785.153 9 -20020355.85048  21031454.843    21031454.5874   21031464.9984
 00  4 20  0  1 45.0000000  0  8 26 30 17  3 23 21 22  6            -0.000000025
 -18520291.131 9 -14417256.62048  21752925.097    21752925.0834   21752935.9464
    117751.457 8    101678.04745  25504707.544    25504707.6584   25504736.1914
 -24735212.991 9 -19250880.06849  20769450.922    20769450.2094   20769460.1994
  -1136670.509 8   -869807.32845  24852593.030    24852593.1484   24852608.4154
 -24288293.970 9 -18902463.04149  20903643.650    20903643.0494   20903653.2664
  -9064470.107 9  -6587894.34346  23694925.622    23694924.9754   23694942.9104
  -6745620.991 9  -5245792.68546  23745123.961    23745123.0844   23745138.2554
 -25714713.554 9 -20019520.83948  21031658.765    21031658.5064   21031668.9304
 00  4 20  0  1 46.0000000  0  8 26 30 17  3 23 21 22  6            -0.000000025
 -18519965.567 9 -14417002.93548  21752987.064    21752987.0404   21752997.9074
    119308.618 8    102891.41845  25505003.864    25505003.9834   25505032.5094
 -24735293.929 9 -19250943.13749  20769435.524    20769434.8104   20769444.7984
  -1138400.783 8   -871155.59145  24852263.755    24852263.8664   24852279.1364
 -24288741.934 9 -18902812.10449  20903558.412    20903557.8084   20903568.0234
  -9065770.601 9  -6588907.70946  23694678.140    23694677.4874   23694695.4264
  -6745385.560 9  -5245609.23446  23745168.740    23745167.8534   23745183.0244
 -25713641.791 9 -20018685.70148  21031862.711    21031862.4544   21031872.8714
 00  4 20  0  1 46.0000000  0  8 26 30 17  3 23 21 22  6            -0.000000025
 -18519639.870 9 -14416749.14348  21753049.042    21753049.0184   21753059.8934
    120865.664 8    104104.69445  25505300.168    25505300.2774   25505328.8114
 -24735374.847 9 -19251006.18849  20769420.111    20769419.4004   20769429.3884
  -1140131.085 8   -872503.87645  24851934.516    24851934.6144   24851949.8994
 -24289189.817 9 -18903161.10449  20903473.199    20903472.5974   20903482.8114
  -9067071.070 9  -6589921.05746  23694430.676    23694430.0284   23694447.9534
  -6745150.049 9  -5245425.71946  23745213.561    23745212.6724   23745227.8484
 -25712569.930 9 -20017850.48648  21032066.689    21032066.4234   21032076.8484
 00  4 20  0  1 47.0000000  0  8 26 30 17  3 23 21 22  6            -0.000000025
 -18519313.966 9 -14416495.19248  21753111.054    21753111.0354   21753121.8954
    122422.644 8    105317.92045  25505596.454    25505596.5734   25505625.0984
 -24735455.657 9 -19251069.15749  20769404.750    20769404.0414   20769414.0214
  -1141861.326 8   -873852.11245  24851605.251    24851605.3524   24851620.6274
 -24289637.571 9 -18903510.00149  20903387.976    20903387.3764   20903397.5884
  -9068371.451 9  -6590934.33246  23694183.222    23694182.5704   23694200.5054
  -6744914.344 9  -5245242.05246  23745258.432    23745257.5414   23745272.7144
 -25711497.925 9 -20017015.15948  21032270.686    21032270.4224   21032280.8544
 00  4 20  0  1 47.0000000  0  8 26 30 17  3 23 21 22  6            -0.000000025
 -18518987.909 9 -14416241.12048  21753173.097    21753173.0724   21753183.9454
    123979.588 8    106531.12045  25505892.715    25505892.8284   25505921.3574
 -24735536.413 9 -19251132.08249  20769389.380    20769388.6724   20769398.6574
  -1143591.558 8   -875200.34445  24851276.000    24851276.0994   24851291.3744
 -24290085.227 9 -18903858.82349  20903302.789    20903302.1854   20903312.4014
  -9069671.784 9  -6591947.57346  23693935.762    23693935.1114   23693953.0414
  -6744678.537 9  -5245058.30646  23745303.295    23745302.4004   23745317.5884
 -25710425.810 9 -20016179.74748  21032474.692    21032474.4414   21032484.8584
 00  4 20  0  1 48.0000000  0  8 26 30 17  3 23 21 22  6            -0.000000025
 -18518661.722 9 -14415986.94848  21753235.159    21753235.1394   21753246.0024
    125536.409 8    107744.22245  25506188.982    25506189.0924   25506217.6184
 -24735617.172 9 -19251195.01249  20769373.991    20769373.2724   20769383.2604
  -1145321.819 8   -876548.59845  24850946.753    24850946.8484   24850962.1234
 -24290532.819 9 -18904207.59649  20903217.632    20903217.0244   20903227.2394
  -9070972.117 9  -6592960.81546  23693688.322    23693687.6724   23693705.5954
  -6744442.646 9  -5244874.49846  23745348.187    23745347.2894   23745362.4734
 -25709353.617 9 -20015344.27348  21032678.728    21032678.4804   21032688.8944
 00  4 20  0  1 48.0000000  0  8 26 30 17  3 23 21 22  6            -0.000000025
 -18518335.274 9 -14415732.57348  21753297.303    21753297.2764   21753308.1484
    127093.284 8    108957.36845  25506485.261    25506485.3674   25506513.8854
 -24735697.747 9 -19251257.79849  20769358.655    20769357.9434   20769367.9184
  -1147051.974 8   -877896.76645  24850617.500    24850617.5864   24850632.8754
 -24290980.208 9 -18904556.21049  20903132.496    20903131.8934   20903142.1004
  -9072272.293 9  -6593973.92846  23693440.897    23693440.2434   23693458.1704
  -6744206.503 9  -5244690.49146  23745393.111    23745392.2074   23745407.3874
 -25708281.205 9 -20014508.62948  21032882.807    21032882.5484   21032892.9764
 00  4 20  0  1 49.0000000  0  8 26 30 17  3 23 21 22  6            -0.000000025
 -18518008.657 9 -14415478.06648  21753359.445    21753359.4234   21753370.3024
    128650.061 8    110170.43545  25506781.511    25506781.6124   25506810.1254
 -24735778.271 9 -19251320.54349  20769343.342    20769342.6234   20769352.6094
  -1148782.101 8   -879244.91645  24850288.266    24850288.3544   24850303.6384
 -24291427.499 9 -18904904.74749  20903047.373    20903046.7724   20903056.9804
  -9073572.422 9  -6594987.00746  23693193.491    23693192.8354   23693210.7674
  -6743970.233 9  -5244506.38546  23745438.080    23745437.1664   23745452.3504
 -25707208.680 9 -20013672.89648  21033086.903    21033086.6374   21033097.0654
 00  4 20  0  1 49.0000000  0  8 26 30 17  3 23 21 22  6            -0.000000025
 -18517681.913 9 -14415223.45848  21753421.633    21753421.6104   21753432.4804
    130206.761 8    111383.44545  25507077.730    25507077.8274   25507106.3314
 -24735858.784 9 -19251383.28049  20769328.028    20769327.3144   20769337.2964
  -1150512.262 8   -880593.09145  24849959.051    24849959.1314   24849974.4274
 -24291874.716 9 -18905253.22949  20902962.279    20902961.6814   20902971.8864
  -9074872.527 9  -6596000.07246  23692946.082    23692945.4264   23692963.3584
  -6743733.877 9  -5244322.21346  23745483.055    23745482.1354   23745497.3294
 -25706136.071 9 -20012837.09848  21033291.017    21033290.7564   21033301.1894
 00  4 20  0  1 50.0000000  0  8 26 30 17  3 23 21 22  6            -0.000000026
 -18517354.986 9 -14414968.70948  21753483.832    21753483.8174   21753494.6754
    131763.394 8    112596.40245  25507373.952    25507374.0524   25507402.5474
 -24735939.222 9 -19251445.96049  20769312.705    20769311.9854   20769321.9734
  -1152242.424 8   -881941.26745  24849629.804    24849629.8794   24849645.1644
 -24292321.839 9 -18905601.63449  20902877.173    20902876.5704   20902886.7774
  -9076172.587 9  -6597013.10046  23692698.685    23692698.0374   23692715.9604
  -6743497.376 9  -5244137.92646  23745528.071    23745527.1544   23745542.3404
 -25705063.351 9 -20012001.21348  21033495.128    21033494.8654   21033505.2944
 00  4 20  0  1 50.0000000  0  8 26 30 17  3 23 21 22  6            -0.000000026
 -18517027.889 9 -14414713.82948  21753546.090    21753546.0734   21753556.9384
    133319.913 8    113809.26845  25507670.165    25507670.2564   25507698.7414
 -24736019.615 9 -19251508.60449  20769297.430    20769296.7154   20769306.6904
  -1153972.566 8   -883289.43145  24849300.574    24849300.6374   24849315.9354
 -24292768.865 9 -18905949.96549  20902792.123    20902791.5194   20902801.7264
  -9077472.599 9  -6598026.09246  23692451.279    23692450.6284   23692468.5494
  -6743260.759 9  -5243953.54946  23745573.116    23745572.1934   23745587.3814
 -25703990.518 9 -20011165.23948  21033699.305    21033699.0434   21033709.4714
 00  4 20  0  1 51.0000000  0  8 26 30 17  3 23 21 22  6            -0.000000026
 -18516700.587 9 -14414458.78948  21753608.373    21753608.3604   21753619.2114
    134876.484 8    115022.17545  25507966.367    25507966.4624   25507994.9364
 -24736099.922 9 -19251571.18049  20769282.133    20769281.4164   20769291.3994
  -1155702.683 8   -884637.57045  24848971.354    24848971.4154   24848986.7174
 -24293215.751 9 -18906298.18749  20902707.068    20902706.4674   20902716.6694
  -9078772.521 9  -6599039.01346  23692203.908    23692203.2604   23692221.1754
  -6743023.977 9  -5243769.04746  23745618.166    23745617.2324   23745632.4204
 -25702917.531 9 -20010329.14648  21033903.465    21033903.2024   21033913.6414
 00  4 20  0  1 51.0000000  0  8 26 30 17  3 23 21 22  6            -0.000000026
 -18516373.100 9 -14414203.60648  21753670.690    21753670.6774   21753681.5424
    136432.957 8    116235.00545  25508262.571    25508262.6674   25508291.1244
 -24736180.139 9 -19251633.68749  20769266.865    20769266.1464   20769276.1314
  -1157432.751 8   -885985.67045  24848642.121    24848642.1734   24848657.4864
 -24293662.519 9 -18906646.31549  20902622.072    20902621.4764   20902631.6674
  -9080072.363 9  -6600051.87646  23691956.570    23691955.9214   23691973.8414
  -6742787.036 9  -5243584.41646  23745663.249    23745662.3104   23745677.5074
 -25701844.418 9 -20009492.95648  21034107.687    21034107.4304   21034117.8554
 00  4 20  0  1 52.0000000  0  8 26 30 17  3 23 21 22  6            -0.000000026
 -18516045.529 9 -14413948.35548  21753733.027    21753733.0144   21753743.8684
    137989.261 8    117447.70445  25508558.733    25508558.8224   25508587.2764
 -24736260.381 9 -19251696.21249  20769251.603    20769250.8874   20769260.8684
  -1159162.908 8   -887333.84045  24848312.884    24848312.9214   24848328.2574
 -24294109.263 9 -18906994.42749  20902537.040    20902536.4354   20902546.6414
  -9081372.229 9  -6601064.75346  23691709.201    23691708.5624   23691726.4654
  -6742550.043 9  -5243399.74646  23745708.342    23745707.3994   23745722.5904
 -25700771.264 9 -20008656.73448  21034311.888    21034311.6294   21034322.0664
 00  4 20  0  1 52.0000000  0  8 26 30 17  3 23 21 22  6            -0.000000026
 -18515717.685 9 -14413692.89148  21753795.400    21753795.3814   21753806.2494
    139545.631 8    118660.45545  25508854.917    25508855.0074   25508883.4494
 -24736340.470 9 -19251758.61949  20769236.372    20769235.6474   20769245.6314
  -1160892.907 8   -888681.88645  24847983.667    24847983.6994   24847999.0504
 -24294555.802 9 -18907342.37849  20902452.071    20902451.4644   20902461.6634
  -9082671.942 9  -6602077.51246  23691461.860    23691461.2234   23691479.1294
  -6742312.826 9  -5243214.89846  23745753.487    23745752.5484   23745767.7334
 -25699697.889 9 -20007820.34048  21034516.138    21034515.8884   21034526.3124
 00  4 20  0  1 53.0000000  0  8 26 30 17  3 23 21 22  6            -0.000000026
 -18515389.719 9 -14413437.33048  21753857.813    21753857.7984   21753868.6574
    141101.910 8    119873.13645  25509151.073    25509151.1624   25509179.5944
 -24736420.535 9 -19251821.00649  20769221.125    20769220.4084   20769230.3824
  -1162622.948 8   -890029.96745  24847654.481    24847654.4974   24847669.8704
 -24295002.294 9 -18907690.29149  20902367.099    20902366.4934   20902376.6974
  -9083971.649 9  -6603090.26246  23691214.535    23691213.8954   23691231.8054
  -6742075.507 9  -5243029.97246  23745798.668    23745797.7174   23745812.9224
 -25698624.455 9 -20006983.89748  21034720.432    21034720.1664   21034730.6064
 00  4 20  0  1 53.0000000  0  8 26 30 17  3 23 21 22  6            -0.000000026
 -18515061.589 9 -14413181.64548  21753920.254    21753920.2354   21753931.1014
    142658.053 8    121085.71145  25509447.185    25509447.2674   25509475.7034
 -24736500.545 9 -19251883.35249  20769205.905    20769205.1894   20769215.1684
  -1164352.979 8   -891378.04245  24847325.264    24847325.2554   24847340.6534
 -24295448.688 9 -18908038.13049  20902282.167    20902281.5624   20902291.7624
  -9085271.303 9  -6604102.97246  23690967.214    23690966.5764   23690984.4874
  -6741838.071 9  -5242844.96046  23745843.847    23745842.8954   23745858.1044
 -25697550.905 9 -20006147.36548  21034924.717    21034924.4554   21034934.8904
 00  4 20  0  1 54.0000000  0  8 26 30 17  3 23 21 22  6            -0.000000026
 -18514733.251 9 -14412925.79748  21753982.726    21753982.7014   21753993.5614
    144214.204 8    122298.29145  25509743.318    25509743.4024   25509771.8314
 -24736580.479 9 -19251945.63749  20769190.686    20769189.9694   20769199.9454
  -1166082.975 8   -892726.08645  24846996.050    24846996.0334   24847011.4504
 -24295894.944 9 -18908385.86049  20902197.247    20902196.6404   20902206.8374
  -9086570.869 9  -6605115.61346  23690719.906    23690719.2674   23690737.1754
  -6741600.479 9  -5242659.82246  23745889.061    23745888.1044   23745903.3084
 -25696477.208 9 -20005310.72048  21035129.026    21035128.7634   21035139.1994
 00  4 20  0  1 54.0000000  0  8 26 30 17  3 23 21 22  6            -0.000000026
 -18514404.742 9 -14412669.81748  21754045.249    21754045.2384   21754056.0904
    145770.323 8    123510.84645  25510039.452    25510039.5274   25510067.9654
 -24736660.323 9 -19252007.85349  20769175.486    20769174.7604   20769184.7514
  -1167812.937 8   -894074.10745  24846666.840    24846666.8114   24846682.2384
 -24296341.095 9 -18908733.51149  20902112.347    20902111.7394   20902121.9384
  -9087870.364 9  -6606128.20246  23690472.598    23690471.9684   23690489.8694
  -6741362.726 9  -5242474.56046  23745934.290    23745933.3424   23745948.5364
 -25695403.391 9 -20004473.98148  21035333.367    21035333.1124   21035343.5464
 00  4 20  0  1 55.0000000  0  8 26 30 17  3 23 21 22  6            -0.000000026
 -18514076.036 9 -14412413.68248  21754107.794    21754107.7754   21754118.6274
    147326.343 8    124723.32345  25510335.566    25510335.6424   25510364.0694
 -24736740.093 9 -19252070.01149  20769160.319    20769159.6004   20769169.5844
  -1169542.879 8   -895422.11345  24846337.647    24846337.5994   24846353.0564
 -24296787.122 9 -18909081.06349  20902027.478    20902026.8684   20902037.0684
  -9089169.784 9  -6607140.73146  23690225.344    23690224.7104   23690242.6084
  -6741124.826 9  -5242289.18346  23745979.567    23745978.6114   23745993.8204
 -25694329.439 9 -20003637.13748  21035537.722    21035537.4604   21035547.8964
 00  4 20  0  1 55.0000000  0  8 26 30 17  3 23 21 22  6            -0.000000026
 -18513747.220 9 -14412157.46348  21754170.374    21754170.3514   21754181.2054
    148882.246 8    125935.71245  25510631.644    25510631.7174   25510660.1464
 -24736819.864 9 -19252132.16949  20769145.130    20769144.4114   20769154.4044
  -1171272.825 8   -896770.12445  24846008.461    24846008.4064   24846023.8674
 -24297233.092 9 -18909428.57049  20901942.591    20901941.9874   20901952.1844
  -9090469.210 9  -6608153.26246  23689978.052    23689977.4214   23689995.3214
  -6740886.844 9  -5242103.74146  23746024.865    23746023.9104   23746039.1154
 -25693255.419 9 -20002800.24048  21035742.119    21035741.8594   21035752.3044
 00  4 20  0  1 56.0000000  0  8 26 30 17  3 23 21 22  6            -0.000000026
 -18513418.174 9 -14411901.06248  21754232.985    21754232.9584   21754243.8204
    150438.158 8    127148.10545  25510927.735    25510927.8024   25510956.2344
 -24736899.519 9 -19252194.23849  20769129.966    20769129.2414   20769139.2274
  -1173002.748 8   -898118.11545  24845679.285    24845679.2244   24845694.6964
 -24297678.927 9 -18909775.97349  20901857.765    20901857.1554   20901867.3594
  -9091768.519 9  -6609165.70246  23689730.813    23689730.1724   23689748.0904
  -6740648.673 9  -5241918.15346  23746070.190    23746069.2284   23746084.4464
 -25692181.249 9 -20001963.22748  21035946.515    21035946.2574   21035956.6964
 00  4 20  0  1 56.0000000  0  8 26 30 17  3 23 21 22  6            -0.000000026
 -18513088.966 9 -14411644.53648  21754295.617    21754295.5954   21754306.4494
    151993.981 8    128360.42945  25511223.796    25511223.8574   25511252.2914
 -24736979.124 9 -19252256.26849  20769114.810    20769114.0924   20769124.0694
  -1174732.663 8   -899466.09845  24845350.087    24845350.0224   24845365.5064
 -24298124.666 9 -18910123.30049  20901772.931    20901772.3244   20901782.5224
  -9093067.783 9  -6610178.10846  23689483.551    23689482.9134   23689500.8214
  -6740410.384 9  -5241732.47446  23746115.531    23746114.5774   23746129.7874
 -25691106.972 9 -20001126.12848  21036150.959    21036150.6964   21036161.1374
 00  4 20  0  1 57.0000000  0  8 26 30 17  3 23 21 22  6            -0.000000027
 -18512759.573 9 -14411387.86448  21754358.298    21754358.2714   21754369.1294
    153549.738 8    129572.70445  25511519.860    25511519.9224   25511548.3574
 -24737058.658 9 -19252318.24249  20769099.685    20769098.9624   20769108.9514
  -1176462.529 8   -900814.04245  24845020.904    24845020.8304   24845036.3174
 -24298570.274 9 -18910470.52549  20901688.142    20901687.5334   20901697.7334
  -9094366.976 9  -6611190.46246  23689236.316    23689235.6744   23689253.5904
  -6740171.942 9  -5241546.67846  23746160.915    23746159.9654   23746175.1704
 -25690032.552 9 -20000288.91748  21036355.413    21036355.1544   21036365.5984
 00  4 20  0  1 57.0000000  0  8 26 30 17  3 23 21 22  6            -0.000000027
 -18512429.984 9 -14411131.04148  21754421.019    21754420.9984   21754431.8504
    155105.475 8    130784.96045  25511815.901    25511815.9574   25511844.3964
 -24737138.113 9 -19252380.15549  20769084.567    20769083.8434   20769093.8264
  -1178192.373 8   -902161.97145  24844691.745    24844691.6584   24844707.1594
 -24299015.777 9 -18910817.66949  20901603.374    20901602.7714   20901612.9664
  -9095666.103 9  -6612202.76446  23688989.084    23688988.4354   23689006.3564
  -6739933.349 9  -5241360.76046  23746206.303    23746205.3544   23746220.5564
 -25688958.017 9 -19999451.61948  21036559.889    21036559.6234   21036570.0734
 00  4 20  0  1 58.0000000  0  8 26 30 17  3 23 21 22  6            -0.000000027
 -18512100.234 9 -14410874.08948  21754483.781    21754483.7544   21754494.6094
    156661.100 8    131997.13345  25512111.924    25512111.9824   25512140.4114
 -24737217.517 9 -19252442.02849  20769069.461    20769068.7434   20769078.7214
  -1179922.213 8   -903509.89545  24844362.547    24844362.4564   24844377.9694
 -24299461.188 9 -18911164.74249  20901518.622    20901518.0104   20901528.2134
  -9096965.169 9  -6613215.01746  23688741.882    23688741.2374   23688759.1554
  -6739694.642 9  -5241174.75846  23746251.715    23746250.7724   23746265.9744
 -25687883.370 9 -19998614.23148  21036764.380    21036764.1214   21036774.5724
 00  4 20  0  1 58.0000000  0  8 26 30 17  3 23 21 22  6            -0.000000027
 -18511770.356 9 -14410617.04348  21754546.547    21754546.5214   21754557.3754
    158216.636 8    133209.23345  25512407.941    25512407.9974   25512436.4224
 -24737296.906 9 -19252503.88949  20769054.358    20769053.6334   20769063.6244
  -1181652.065 8   -904857.82845  24844033.374    24844033.2744   24844048.7964
 -24299906.523 9 -18911511.75549  20901433.870    20901433.2594   20901443.4624
  -9098264.227 9  -6614227.26746  23688494.681    23688494.0384   23688511.9454
  -6739455.823 9  -5240988.66746  23746297.163    23746296.2214   23746311.4254
 -25686808.636 9 -19997776.77748  21036968.902    21036968.6404   21036979.0914
 00  4 20  0  1 59.0000000  0  8 26 30 17  3 23 21 22  6            -0.000000027
 -18511440.249 9 -14410359.81848  21754609.375    21754609.3484   21754620.2044
    159772.166 8    134421.33045  25512703.951    25512704.0024   25512732.4334
 -24737376.180 9 -19252565.66149  20769039.264    20769038.5444   20769048.5274
  -1183381.868 8   -906205.72545  24843704.221    24843704.1124   24843719.6404
 -24300351.714 9 -18911858.65749  20901349.133    20901348.5284   20901358.7244
  -9099563.182 9  -6615239.43546  23688247.492    23688246.8394   23688264.7604
  -6739216.836 9  -5240802.44646  23746342.651    23746341.7094   23746356.9184
 -25685733.753 9 -19996939.20948  21037173.427    21037173.1684   21037183.6174
 00  4 20  0  1 59.0000000  0  8 26 30 17  3 23 21 22  6            -0.000000027
 -18511110.017 9 -14410102.49348  21754672.215    21754672.1844   21754683.0544
    161327.590 8    135633.34745  25512999.963    25513000.0174   25513028.4354
 -24737455.440 9 -19252627.42149  20769024.165    20769023.4444   20769033.4324
  -1185111.708 8   -907553.65045  24843375.048    24843374.9304   24843390.4744
 -24300796.848 9 -18912205.51349  20901264.449    20901263.8464   20901274.0364
  -9100862.114 9  -6616251.58346  23688000.311    23687999.6604   23688017.5734
  -6738977.747 9  -5240616.14446  23746388.136    23746387.1984   23746402.4034
 -25684658.795 9 -19996101.58048  21037378.000    21037377.7364   21037388.1904
 00  4 20  0  2  0.0000000  0  8 26 30 17  3 23 21 22  6            -0.000000027
 -18510779.567 9 -14409844.99648  21754735.082    21754735.0504   21754745.9084
    162882.964 8    136845.32345  25513295.928    25513295.9824   25513324.4054
 -24737534.613 9 -19252689.11349  20769009.119    20769008.3954   20769018.3874
  -1186841.464 8   -908901.50745  24843045.882    24843045.7584   24843061.3154
 -24301241.837 9 -18912552.25649  20901179.772    20901179.1654   20901189.3644
  -9102160.955 9  -6617263.66446  23687753.148    23687752.5004   23687770.4034
  -6738738.486 9  -5240429.70846  23746433.662    23746432.7274   23746447.9324
 -25683583.678 9 -19995263.82648  21037582.564    21037582.3054   21037592.7584
 00  4 20  0  2  0.0000000  0  8 26 30 17  3 23 21 22  6            -0.000000027
 -18510448.966 9 -14409587.38348  21754797.989    21754797.9574   21754808.8164
    164438.290 8    138057.25945  25513591.929    25513591.9774   25513620.4064
 -24737613.747 9 -19252750.77549  20768994.038    20768993.3154   20769003.3074
  -1188571.245 8   -910249.38745  24842716.721    24842716.5854   24842732.1644
 -24301686.751 9 -18912898.94049  20901095.107    20901094.5034   20901104.6964
  -9103459.772 9  -6618275.72246  23687505.987    23687505.3424   23687523.2454
  -6738499.126 9  -5240243.19646  23746479.210    23746478.2754   23746493.4804
 -25682508.490 9 -19994426.02148  21037787.190    21037786.9234   21037797.3824
 00  4 20  0  2  1.0000000  0  8 26 30 17  3 23 21 22  6            -0.000000027
 -18510118.150 9 -14409329.60348  21754860.963    21754860.9434   21754871.7944
    165993.564 8    139269.15745  25513887.876    25513887.9224   25513916.3534
 -24737692.777 9 -19252812.35749  20768979.016    20768978.2964   20768988.2794
  -1190300.991 8   -911597.23845  24842387.550    24842387.4034   24842403.0034
 -24302131.510 9 -18913245.50649  20901010.450    20901009.8424   20901020.0464
  -9104758.486 9  -6619287.70346  23687258.842    23687258.1934   23687276.1014
  -6738259.580 9  -5240056.53746  23746524.799    23746523.8744   23746539.0684
 -25681433.130 9 -19993588.08048  21037991.816    21037991.5614   21038002.0114
 00  4 20  0  2  1.0000000  0  8 26 30 17  3 23 21 22  6            -0.000000027
 -18509787.114 9 -14409071.65448  21754923.936    21754923.9004   21754934.7634
    167548.818 8    140481.03645  25514183.849    25514183.9074   25514212.3294
 -24737771.705 9 -19252873.86149  20768963.982    20768963.2564   20768973.2424
  -1192030.637 8   -912945.01045  24842058.432    24842058.2714   24842073.8964
 -24302576.119 9 -18913591.95549  20900925.838    20900925.2414   20900935.4284
  -9106057.095 9  -6620299.60046  23687011.701    23687011.0544   23687028.9544
  -6738019.860 9  -5239869.74346  23746570.433    23746569.5024   23746584.7114
 -25680357.598 9 -19992750.00548  21038196.474    21038196.2204   21038206.6684
 00  4 20  0  2  2.0000000  0  8 26 30 17  3 23 21 22  6            -0.000000027
 -18509455.898 9 -14408813.56748  21754986.977    21754986.9464   21754997.8164
    169103.968 8    141692.83745  25514479.788    25514479.8424   25514508.2784
 -24737850.551 9 -19252935.29949  20768948.995    20768948.2764   20768958.2584
  -1193760.280 8   -914292.78245  24841729.281    24841729.1094   24841744.7504
 -24303020.613 9 -18913938.31249  20900841.270    20900840.6694   20900850.8634
  -9107355.630 9  -6621311.43946  23686764.609    23686763.9654   23686781.8634
  -6737779.965 9  -5239682.81246  23746616.070    23746615.1404   23746630.3444
 -25679281.960 9 -19991911.84848  21038401.165    21038400.9184   21038411.3654
 00  4 20  0  2  2.0000000  0  8 26 30 17  3 23 21 22  6            -0.000000027
 -18509124.550 9 -14408555.37448  21755050.026    21755049.9924   21755060.8614
    170659.067 8    142904.59745  25514775.716    25514775.7764   25514804.2024
 -24737929.397 9 -19252996.73649  20768933.972    20768933.2574   20768943.2404
  -1195489.943 8   -915640.56845  24841400.134    24841399.9474   24841415.6094
 -24303465.052 9 -18914284.62749  20900756.678    20900756.0784   20900766.2714
  -9108654.164 9  -6622323.27846  23686517.487    23686516.8464   23686534.7364
  -6737540.007 9  -5239495.83146  23746661.742    23746660.8194   23746676.0184
 -25678206.262 9 -19991073.64148  21038605.861    21038605.6164   21038616.0624
 00  4 20  0  2  3.0000000  0  8 26 30 17  3 23 21 22  6            -0.000000027
 -18508793.108 9 -14408297.10648  21755113.084    21755113.0494   21755123.9294
    172214.009 8    144116.23645  25515071.617    25515071.6824   25515100.1084
 -24738008.260 9 -19253058.18849  20768918.963    20768918.2474   20768928.2314
  -1197219.670 8   -916988.40445  24841071.004    24841070.8154   24841086.4864
 -24303909.460 9 -18914630.91749  20900672.131    20900671.5264   20900681.7144
  -9109952.710 9  -6623335.12446  23686270.390    23686269.7484   23686287.6374
  -6737299.993 9  -5239308.80846  23746707.391    23746706.4574   23746721.6644
 -25677130.499 9 -19990235.38548  21038810.562    21038810.3154   21038820.7594
 00  4 20  0  2  3.0000000  0  8 26 30 17  3 23 21 22  6            -0.000000027
 -18508461.429 9 -14408038.65448  21755176.203    21755176.1654   21755187.0364
    173768.948 8    145327.87045  25515367.507    25515367.5774   25515395.9914
 -24738086.997 9 -19253119.53949  20768903.993    20768903.2784   20768913.2614
  -1198949.344 8   -918336.20045  24840741.864    24840741.6624   24840757.3494
 -24304353.707 9 -18914977.08149  20900587.595    20900586.9954   20900597.1804
  -9111251.146 9  -6624346.88946  23686023.304    23686022.6594   23686040.5544
  -6737059.786 9  -5239121.63246  23746753.121    23746752.2054   23746767.3904
 -25676054.587 9 -19989397.01348  21039015.304    21039015.0534   21039025.5064
 00  4 20  0  2  4.0000000  0  8 26 30 17  3 23 21 22  6            -0.000000027
 -18508129.679 9 -14407780.14548  21755239.336    21755239.3014   21755250.1764
    175323.685 8    146539.34945  25515663.369    25515663.4524   25515691.8474
 -24738165.777 9 -19253180.92649  20768888.992    20768888.2684   20768898.2574
  -1200679.073 8   -919684.03945  24840412.705    24840412.5104   24840428.1924
 -24304797.944 9 -18915323.23849  20900503.058    20900502.4534   20900512.6484
  -9112549.615 9  -6625358.67446  23685776.203    23685775.5594   23685793.4594
  -6736819.530 9  -5238934.41846  23746798.846    23746797.9244   23746813.1254
 -25674978.649 9 -19988558.61848  21039220.052    21039219.7914   21039230.2544
 00  4 20  0  2  4.0000000  0  8 26 30 17  3 23 21 22  6            -0.000000027
 -18507797.677 9 -14407521.44348  21755302.525    21755302.5074   21755313.3584
    176878.493 8    147750.88145  25515959.265    25515959.3484   25515987.7514
 -24738244.413 9 -19253242.20149  20768874.029    20768873.3084   20768883.2984
  -1202408.721 8   -921031.81445  24840083.575    24840083.3784   24840099.0624
 -24305241.982 9 -18915669.24049  20900418.548    20900417.9424   20900428.1404
  -9113847.949 9  -6626370.35546  23685529.126    23685528.4804   23685546.3834
  -6736579.066 9  -5238747.04746  23746844.598    23746843.6824   23746858.8784
 -25673902.502 9 -19987720.06348  21039424.829    21039424.5694   21039435.0354
 00  4 20  0  2  5.0000000  0  8 26 30 17  3 23 21 22  6            -0.000000027
 -18507465.441 9 -14407262.56048  21755365.738    21755365.7144   21755376.5844
    178433.237 8    148962.36545  25516255.116    25516255.2034   25516283.5944
 -24738322.929 9 -19253303.38349  20768859.096    20768858.3794   20768868.3604
  -1204138.302 8   -922379.54145  24839754.447    24839754.2464   24839769.9374
 -24305685.861 9 -18916015.12149  20900334.091    20900333.4904   20900343.6764
  -9115146.175 9  -6627381.95346  23685282.072    23685281.4314   23685299.3304
  -6736338.399 9  -5238559.51546  23746890.394    23746889.4804   23746904.6634
 -25672826.199 9 -19986881.38948  21039629.639    21039629.3784   21039639.8374
 00  4 20  0  2  5.0000000  0  8 26 30 17  3 23 21 22  6            -0.000000027
 -18507133.051 9 -14407003.55348  21755429.003    21755428.9804   21755439.8364
    179987.948 8    150173.82145  25516550.972    25516551.0684   25516579.4614
 -24738401.407 9 -19253364.53449  20768844.157    20768843.4394   20768853.4204
  -1205867.887 8   -923727.26745  24839425.301    24839425.1034   24839440.8014
 -24306129.655 9 -18916360.93349  20900249.619    20900249.0194   20900259.2024
  -9116444.349 9  -6628393.51046  23685035.037    23685034.4024   23685052.3004
  -6736097.617 9  -5238371.89446  23746936.214    23746935.3084   23746950.4874
 -25671749.793 9 -19986042.63348  21039834.471    21039834.2164   21039844.6734
 00  4 20  0  2  6.0000000  0  8 26 30 17  3 23 21 22  6            -0.000000027
 -18506800.479 9 -14406744.40648  21755492.268    21755492.2464   21755503.1094
    181542.547 8    151385.19145  25516846.811    25516846.9134   25516875.3044
 -24738479.837 9 -19253425.64849  20768829.235    20768828.5194   20768838.5024
  -1207597.441 8   -925074.96845  24839096.193    24839096.0014   24839111.6864
 -24306573.341 9 -18916706.66149  20900165.203    20900164.5974   20900174.7904
  -9117742.469 9  -6629405.02646  23684788.008    23684787.3734   23684805.2714
  -6735856.703 9  -5238184.17146  23746982.032    23746981.1274   23746996.2954
 -25670673.265 9 -19985203.78248  21040039.330    21040039.0744   21040049.5344
 00  4 20  0  2  6.0000000  0  8 26 30 17  3 23 21 22  6            -0.000000027
 -18506467.819 9 -14406485.18848  21755555.572    21755555.5424   21755566.4124
    183096.998 8    152596.44645  25517142.627    25517142.7284   25517171.1294
 -24738558.293 9 -19253486.78049  20768814.298    20768813.5804   20768823.5704
  -1209327.071 8   -926422.73045  24838767.070    24838766.8794   24838782.5694
 -24307017.019 9 -18917052.38249  20900080.776    20900080.1764   20900090.3634
  -9119040.638 9  -6630416.58046  23684540.981    23684540.3444   23684558.2524
  -6735615.756 9  -5237996.41746  23747027.900    23747027.0054   23747042.1754
 -25669596.727 9 -19984364.92148  21040244.192    21040243.9324   21040254.3954
 00  4 20  0  2  7.0000000  0  8 26 30 17  3 23 21 22  6            -0.000000027
 -18506134.895 9 -14406225.76748  21755618.942    21755618.9284   21755629.7784
    184651.480 8    153807.72845  25517438.425    25517438.5334   25517466.9314
 -24738636.593 9 -19253547.79449  20768799.390    20768798.6704   20768808.6544
  -1211056.583 8   -927770.40045  24838437.942    24838437.7474   24838453.4514
 -24307460.497 9 -18917397.94849  20899996.383    20899995.7844   20900005.9724
  -9120338.646 9  -6631428.01046  23684293.969    23684293.3354   23684311.2354
  -6735374.586 9  -5237808.49146  23747073.793    23747072.8944   23747088.0624
 -25668519.973 9 -19983525.89348  21040449.101    21040448.8414   21040459.3104
 00  4 20  0  2  7.0000000  0  8 26 30 17  3 23 21 22  6            -0.000000027
 -18505801.849 9 -14405966.25248  21755682.289    21755682.2654   21755693.1334
    186205.826 8    155018.90245  25517734.218    25517734.3384   25517762.7274
 -24738714.887 9 -19253608.80249  20768784.501    20768783.7804   20768793.7694
  -1212786.144 8   -929118.10645  24838108.824    24838108.6254   24838124.3354
 -24307903.910 9 -18917743.46449  20899911.983    20899911.3824   20899921.5684
  -9121636.632 9  -6632439.42346  23684046.944    23684046.3164   23684064.2104
  -6735133.316 9  -5237620.48846  23747119.690    23747118.8024   23747133.9634
 -25667443.137 9 -19982686.80148  21040653.999    21040653.7394   21040664.2044
 00  4 20  0  2  8.0000000  0  8 26 30 17  3 23 21 22  6            -0.000000027
 -18505468.609 9 -14405706.58648  21755745.715    21755745.6914   21755756.5694
    187760.138 8    156230.04845  25518030.009    25518030.1444   25518058.5194
 -24738793.114 9 -19253669.75749  20768769.603    20768768.8804   20768778.8814
  -1214515.700 8   -930465.80945  24837779.701    24837779.5034   24837795.2174
 -24308347.225 9 -18918088.90249  20899827.638    20899827.0414   20899837.2264
  -9122934.572 9  -6633450.79846  23683799.956    23683799.3374   23683817.2254
  -6734891.912 9  -5237432.37946  23747165.630    23747164.7404   23747179.8974
 -25666366.198 9 -19981847.62948  21040858.956    21040858.6974   21040869.1684
 00  4 20  0  2  8.0000000  0  8 26 30 17  3 23 21 22  6            -0.000000027
 -18505135.152 9 -14405446.75048  21755809.172    21755809.1474   21755820.0204
    189314.396 8    157441.15245  25518325.771    25518325.9094   25518354.2894
 -24738871.236 9 -19253730.63149  20768754.748    20768754.0314   20768764.0174
  -1216245.160 8   -931813.44145  24837450.615    24837450.4214   24837466.1224
 -24308790.384 9 -18918434.22049  20899743.297    20899742.6994   20899752.8884
  -9124232.413 9  -6634462.09946  23683552.981    23683552.3584   23683570.2484
  -6734650.320 9  -5237244.12846  23747211.608    23747210.7084   23747225.8834
 -25665289.088 9 -19981008.32448  21041063.916    21041063.6654   21041074.1324
 00  4 20  0  2  9.0000000  0  8 26 30 17  3 23 21 22  6            -0.000000027
 -18504801.573 9 -14405186.82048  21755872.641    21755872.6234   21755883.4804
    190868.568 8    158652.18945  25518621.529    25518621.6744   25518650.0514
 -24738949.359 9 -19253791.50349  20768739.874    20768739.1614   20768749.1474
  -1217974.674 8   -933161.11045  24837121.494    24837121.2894   24837137.0064
 -24309233.484 9 -18918779.49249  20899658.994    20899658.3984   20899668.5794
  -9125530.242 9  -6635473.38846  23683305.999    23683305.3794   23683323.2734
  -6734408.653 9  -5237055.81546  23747257.584    23747256.6864   23747271.8544
 -25664211.902 9 -19980168.95748  21041268.907    21041268.6634   21041279.1184
 00  4 20  0  2  9.0000000  0  8 26 30 17  3 23 21 22  6            -0.000000027
 -18504467.758 9 -14404926.70348  21755936.151    21755936.1294   21755946.9914
    192422.721 8    159863.21445  25518917.292    25518917.4394   25518945.8204
 -24739027.359 9 -19253852.28449  20768725.035    20768724.3214   20768734.3064
  -1219704.131 8   -934508.73745  24836792.395    24836792.1874   24836807.9064
 -24309676.433 9 -18919124.64649  20899574.705    20899574.1064   20899584.2874
  -9126827.981 9  -6636484.60746  23683059.060    23683058.4504   23683076.3414
  -6734166.806 9  -5236867.36346  23747303.605    23747302.7054   23747317.8734
 -25663134.570 9 -19979329.47748  21041473.916    21041473.6714   21041484.1344
 00  4 20  0  2 10.0000000  0  8 26 30 17  3 23 21 22  6            -0.000000027
 -18504133.791 9 -14404666.46248  21755999.713    21755999.6954   21756010.5574
    193976.753 8    161074.14445  25519213.004    25519213.1654   25519241.5254
 -24739105.326 9 -19253913.03649  20768710.194    20768709.4824   20768719.4824
  -1221433.583 8   -935856.36045  24836463.277    24836463.0744   24836478.7904
 -24310119.297 9 -18919469.73549  20899490.423    20899489.8244   20899500.0134
  -9128125.662 9  -6637495.78146  23682812.091    23682811.4814   23682829.3704
  -6733924.849 9  -5236678.82746  23747349.661    23747348.7634   23747363.9274
 -25662057.130 9 -19978489.91648  21041678.929    21041678.6794   21041689.1494
 00  4 20  0  2 10.0000000  0  8 26 30 17  3 23 21 22  6            -0.000000027
 -18503799.652 9 -14404406.09548  21756063.311    21756063.2914   21756074.1584
    195530.734 8    162285.03445  25519508.725    25519508.8904   25519537.2494
 -24739183.236 9 -19253973.74649  20768695.376    20768694.6724   20768704.6454
  -1223163.003 8   -937203.95745  24836134.175    24836133.9724   24836149.6914
 -24310562.047 9 -18919814.73449  20899406.175    20899405.5734   20899415.7604
  -9129423.297 9  -6638506.92246  23682565.167    23682564.5624   23682582.4484
  -6733682.765 9  -5236490.19146  23747395.701    23747394.8014   23747409.9664
 -25660979.560 9 -19977650.25548  21041883.983    21041883.7374   21041894.1974
 00  4 20  0  2 11.0000000  0  8 26 30 17  3 23 21 22  6            -0.000000027
 -18503465.328 9 -14404145.58148  21756126.925    21756126.9074   21756137.7824
    197084.648 8    163495.87045  25519804.436    25519804.6064   25519832.9624
 -24739261.082 9 -19254034.40549  20768680.562    20768679.8424   20768689.8404
  -1224892.408 8   -938551.54245  24835805.089    24835804.8804   24835820.6004
 -24311004.699 9 -18920159.65649  20899321.926    20899321.3314   20899331.5154
  -9130720.863 9  -6639518.00146  23682318.255    23682317.6534   23682335.5454
  -6733440.545 9  -5236301.44946  23747441.795    23747440.8894   23747456.0604
 -25659901.894 9 -19976810.51748  21042089.062    21042088.8154   21042099.2814
 00  4 20  0  2 11.0000000  0  8 26 30 17  3 23 21 22  6            -0.000000027
 -18503130.835 9 -14403884.93848  21756190.567    21756190.5534   21756201.4204
    198638.464 8    164706.62945  25520100.117    25520100.2914   25520128.6474
 -24739338.880 9 -19254095.02749  20768665.748    20768665.0334   20768675.0194
  -1226621.810 8   -939899.12545  24835475.995    24835475.7784   24835491.4944
 -24311447.245 9 -18920504.49549  20899237.733    20899237.1394   20899247.3134
  -9132018.394 9  -6640529.05646  23682071.337    23682070.7344   23682088.6284
  -6733198.195 9  -5236112.60946  23747487.917    23747487.0074   23747502.1844
 -25658824.112 9 -19975970.68848  21042294.152    21042293.9034   21042304.3774
 00  4 20  0  2 12.0000000  0  8 26 30 17  3 23 21 22  6            -0.000000027
 -18502796.185 9 -14403624.17348  21756254.254    21756254.2484   21756265.1084
    200192.204 8    165917.33145  25520395.788    25520395.9674   25520424.3224
 -24739416.626 9 -19254155.60849  20768650.948    20768650.2334   20768660.2234
  -1228351.198 8   -941246.69645  24835146.928    24835146.7064   24835162.4424
 -24311889.690 9 -18920849.25549  20899153.525    20899152.9284   20899163.1054
  -9133315.862 9  -6641540.06446  23681824.422    23681823.8254   23681841.7094
  -6732955.703 9  -5235923.65346  23747534.066    23747533.1554   23747548.3314
 -25657746.212 9 -19975130.76948  21042499.283    21042499.0314   21042509.5094
 00  4 20  0  2 12.0000000  0  8 26 30 17  3 23 21 22  6            -0.000000027
 -18502461.372 9 -14403363.27948  21756317.974    21756317.9744   21756328.8334
    201745.866 8    167127.97045  25520691.427    25520691.6024   25520719.9584
 -24739494.331 9 -19254216.15749  20768636.172    20768635.4534   20768645.4444
  -1230080.600 8   -942594.28445  24834817.824    24834817.5944   24834833.3354
 -24312332.049 9 -18921193.94949  20899069.333    20899068.7364   20899078.9204
  -9134613.300 9  -6642551.05246  23681577.523    23681576.9264   23681594.8154
  -6732713.128 9  -5235734.63346  23747580.230    23747579.3134   23747594.4914
 -25656668.227 9 -19974290.78148  21042704.403    21042704.1594   21042714.6274
 00  4 20  0  2 13.0000000  0  8 26 30 17  3 23 21 22  6            -0.000000027
 -18502126.304 9 -14403102.18548  21756381.721    21756381.7104   21756392.5844
    203299.553 8    168338.62845  25520987.090    25520987.2684   25521015.6304
 -24739571.898 9 -19254276.60049  20768621.405    20768620.6934   20768630.6904
  -1231809.883 8   -943941.77545  24834488.758    24834488.5124   24834504.2664
 -24312774.225 9 -18921538.50149  20898985.190    20898984.5944   20898994.7694
  -9135910.592 9  -6643561.92346  23681330.641    23681330.0474   23681347.9344
  -6732470.321 9  -5235545.43146  23747626.437    23747625.5214   23747640.6994
 -25655590.036 9 -19973450.63548  21042909.580    21042909.3274   21042919.8004
 00  4 20  0  2 13.0000000  0  8 26 30 17  3 23 21 22  6            -0.000000027
 -18501791.159 9 -14402841.03148  21756445.500    21756445.4864   21756456.3604
    204853.045 8    169549.13845  25521282.717    25521282.8934   25521311.2574
 -24739649.503 9 -19254337.07149  20768606.650    20768605.9334   20768615.9344
  -1233539.245 8   -945289.32845  24834159.683    24834159.4294   24834175.1824
 -24313216.376 9 -18921883.03249  20898901.054    20898900.4524   20898910.6344
  -9137207.923 9  -6644572.82946  23681083.755    23681083.1584   23681101.0404
  -6732227.484 9  -5235356.20946  23747672.656    23747671.7394   23747686.9094
 -25654511.819 9 -19972610.46748  21043114.769    21043114.5154   21043124.9964
 00  4 20  0  2 14.0000000  0  8 26 30 17  3 23 21 22  6            -0.000000026
 -18501455.716 9 -14402579.64648  21756509.339    21756509.3424   21756520.1994
    206406.585 8    170759.68545  25521578.349    25521578.5294   25521606.8924
 -24739726.940 9 -19254397.41149  20768591.891    20768591.1834   20768601.1814
  -1235268.521 8   -946636.81645  24833830.621    24833830.3574   24833846.1234
 -24313658.323 9 -18922227.40649  20898816.951    20898816.3514   20898826.5314
  -9138505.084 9  -6645583.60046  23680836.908    23680836.3094   23680854.1894
  -6731984.411 9  -5235166.80246  23747718.907    23747717.9874   23747733.1714
 -25653433.394 9 -19971770.13748  21043319.972    21043319.7234   21043330.1944
 00  4 20  0  2 14.0000000  0  8 26 30 17  3 23 21 22  6            -0.000000026
 -18501120.161 9 -14402318.17848  21756573.176    21756573.1684   21756584.0454
    207960.008 8    171970.13545  25521873.973    25521874.1544   25521902.5184
 -24739804.390 9 -19254457.76049  20768577.170    20768576.4544   20768586.4574
  -1236997.820 8   -947984.31945  24833501.530    24833501.2654   24833517.0264
 -24314100.227 9 -18922571.74749  20898732.867    20898732.2694   20898742.4514
  -9139802.252 9  -6646594.37546  23680590.068    23680589.4704   23680607.3464
  -6731741.262 9  -5234977.33646  23747765.174    23747764.2454   23747779.4274
 -25652354.911 9 -19970929.76248  21043525.203    21043524.9514   21043535.4294
 00  4 20  0  2 15.0000000  0  8 26 30 17  3 23 21 22  6            -0.000000026
 -18500784.485 9 -14402056.61248  21756637.057    21756637.0544   21756647.9174
    209513.329 8    173180.50845  25522169.549    25522169.7194   25522198.0974
 -24739881.832 9 -19254518.10249  20768562.421    20768561.7144   20768571.7054
  -1238727.150 8   -949331.84545  24833172.461    24833172.1934   24833187.9614
 -24314542.068 9 -18922916.03849  20898648.778    20898648.1774   20898658.3574
  -9141099.402 9  -6647605.13046  23680343.214    23680342.6214   23680360.4934
  -6731498.036 9  -5234787.80946  23747811.462    23747810.5334   23747825.7224
 -25651276.353 9 -19970089.32848  21043730.445    21043730.1894   21043740.6744
 00  4 20  0  2 15.0000000  0  8 26 30 17  3 23 21 22  6            -0.000000026
 -18500448.576 9 -14401794.86448  21756700.987    21756700.9794   21756711.8534
    211066.580 8    174390.82645  25522465.135    25522465.3144   25522493.6914
 -24739959.159 9 -19254578.35849  20768547.720    20768547.0144   20768557.0174
  -1240456.440 8   -950679.34145  24832843.392    24832843.1204   24832858.8844
 -24314983.758 9 -18923260.20949  20898564.740    20898564.1454   20898574.3204
  -9142396.456 9  -6648615.81746  23680096.396    23680095.8014   23680113.6754
  -6731254.623 9  -5234598.13846  23747857.789    23747856.8614   23747872.0414
 -25650197.652 9 -19969248.78048  21043935.734    21043935.4874   21043945.9664
 00  4 20  0  2 16.0000000  0  8 26 30 17  3 23 21 22  6            -0.000000026
 -18500112.497 9 -14401532.98348  21756764.931    21756764.9254   21756775.8004
    212619.807 8    175601.12945  25522760.698    25522760.8604   25522789.2594
 -24740036.429 9 -19254638.56749  20768532.991    20768532.2844   20768542.2804
  -1242185.674 8   -952026.79545  24832514.323    24832514.0484   24832529.8184
 -24315425.337 9 -18923604.29649  20898480.699    20898480.1034   20898490.2824
  -9143693.451 9  -6649626.45446  23679849.591    23679849.0024   23679866.8654
  -6731011.085 9  -5234408.36646  23747904.146    23747903.2094   23747918.4044
 -25649118.823 9 -19968408.13548  21044141.017    21044140.7744   21044151.2494
 00  4 20  0  2 16.0000000  0  8 26 30 17  3 23 21 22  6            -0.000000026
 -18499776.231 9 -14401270.95648  21756828.923    21756828.9114   21756839.7864
    214173.003 8    176811.41045  25523056.280    25523056.4464   25523084.8394
 -24740113.622 9 -19254698.71849  20768518.305    20768517.5954   20768527.5934
  -1243914.887 8   -953374.23345  24832185.296    24832185.0264   24832200.7894
 -24315866.782 9 -18923948.27849  20898396.698    20898396.1014   20898406.2764
  -9144990.357 9  -6650637.02546  23679602.788    23679602.2034   23679620.0654
  -6730767.393 9  -5234218.47446  23747950.492    23747949.5574   23747964.7514
 -25648039.849 9 -19967567.37848  21044346.346    21044346.1024   21044356.5724
 00  4 20  0  2 17.0000000  0  8 26 30 17  3 23 21 22  6            -0.000000026
 -18499439.736 9 -14401008.75448  21756892.944    21756892.9464   21756903.8094
    215726.080 8    178021.59345  25523351.801    25523351.9624   25523380.3724
 -24740190.733 9 -19254758.80649  20768503.642    20768502.9354   20768512.9274
  -1245644.072 8   -954721.64545  24831856.230    24831855.9644   24831871.7304
 -24316308.102 9 -18924292.16449  20898312.715    20898312.1304   20898322.2964
  -9146287.176 9  -6651647.52646  23679356.008    23679355.4234   23679373.2864
  -6730523.535 9  -5234028.45746  23747996.905    23747995.9744   23748011.1634
 -25646960.742 9 -19966726.51748  21044551.690    21044551.4404   21044561.9244
 00  4 20  0  2 17.0000000  0  8 26 30 17  3 23 21 22  6            -0.000000026
 -18499103.108 9 -14400746.45048  21756957.007    21756957.0024   21756967.8624
    217279.106 8    179231.73945  25523647.358    25523647.5074   25523675.9304
 -24740267.822 9 -19254818.87449  20768488.964    20768488.2554   20768498.2514
  -1247373.252 8   -956069.05445  24831527.194    24831526.9224   24831542.6974
 -24316749.356 9 -18924635.99749  20898228.746    20898228.1484   20898238.3284
  -9147583.992 9  -6652658.02646  23679109.206    23679108.6344   23679126.4754
  -6730279.584 9  -5233838.36746  23748043.325    23748042.3924   23748057.5804
 -25645881.557 9 -19965885.59548  21044757.059    21044756.8184   21044767.2854
 00  4 20  0  2 18.0000000  0  8 26 30 17  3 23 21 22  6            -0.000000026
 -18498766.321 9 -14400484.01648  21757021.099    21757021.0984   21757031.9564
    218832.025 8    180441.80345  25523942.851    25523942.9924   25523971.4064
 -24740344.880 9 -19254878.91849  20768474.317    20768473.6154   20768483.5984
  -1249102.430 8   -957416.46545  24831198.121    24831197.8404   24831213.6244
 -24317190.517 9 -18924979.75649  20898144.798    20898144.1964   20898154.3724
  -9148880.759 9  -6653668.48546  23678862.448    23678861.8854   23678879.7204
  -6730035.526 9  -5233648.19546  23748089.791    23748088.8604   23748104.0414
 -25644802.266 9 -19965044.59248  21044962.433    21044962.1864   21044972.6634
 00  4 20  0  2 18.0000000  0  8 26 30 17  3 23 21 22  6            -0.000000026
 -18498429.290 9 -14400221.39948  21757085.239    21757085.2434   21757096.1074
    220384.940 8    181651.86145  25524238.363    25524238.4984   25524266.9074
 -24740421.815 9 -19254938.86749  20768459.656    20768458.9454   20768468.9424
  -1250831.550 8   -958763.82845  24830869.100    24830868.8174   24830884.6014
 -24317631.518 9 -18925323.39349  20898060.878    20898060.2844   20898070.4564
  -9150177.406 9  -6654678.85246  23678615.692    23678615.1354   23678632.9674
  -6729791.270 9  -5233457.86746  23748136.259    23748135.3284   23748150.5074
 -25643722.815 9 -19964203.46348  21045167.845    21045167.5944   21045178.0734
 00  4 20  0  2 19.0000000  0  8 26 30 17  3 23 21 22  6            -0.000000026
 -18498092.128 9 -14399958.67448  21757149.386    21757149.3894   21757160.2544
    221937.745 8    182861.83545  25524533.855    25524533.9834   25524562.3954
 -24740498.746 9 -19254998.81349  20768445.018    20768444.3054   20768454.3044
  -1252560.699 8   -960111.21645  24830540.044    24830539.7654   24830555.5414
 -24318072.462 9 -18925666.98449  20897976.972    20897976.3724   20897986.5544
  -9151474.052 9  -6655689.21946  23678368.964    23678368.4074   23678386.2314
  -6729546.939 9  -5233267.47546  23748182.766    23748181.8264   23748197.0094
 -25642643.290 9 -19963362.27548  21045373.258    21045373.0024   21045383.4934
 00  4 20  0  2 19.0000000  0  8 26 30 17  3 23 21 22  6            -0.000000026
 -18497754.801 9 -14399695.82348  21757213.575    21757213.5844   21757224.4354
    223490.500 8    184071.77145  25524829.334    25524829.4594   25524857.8684
 -24740575.633 9 -19255058.72349  20768430.397    20768429.6854   20768439.6814
  -1254289.836 8   -961458.59145  24830211.011    24830210.7334   24830226.4974
 -24318513.304 9 -18926010.49549  20897893.091    20897892.4904   20897902.6634
  -9152770.650 9  -6656699.54846  23678122.214    23678121.6584   23678139.4874
  -6729302.484 9  -5233076.99546  23748229.263    23748228.3244   23748243.5154
 -25641563.659 9 -19962521.00348  21045578.710    21045578.4594   21045588.9464
 00  4 20  0  2 20.0000000  0  8 26 30 17  3 23 21 22  6            -0.000000026
 -18497417.280 9 -14399432.81748  21757277.801    21757277.8004   21757288.6684
    225043.157 8    185281.62645  25525124.798    25525124.9144   25525153.3294
 -24740652.434 9 -19255118.56949  20768415.783    20768415.0754   20768425.0674
  -1256018.934 8   -962805.94045  24829881.954    24829881.6804   24829897.4374
 -24318954.027 9 -18926353.91549  20897809.203    20897808.6084   20897818.7804
  -9154067.175 9  -6657709.82146  23677875.498    23677874.9494   23677892.7714
  -6729057.873 9  -5232886.38846  23748275.804    23748274.8714   23748290.0554
 -25640483.903 9 -19961679.63948  21045784.172    21045783.9274   21045794.4054
 00  4 20  0  2 20.0000000  0  8 26 30 17  3 23 21 22  6            -0.000000026
 -18497079.599 9 -14399169.68848  21757342.065    21757342.0664   21757352.9434
    226595.709 8    186491.40445  25525420.256    25525420.3704   25525448.7934
 -24740729.194 9 -19255178.38149  20768401.186    20768400.4764   20768410.4714
  -1257748.025 8   -964153.28145  24829552.929    24829552.6584   24829568.4124
 -24319394.655 9 -18926697.26049  20897725.366    20897724.7664   20897734.9424
  -9155363.643 9  -6658720.05246  23677628.776    23677628.2294   23677646.0414
  -6728813.158 9  -5232695.70146  23748322.372    23748321.4394   23748336.6294
 -25639404.035 9 -19960838.18348  21045989.670    21045989.4254   21045999.9064
 00  4 20  0  2 21.0000000  0  8 26 30 17  3 23 21 22  6            -0.000000025
 -18496741.688 9 -14398906.37848  21757406.352    21757406.3514   21757417.2244
    228148.315 8    187701.22145  25525715.709    25525715.8154   25525744.2304
 -24740805.855 9 -19255238.11749  20768386.574    20768385.8764   20768395.8584
  -1259477.074 8   -965500.59345  24829223.891    24829223.6264   24829239.3594
 -24319835.130 9 -18927040.48649  20897641.535    20897640.9344   20897651.1064
  -9156660.002 9  -6659730.19746  23677382.080    23677381.5404   23677399.3444
  -6728568.253 9  -5232504.86446  23748369.004    23748368.0674   23748383.2504
 -25638323.999 9 -19959996.59848  21046195.216    21046194.9724   21046205.4544
 00  4 20  0  2 21.0000000  0  8 26 30 17  3 23 21 22  6            -0.000000025
 -18496403.655 9 -14398642.97448  21757470.701    21757470.6974   21757481.5714
    229700.729 8    188910.89145  25526011.135    25526011.2314   25526039.6684
 -24740882.518 9 -19255297.85249  20768372.001    20768371.2964   20768381.2894
  -1261206.146 8   -966847.91845  24828894.861    24828894.5934   24828910.3324
 -24320275.573 9 -18927383.68649  20897557.719    20897557.1224   20897567.2944
  -9157956.373 9  -6660740.34946  23677135.389    23677134.8514   23677152.6554
  -6728323.293 9  -5232313.98646  23748415.596    23748414.6554   23748429.8384
 -25637243.929 9 -19959154.98848  21046400.732    21046400.4904   21046410.9724
 00  4 20  0  2 22.0000000  0  8 26 30 17  3 23 21 22  6            -0.000000025
 -18496065.424 9 -14398379.41848  21757535.053    21757535.0524   21757545.9204
    231253.119 8    190120.54145  25526306.545    25526306.6454   25526335.0774
 -24740959.093 9 -19255357.52349  20768357.414    20768356.7064   20768366.7034
  -1262935.175 8   -968195.21345  24828565.863    24828565.6014   24828581.3244
 -24320715.877 9 -18927726.78049  20897473.945    20897473.3404   20897483.5224
  -9159252.657 9  -6661750.43446  23676888.706    23676888.1624   23676905.9674
  -6728078.160 9  -5232122.98046  23748462.265    23748461.3324   23748476.5204
 -25636163.704 9 -19958313.25848  21046606.282    21046606.0384   21046616.5244
 00  4 20  0  2 22.0000000  0  8 26 30 17  3 23 21 22  6            -0.000000025
 -18495727.065 9 -14398115.76048  21757599.439    21757599.4374   21757610.3064
    232805.437 8    191330.13645  25526601.941    25526602.0414   25526630.4724
 -24741035.666 9 -19255417.18849  20768342.839    20768342.1264   20768352.1264
  -1264664.283 8   -969542.56845  24828236.819    24828236.5594   24828252.2804
 -24321156.124 9 -18928069.82849  20897390.172    20897389.5684   20897399.7444
  -9160548.930 9  -6662760.51146  23676642.015    23676641.4734   23676659.2814
  -6727832.945 9  -5231931.90546  23748508.926    23748508.0004   23748523.1744
 -25635083.409 9 -19957471.46848  21046811.867    21046811.6254   21046822.1034
 00  4 20  0  2 23.0000000  0  8 26 30 17  3 23 21 22  6            -0.000000025
 -18495388.462 9 -14397851.91648  21757663.862    21757663.8634   21757674.7334
    234357.677 8    192539.67145  25526897.307    25526897.4064   25526925.8394
 -24741112.111 9 -19255476.75849  20768328.316    20768327.6064   20768337.6164
  -1266393.263 8   -970889.82145  24827907.816    24827907.5674   24827923.2694
 -24321596.215 9 -18928412.75649  20897306.432    20897305.8364   20897316.0084
  -9161845.089 9  -6663770.50146  23676395.366    23676394.8244   23676412.6264
  -6727587.539 9  -5231740.68146  23748555.604    23748554.6774   23748569.8574
 -25634002.951 9 -19956629.55548  21047017.466    21047017.2234   21047027.7074
 00  4 20  0  2 23.0000000  0  8 26 30 17  3 23 21 22  6            -0.000000025
 -18495049.657 9 -14397587.91348  21757728.337    21757728.3484   21757739.2174
    235909.916 8    193749.20645  25527192.698    25527192.8024   25527221.2274
 -24741188.481 9 -19255536.26649  20768313.757    20768313.0464   20768323.0404
  -1268122.208 8   -972237.04945  24827578.805    24827578.5554   24827594.2714
 -24322036.174 9 -18928755.58149  20897222.687    20897222.0844   20897232.2634
  -9163141.169 9  -6664780.42946  23676148.715    23676148.1754   23676165.9764
  -6727341.984 9  -5231549.33846  23748602.331    23748601.4054   23748616.5914
 -25632922.347 9 -19955787.52548  21047223.108    21047222.8614   21047233.3484
 00  4 20  0  2 24.0000000  0  8 26 30 17  3 23 21 22  6            -0.000000025
 -18494710.709 9 -14397323.79748  21757792.830    21757792.8244   21757803.7014
    237462.052 8    194958.65745  25527488.059    25527488.1674   25527516.5894
 -24741264.824 9 -19255595.75349  20768299.250    20768298.5364   20768308.5404
  -1269851.205 8   -973584.31645  24827249.774    24827249.5224   24827265.2384
 -24322476.057 9 -18929098.34549  20897138.987    20897138.3824   20897148.5584
  -9164437.213 9  -6665790.32246  23675902.095    23675901.5464   23675919.3474
  -6727096.319 9  -5231357.91446  23748649.088    23748648.1634   23748663.3484
 -25631841.650 9 -19954945.42348  21047428.764    21047428.5184   21047439.0044
 00  4 20  0  2 24.0000000  0  8 26 30 17  3 23 21 22  6            -0.000000025
 -18494371.595 9 -14397059.54948  21757857.368    21757857.3694   21757868.2494
    239014.078 8    196168.02445  25527783.404    25527783.5134   25527811.9394
 -24741341.123 9 -19255655.20549  20768284.735    20768284.0264   20768294.0184
  -1271580.153 8   -974931.54545  24826920.773    24826920.5304   24826936.2364
 -24322915.864 9 -18929441.04949  20897055.302    20897054.7004   20897064.8814
  -9165733.221 9  -6666800.19246  23675655.466    23675654.9164   23675672.7204
  -6726850.537 9  -5231166.39546  23748695.877    23748694.9504   23748710.1344
 -25630760.861 9 -19954103.25148  21047634.424    21047634.1864   21047644.6634
 00  4 20  0  2 25.0000000  0  8 26 30 17  3 23 21 22  6            -0.000000025
 -18494032.290 9 -14396795.15748  21757921.940    21757921.9344   21757932.8204
    240566.092 8    197377.38445  25528078.759    25528078.8494   25528107.2874
 -24741417.347 9 -19255714.60249  20768270.218    20768269.5064   20768279.5024
  -1273309.090 8   -976278.76845  24826591.780    24826591.5384   24826607.2424
 -24323355.547 9 -18929783.65949  20896971.642    20896971.0384   20896981.2164
  -9167029.160 9  -6667810.00846  23675408.839    23675408.2874   23675426.0894
  -6726604.614 9  -5230974.77246  23748742.662    23748741.7374   23748756.9144
 -25629679.934 9 -19953260.97348  21047840.115    21047839.8744   21047850.3624
 00  4 20  0  2 25.0000000  0  8 26 30 17  3 23 21 22  6            -0.000000024
 -18493692.831 9 -14396530.64348  21757986.551    21757986.5504   21757997.4184
    242117.977 8    198586.64345  25528374.079    25528374.1844   25528402.6084
 -24741493.535 9 -19255773.96949  20768255.710    20768254.9964   20768264.9954
  -1275038.052 8   -977626.01045  24826262.772    24826262.5364   24826278.2404
 -24323795.139 9 -18930126.19649  20896887.984    20896887.3864   20896897.5624
  -9168325.057 9  -6668819.79146  23675162.253    23675161.6984   23675179.5094
  -6726358.556 9  -5230783.03946  23748789.496    23748788.5754   23748803.7434
 -25628598.899 9 -19952418.60948  21048045.841    21048045.6014   21048056.0834
 00  4 20  0  2 26.0000000  0  8 26 30 17  3 23 21 22  6            -0.000000024
 -18493353.199 9 -14396265.99248  21758051.174    21758051.1654   21758062.0564
    243669.822 8    199795.87045  25528669.388    25528669.4904   25528697.9144
 -24741569.668 9 -19255833.29449  20768241.224    20768240.5164   20768250.5084
  -1276766.987 8   -978973.22845  24825933.770    24825933.5334   24825949.2334
 -24324234.653 9 -18930468.67449  20896804.348    20896803.7444   20896813.9254
  -9169620.912 9  -6669829.54346  23674915.643    23674915.0784   23674932.8944
  -6726112.391 9  -5230591.22346  23748836.321    23748835.4034   23748850.5674
 -25627517.767 9 -19951576.17048  21048251.558    21048251.3194   21048261.8034
 00  4 20  0  2 26.0000000  0  8 26 30 17  3 23 21 22  6            -0.000000024
 -18493013.323 9 -14396001.15748  21758115.839    21758115.8304   21758126.7104
    245221.647 8    201005.08245  25528964.676    25528964.7754   25528993.2054
 -24741645.685 9 -19255892.52749  20768226.775    20768226.0664   20768236.0614
  -1278495.839 8   -980320.38545  24825604.767    24825604.5414   24825620.2394
 -24324673.995 9 -18930811.01749  20896720.741    20896720.1424   20896730.3134
  -9170916.653 9  -6670839.20346  23674669.076    23674668.5084   23674686.3244
  -6725866.014 9  -5230399.24246  23748883.222    23748882.3114   23748897.4684
 -25626436.451 9 -19950733.58748  21048457.340    21048457.0864   21048467.5864
 00  4 20  0  2 27.0000000  0  8 26 30 17  3 23 21 22  6            -0.000000024
 -18492673.418 9 -14395736.29448  21758180.528    21758180.5354   21758191.4034
    246773.277 8    202214.14045  25529259.941    25529260.0314   25529288.4694
 -24741721.788 9 -19255951.82849  20768212.283    20768211.5764   20768221.5724
  -1280224.801 8   -981667.62345  24825275.768    24825275.5494   24825291.2284
 -24325113.367 9 -18931153.38349  20896637.136    20896636.5404   20896646.7094
  -9172212.466 9  -6671848.92146  23674422.474    23674421.9094   23674439.7244
  -6725619.652 9  -5230207.27046  23748930.112    23748929.1984   23748944.3644
 -25625355.153 9 -19949891.01848  21048663.113    21048662.8644   21048673.3574
 00  4 20  0  2 27.0000000  0  8 26 30 17  3 23 21 22  6            -0.000000024
 -18492333.255 9 -14395471.22948  21758245.264    21758245.2704   21758256.1394
    248324.878 8    203423.17945  25529555.218    25529555.3064   25529583.7524
 -24741797.758 9 -19256011.02549  20768197.840    20768197.1264   20768207.1294
  -1281953.711 8   -983014.82445  24824946.744    24824946.5364   24824962.2044
 -24325552.578 9 -18931495.62449  20896553.526    20896552.9284   20896563.0944
  -9173508.167 9  -6672858.55446  23674175.926    23674175.3604   23674193.1644
  -6725373.088 9  -5230015.14146  23748977.013    23748976.1064   23748991.2574
 -25624273.675 9 -19949048.30848  21048868.907    21048868.6614   21048879.1514
 00  4 20  0  2 28.0000000  0  8 26 30 17  3 23 21 22  6            -0.000000024
 -18491992.887 9 -14395206.00748  21758310.023    21758310.0154   21758320.8964
    249876.448 8    204632.19345  25529850.484    25529850.5724   25529879.0114
 -24741873.638 9 -19256070.15049  20768183.383    20768182.6864   20768192.6674
  -1283682.553 8   -984361.97045  24824617.769    24824617.5644   24824633.2424
 -24325991.646 9 -18931837.75349  20896470.002    20896469.4054   20896479.5764
  -9174803.769 9  -6673868.11046  23673929.369    23673928.8114   23673946.6024
  -6725126.344 9  -5229822.87346  23749023.985    23749023.0734   23749038.2344
 -25623192.038 9 -19948205.47648  21049074.721    21049074.4794   21049084.9714
 00  4 20  0  2 28.0000000  0  8 26 30 17  3 23 21 22  6            -0.000000023
 -18491652.376 9 -14394940.67148  21758374.837    21758374.8314   21758385.7054
    251427.957 8    205841.15845  25530145.725    25530145.8084   25530174.2494
 -24741949.495 9 -19256129.26049  20768168.947    20768168.2364   20768178.2314
  -1285411.390 8   -985709.11345  24824288.793    24824288.6024   24824304.2674
 -24326430.639 9 -18932179.82549  20896386.456    20896385.8534   20896396.0284
  -9176099.336 9  -6674877.64146  23673682.824    23673682.2614   23673700.0624
  -6724879.503 9  -5229630.53146  23749070.934    23749070.0214   23749085.1844
 -25622110.308 9 -19947362.57248  21049280.574    21049280.3264   21049290.8214
 00  4 20  0  2 29.0000000  0  8 26 30 17  3 23 21 22  6            -0.000000023
 -18491311.669 9 -14394675.18648  21758439.655    21758439.6564   21758450.5234
    252979.361 8    207050.04345  25530440.957    25530441.0434   25530469.4734
 -24742025.284 9 -19256188.31649  20768154.519    20768153.8064   20768163.8084
  -1287140.228 8   -987056.25745  24823959.778    24823959.6004   24823975.2494
 -24326869.532 9 -18932521.82149  20896302.920    20896302.3214   20896312.4874
  -9177394.855 9  -6675887.12846  23673436.289    23673435.7224   23673453.5264
  -6724632.518 9  -5229438.07346  23749117.963    23749117.0494   23749132.2114
 -25621028.472 9 -19946519.58548  21049486.431    21049486.1844   21049496.6714
 00  4 20  0  2 29.0000000  0  8 26 30 17  3 23 21 22  6            -0.000000023
 -18490970.707 9 -14394409.50448  21758504.538    21758504.5314   21758515.4154
    254530.791 8    208258.94645  25530736.189    25530736.2684   25530764.6984
 -24742100.953 9 -19256247.28049  20768140.117    20768139.4064   20768149.4034
  -1288868.960 8   -988403.31645  24823630.824    24823630.6574   24823646.2974
 -24327308.249 9 -18932863.67749  20896219.443    20896218.8394   20896229.0114
  -9178690.243 9  -6676896.51646  23673189.792    23673189.2234   23673207.0384
  -6724385.322 9  -5229245.45446  23749164.983    23749164.0664   23749179.2214
 -25619946.439 9 -19945676.44448  21049692.348    21049692.1014   21049702.5904
 00  4 20  0  2 30.0000000  0  8 26 30 17  3 23 21 22  6            -0.000000023
 -18490629.690 9 -14394143.77648  21758569.431    21758569.4364   21758580.3064
    256082.036 8    209467.70445  25531031.387    25531031.4744   25531059.8844
 -24742176.677 9 -19256306.28449  20768125.703    20768124.9964   20768134.9844
  -1290597.788 8   -989750.45245  24823301.825    24823301.6654   24823317.2964
 -24327746.973 9 -18933205.54049  20896135.965    20896135.3674   20896145.5354
  -9179985.684 9  -6677905.94746  23672943.266    23672942.6944   23672960.5074
  -6724138.116 9  -5229052.82846  23749212.037    23749211.1234   23749226.2734
 -25618864.396 9 -19944833.29448  21049898.267    21049898.0194   21049908.5134
 00  4 20  0  2 30.0000000  0  8 26 30 17  3 23 21 22  6            -0.000000023
 -18490288.444 9 -14393877.87047  21758634.377    21758634.3714   21758645.2564
    257633.242 8    210676.43645  25531326.565    25531326.6504   25531355.0624
 -24742252.302 9 -19256365.21449  20768111.331    20768110.6264   20768120.6154
  -1292326.563 8   -991097.54745  24822972.861    24822972.7134   24822988.3324
 -24328185.562 9 -18933547.29649  20896052.496    20896051.8944   20896062.0684
  -9181281.044 9  -6678915.31446  23672696.770    23672696.2044   23672714.0204
  -6723890.730 9  -5228860.06046  23749259.092    23749258.1814   23749273.3294
 -25617782.203 9 -19943990.02848  21050104.194    21050103.9464   21050114.4444
 00  4 20  0  2 31.0000000  0  8 26 30 17  3 23 21 22  6            -0.000000022
 -18489946.984 9 -14393611.79647  21758699.353    21758699.3464   21758710.2374
    259184.451 8    211885.16745  25531621.752    25531621.8364   25531650.2374
 -24742327.822 9 -19256424.06049  20768096.957    20768096.2464   20768106.2464
  -1294055.273 8   -992444.59345  24822643.917    24822643.7804   24822659.3824
 -24328623.992 9 -18933888.92849  20895969.076    20895968.4724   20895978.6424
  -9182576.284 9  -6679924.58246  23672450.284    23672449.7154   23672467.5404
  -6723643.157 9  -5228667.14846  23749306.231    23749305.3184   23749320.4644
 -25616699.834 9 -19943146.62648  21050310.158    21050309.9144   21050320.4004
 00  4 20  0  2 31.0000000  0  8 26 30 17  3 23 21 22  6            -0.000000022
 -18489605.457 9 -14393345.67047  21758764.329    21758764.3314   21758775.2094
    260735.482 8    213093.76145  25531916.911    25531916.9914   25531945.3944
 -24742403.396 9 -19256482.94749  20768082.563    20768081.8564   20768091.8464
  -1295784.065 8   -993791.70145  24822314.916    24822314.7884   24822330.3904
 -24329062.418 9 -18934230.55649  20895885.648    20895885.0504   20895895.2114
  -9183871.580 9  -6680933.89546  23672203.813    23672203.2454   23672221.0714
  -6723395.550 9  -5228474.20746  23749353.333    23749352.4254   23749367.5664
 -25615617.456 9 -19942303.21448  21050516.132    21050515.8814   21050526.3794
 00  4 20  0  2 32.0000000  0  8 26 30 17  3 23 21 22  6            -0.000000022
 -18489263.609 9 -14393079.29547  21758829.390    21758829.3864   21758840.2724
    262286.553 8    214302.38545  25532212.082    25532212.1674   25532240.5544
 -24742478.790 9 -19256541.69549  20768068.230    20768067.5264   20768077.5144
  -1297512.718 8   -995138.70345  24821985.970    24821985.8564   24822001.4434
 -24329500.630 9 -18934572.02049  20895802.239    20895801.6484   20895811.8014
  -9185166.695 9  -6681943.06546  23671957.353    23671956.7864   23671974.6114
  -6723147.685 9  -5228281.06746  23749400.502    23749399.5834   23749414.7444
 -25614534.835 9 -19941459.61348  21050722.151    21050721.9084   21050732.3984
 00  4 20  0  2 32.0000000  0  8 26 30 17  3 23 21 22  6            -0.000000022
 -18488921.650 9 -14392812.83447  21758894.463    21758894.4614   21758905.3394
    263837.535 8    215510.94145  25532507.210    25532507.2934   25532535.6724
 -24742554.189 9 -19256600.44849  20768053.879    20768053.1764   20768063.1644
  -1299241.415 8   -996485.73945  24821657.010    24821656.9044   24821672.4884
 -24329938.797 9 -18934913.44749  20895718.858    20895718.2554   20895728.4234
  -9186461.828 9  -6682952.25846  23671710.891    23671710.3174   23671728.1454
  -6722899.736 9  -5228087.85946  23749447.680    23749446.7604   23749461.9124
 -25613452.157 9 -19940615.96848  21050928.169    21050927.9264   21050938.4224
 00  4 20  0  2 33.0000000  0  8 26 30 17  3 23 21 22  6            -0.000000022
 -18488579.524 9 -14392546.24047  21758959.586    21758959.5864   21758970.4634
    265388.406 8    216719.41545  25532802.333    25532802.4084   25532830.7944
 -24742629.540 9 -19256659.16149  20768039.529    20768038.8264   20768048.8174
  -1300970.090 8   -997832.75645  24821328.050    24821327.9524   24821343.5234
 -24330376.858 9 -18935254.79349  20895635.511    20895634.9134   20895645.0734
  -9187756.888 9  -6683961.39046  23671464.437    23671463.8574   23671481.6934
  -6722651.677 9  -5227894.56446  23749494.899    23749493.9874   23749509.1404
 -25612369.358 9 -19939772.23348  21051134.237    21051133.9934   21051144.4844
 00  4 20  0  2 33.0000000  0  8 26 30 17  3 23 21 22  6            -0.000000021
 -18488237.133 9 -14392279.44247  21759024.723    21759024.7214   21759035.5994
    266939.309 8    217927.90945  25533097.461    25533097.5444   25533125.9074
 -24742704.751 9 -19256717.76749  20768025.227    20768024.5164   20768034.5144
  -1302698.660 8   -999179.69145  24820999.137    24820999.0404   24821014.6044
 -24330814.741 9 -18935595.99949  20895552.175    20895551.5814   20895561.7434
  -9189051.814 9  -6684970.41646  23671218.014    23671217.4384   23671235.2714
  -6722403.374 9  -5227701.08146  23749542.160    23749541.2444   23749556.4064
 -25611286.363 9 -19938928.34148  21051340.301    21051340.0504   21051350.5484
 00  4 20  0  2 34.0000000  0  8 26 30 17  3 23 21 22  6            -0.000000021
 -18487894.622 9 -14392012.55347  21759089.899    21759089.8954   21759100.7804
    268490.075 8    219136.29645  25533392.582    25533392.6604   25533421.0204
 -24742779.972 9 -19256776.38049  20768010.897    20768010.1864   20768020.1814
  -1304427.289 8  -1000526.67245  24820670.172    24820670.0774   24820685.6284
 -24331252.575 9 -18935937.16849  20895468.843    20895468.2484   20895478.4054
  -9190346.745 9  -6685979.44646  23670971.589    23670971.0094   23670988.8394
  -6722155.012 9  -5227507.55446  23749589.407    23749588.4924   23749603.6504
 -25610203.306 9 -19938084.40248  21051546.424    21051546.1784   21051556.6734
 00  4 20  0  2 34.0000000  0  8 26 30 17  3 23 21 22  6            -0.000000021
 -18487552.047 9 -14391745.61047  21759155.086    21759155.0804   21759165.9604
    270040.666 8    220344.54745  25533687.651    25533687.7354   25533716.0894
 -24742855.244 9 -19256835.03549  20767996.598    20767995.8864   20768005.8834
  -1306155.999 8  -1001873.71745  24820341.225    24820341.1254   24820356.6884
 -24331690.411 9 -18936278.33549  20895385.537    20895384.9364   20895395.0984
  -9191641.725 9  -6686988.51546  23670725.174    23670724.5894   23670742.4304
  -6721906.607 9  -5227313.99046  23749636.668    23749635.7594   23749650.9104
 -25609120.233 9 -19937240.45048  21051752.513    21051752.2654   21051762.7634
 00  4 20  0  2 35.0000000  0  8 26 30 17  3 23 21 22  6            -0.000000021
 -18487209.233 9 -14391478.48147  21759220.321    21759220.3054   21759231.2004
    271591.257 8    221552.79645  25533982.707    25533982.7914   25534011.1324
 -24742930.411 9 -19256893.60449  20767982.272    20767981.5664   20767991.5574
  -1307884.616 8  -1003220.68845  24820012.269    24820012.1734   24820027.7314
 -24332128.087 9 -18936619.38049  20895302.249    20895301.6544   20895311.8144
  -9192936.606 9  -6687997.50546  23670478.761    23670478.1804   23670496.0134
  -6721658.019 9  -5227120.28446  23749683.981    23749683.0664   23749698.2134
 -25608036.992 9 -19936396.36548  21051958.638    21051958.3924   21051968.8824
 00  4 20  0  2 35.0000000  0  8 26 30 17  3 23 21 22  6            -0.000000020
 -18486866.330 9 -14391211.28547  21759285.595    21759285.5904   21759296.4614
    273141.684 8    222760.92045  25534277.763    25534277.8474   25534306.1814
 -24743005.614 9 -19256952.20349  20767967.958    20767967.2464   20767977.2384
  -1309613.330 8  -1004567.73545  24819683.310    24819683.2204   24819698.7684
 -24332565.750 9 -18936960.41549  20895218.964    20895218.3614   20895228.5264
  -9194231.511 9  -6689006.51546  23670232.341    23670231.7514   23670249.5884
  -6721409.378 9  -5226926.53746  23749731.317    23749730.4144   23749745.5484
 -25606953.723 9 -19935552.26048  21052164.805    21052164.5604   21052175.0484
 00  4 20  0  2 36.0000000  0  8 26 30 17  3 23 21 22  6            -0.000000020
 -18486523.177 9 -14390943.89347  21759350.873    21759350.8654   21759361.7354
    274692.117 8    223969.05045  25534572.795    25534572.8834   25534601.1954
 -24743080.690 9 -19257010.70349  20767953.673    20767952.9654   20767962.9544
  -1311341.938 8  -1005914.69945  24819354.381    24819354.2984   24819369.8344
 -24333003.228 9 -18937301.30449  20895135.702    20895135.0994   20895145.2574
  -9195526.291 9  -6690015.43146  23669985.955    23669985.3614   23670003.2044
  -6721160.541 9  -5226732.63546  23749778.651    23749777.7314   23749792.8854
 -25605870.258 9 -19934708.00548  21052370.957    21052370.7074   21052381.2024
 00  4 20  0  2 36.0000000  0  8 26 30 17  3 23 21 22  6            -0.000000020
 -18486179.829 9 -14390676.34647  21759416.223    21759416.2204   21759427.0854
    276242.497 8    225177.13645  25534867.835    25534867.9184   25534896.2354
 -24743155.705 9 -19257069.15749  20767939.412    20767938.7054   20767948.7004
  -1313070.533 8  -1007261.65545  24819025.438    24819025.3564   24819040.8894
 -24333440.598 9 -18937642.11349  20895052.497    20895051.8974   20895062.0554
  -9196821.012 9  -6691024.29846  23669739.557    23669738.9624   23669756.8004
  -6720911.542 9  -5226538.61246  23749826.026    23749825.1184   23749840.2674
 -25604786.666 9 -19933863.64848  21052577.163    21052576.9144   21052587.4024
 00  4 20  0  2 37.0000000  0  8 26 30 17  3 23 21 22  6            -0.000000020
 -18485836.274 9 -14390408.64547  21759481.606    21759481.5944   21759492.4664
    277792.829 8    226385.18345  25535162.852    25535162.9344   25535191.2384
 -24743230.630 9 -19257127.54049  20767925.134    20767924.4254   20767934.4264
  -1314799.043 8  -1008608.54445  24818696.511    24818696.4344   24818711.9744
 -24333877.823 9 -18937982.80649  20894969.293    20894968.6944   20894978.8474
  -9198115.644 9  -6692033.10046  23669493.193    23669492.5924   23669510.4354
  -6720662.388 9  -5226344.46946  23749873.440    23749872.5254   23749887.6804
 -25603702.915 9 -19933019.17048  21052783.419    21052783.1714   21052793.6614
 00  4 20  0  2 37.0000000  0  8 26 30 17  3 23 21 22  6            -0.000000019
 -18485492.548 9 -14390140.80647  21759547.023    21759547.0094   21759557.8754
    279343.102 8    227593.18745  25535457.855    25535457.9404   25535486.2244
 -24743305.513 9 -19257185.89149  20767910.901    20767910.1954   20767920.1824
  -1316527.552 8  -1009955.43145  24818367.589    24818367.5114   24818383.0524
 -24334314.947 9 -18938323.42249  20894886.108    20894885.5124   20894895.6704
  -9199410.219 9  -6693041.85546  23669246.857    23669246.2534   23669264.1064
  -6720413.094 9  -5226150.21646  23749920.894    23749919.9734   23749935.1204
 -25602619.047 9 -19932174.60048  21052989.672    21052989.4194   21052999.9134
 00  4 20  0  2 38.0000000  0  8 26 30 17  3 23 21 22  6            -0.000000019
 -18485148.639 9 -14389872.82447  21759612.447    21759612.4444   21759623.3154
    280893.323 8    228801.14745  25535752.861    25535752.9564   25535781.2224
 -24743380.340 9 -19257244.19749  20767896.653    20767895.9454   20767905.9384
  -1318256.046 8  -1011302.30945  24818038.661    24818038.5894   24818054.1264
 -24334751.967 9 -18938663.95749  20894802.940    20894802.3394   20894812.5004
  -9200704.749 9  -6694050.57246  23669000.512    23668999.9134   23669017.7594
  -6720163.661 9  -5225955.85746  23749968.371    23749967.4604   23749982.6094
 -25601535.062 9 -19931329.93548  21053195.924    21053195.6764   21053206.1694
 00  4 20  0  2 38.0000000  0  8 26 30 17  3 23 21 22  6            -0.000000019
 -18484804.510 9 -14389604.67047  21759677.949    21759677.9384   21759688.8154
    282443.475 8    230009.05545  25536047.839    25536047.9324   25536076.1954
 -24743455.069 9 -19257302.42749  20767882.435    20767881.7354   20767891.7194
  -1319984.476 8  -1012649.13445  24817709.759    24817709.6874   24817725.2274
 -24335188.835 9 -18939004.37249  20894719.798    20894719.1974   20894729.3554
  -9201999.194 9  -6695059.22646  23668754.185    23668753.5844   23668771.4324
  -6719914.042 9  -5225761.35346  23750015.865    23750014.9574   23750030.1034
 -25600450.908 9 -19930485.14148  21053402.259    21053402.0034   21053412.5064
 00  4 20  0  2 39.0000000  0  8 26 30 17  3 23 21 22  6            -0.000000019
 -18484460.326 9 -14389336.47747  21759743.442    21759743.4234   21759754.3074
    283993.498 8    231216.86645  25536342.806    25536342.8984   25536371.1504
 -24743529.865 9 -19257360.71049  20767868.193    20767867.4854   20767877.4924
  -1321712.989 8  -1013996.02445  24817380.821    24817380.7554   24817396.2864
 -24335625.710 9 -18939344.79349  20894636.671    20894636.0754   20894646.2254
  -9203293.685 9  -6696067.91246  23668507.849    23668507.2444   23668525.0974
  -6719664.421 9  -5225566.84246  23750063.367    23750062.4544   23750077.6034
 -25599366.749 9 -19929640.34548  21053608.549    21053608.3004   21053618.7954
 00  4 20  0  2 39.0000000  0  8 26 30 17  3 23 21 22  6            -0.000000018
 -18484115.927 9 -14389068.11147  21759808.981    21759808.9684   21759819.8404
    285543.432 8    232424.60345  25536637.762    25536637.8434   25536666.0954
 -24743604.564 9 -19257418.91649  20767853.990    20767853.2844   20767863.2784
  -1323441.435 8  -1015342.86345  24817051.933    24817051.8624   24817067.4024
 -24336062.446 9 -18939685.10649  20894553.549    20894552.9524   20894563.1014
  -9204588.106 9  -6697076.54746  23668261.517    23668260.9154   23668278.7714
  -6719414.615 9  -5225372.18546  23750110.898    23750109.9814   23750125.1394
 -25598282.420 9 -19928795.41348  21053814.899    21053814.6474   21053825.1394
 00  4 20  0  2 40.0000000  0  8 26 30 17  3 23 21 22  6            -0.000000018
 -18483771.392 9 -14388799.64447  21759874.546    21759874.5324   21759885.3964
    287093.310 8    233632.29445  25536932.692    25536932.7794   25536961.0044
 -24743679.256 9 -19257477.11749  20767839.778    20767839.0744   20767849.0644
  -1325169.922 8  -1016689.73545  24816722.996    24816722.9204   24816738.4684
 -24336499.117 9 -18940025.36749  20894470.471    20894469.8704   20894480.0254
  -9205882.516 9  -6698085.17246  23668015.198    23668014.5854   23668032.4434
  -6719164.719 9  -5225177.46246  23750158.443    23750157.5284   23750172.6834
 -25597198.016 9 -19927950.42448  21054021.258    21054020.9954   21054031.5054
 00  4 20  0  2 40.0000000  0  8 26 30 17  3 23 21 22  6            -0.000000018
 -18483426.609 9 -14388530.98147  21759940.150    21759940.1374   21759951.0054
    288643.171 8    234839.97545  25537227.611    25537227.6944   25537255.9074
 -24743753.804 9 -19257535.20549  20767825.579    20767824.8744   20767834.8714
  -1326898.310 8  -1018036.52945  24816394.112    24816394.0384   24816409.5754
 -24336935.592 9 -18940365.47649  20894387.415    20894386.8174   20894396.9734
  -9207176.769 9  -6699093.67846  23667768.901    23667768.2864   23667786.1454
  -6718914.609 9  -5224982.57146  23750206.056    23750205.1354   23750220.3034
 -25596113.403 9 -19927105.27248  21054227.647    21054227.3924   21054237.8884
 00  4 20  0  2 41.0000000  0  8 26 30 17  3 23 21 22  6            -0.000000017
 -18483081.698 9 -14388262.21747  21760005.783    21760005.7614   21760016.6354
    290192.896 8    236047.55145  25537522.535    25537522.6204   25537550.8224
 -24743828.365 9 -19257593.30449  20767811.384    20767810.6744   20767820.6734
  -1328626.744 8  -1019383.35845  24816065.201    24816065.1264   24816080.6544
 -24337372.032 9 -18940705.55949  20894304.357    20894303.7554   20894313.9054
  -9208471.037 9  -6700102.19046  23667522.588    23667521.9764   23667539.8354
  -6718664.417 9  -5224787.61546  23750253.661    23750252.7424   23750267.9064
 -25595028.733 9 -19926260.07648  21054434.046    21054433.7894   21054444.2874
 00  4 20  0  2 41.0000000  0  8 26 30 17  3 23 21 22  6            -0.000000017
 -18482736.550 9 -14387993.27047  21760071.480    21760071.4664   21760082.3414
    291742.637 8    237255.13945  25537817.426    25537817.5164   25537845.7064
 -24743902.802 9 -19257651.30749  20767797.235    20767796.5344   20767806.5234
  -1330355.080 8  -1020730.11245  24815736.308    24815736.2234   24815751.7594
 -24337808.301 9 -18941045.50849  20894221.337    20894220.7424   20894230.8954
  -9209765.201 9  -6701110.62846  23667276.327    23667275.7074   23667293.5644
  -6718414.038 9  -5224592.51546  23750301.307    23750300.3794   23750315.5604
 -25593943.872 9 -19925414.73148  21054640.501    21054640.2464   21054650.7424
 00  4 20  0  2 42.0000000  0  8 26 30 17  3 23 21 22  6            -0.000000017
 -18482391.302 9 -14387724.24947  21760137.169    21760137.1514   21760148.0234
    293292.230 8    238462.61145  25538112.304    25538112.3924   25538140.5654
 -24743977.265 9 -19257709.33049  20767783.057    20767782.3534   20767792.3504
  -1332083.451 8  -1022076.89245  24815407.398    24815407.3114   24815422.8444
 -24338244.535 9 -18941385.42949  20894138.331    20894137.7304   20894147.8844
  -9211059.375 9  -6702119.07146  23667030.060    23667029.4374   23667047.2934
  -6718163.605 9  -5224397.37246  23750348.965    23750348.0464   23750363.2164
 -25592858.963 9 -19924569.35048  21054846.935    21054846.6834   21054857.1814
 00  4 20  0  2 42.0000000  0  8 26 30 17  3 23 21 22  6            -0.000000017
 -18482045.920 9 -14387455.11547  21760202.893    21760202.8654   21760213.7534
    294841.697 8    239669.98745  25538407.172    25538407.2684   25538435.4264
 -24744051.718 9 -19257767.34349  20767768.899    20767768.1934   20767778.1874
  -1333811.865 8  -1023423.70845  24815078.504    24815078.4094   24815093.9464
 -24338680.703 9 -18941725.29949  20894055.306    20894054.7074   20894064.8574
  -9212353.556 9  -6703127.51846  23666783.760    23666783.1384   23666800.9884
  -6717913.057 9  -5224202.14146  23750396.642    23750395.7134   23750410.9024
 -25591773.977 9 -19923723.90748  21055053.413    21055053.1604   21055063.6524
 00  4 20  0  2 43.0000000  0  8 26 30 17  3 23 21 22  6            -0.000000016
 -18481700.317 9 -14387185.81647  21760268.672    21760268.6504   21760279.5284
    296391.164 8    240877.36145  25538702.030    25538702.1244   25538730.2804
 -24744126.076 9 -19257825.28649  20767754.747    20767754.0534   20767764.0334
  -1335540.262 8  -1024770.50845  24814749.621    24814749.5274   24814765.0634
 -24339116.731 9 -18942065.06049  20893972.354    20893971.7544   20893981.9024
  -9213647.628 9  -6704135.87946  23666537.518    23666536.8984   23666554.7434
  -6717662.349 9  -5224006.78546  23750444.357    23750443.4214   23750458.6114
 -25590688.824 9 -19922878.33548  21055259.916    21055259.6574   21055270.1584
 00  4 20  0  2 43.0000000  0  8 26 30 17  3 23 21 22  6            -0.000000016
 -18481354.473 9 -14386916.32847  21760334.464    21760334.4444   21760345.3284
    297940.622 8    242084.72945  25538996.865    25538996.9404   25539025.1074
 -24744200.305 9 -19257883.12749  20767740.607    20767739.9034   20767749.9124
  -1337268.504 8  -1026117.18745  24814420.746    24814420.6444   24814436.1854
 -24339552.566 9 -18942404.67049  20893889.403    20893888.8124   20893898.9564
  -9214941.566 9  -6705144.13546  23666291.272    23666290.6584   23666308.4934
  -6717411.433 9  -5223811.26446  23750492.095    23750491.1574   23750506.3394
 -25589603.468 9 -19922032.60348  21055466.440    21055466.1844   21055476.6824
 00  4 20  0  2 44.0000000  0  8 26 30 17  3 23 21 22  6            -0.000000016
 -18481008.522 9 -14386646.75347  21760400.301    21760400.2684   21760411.1554
    299489.931 8    243291.98145  25539291.714    25539291.7864   25539319.9454
 -24744274.560 9 -19257940.98649  20767726.484    20767725.7834   20767735.7814
  -1338996.844 8  -1027463.94445  24814091.831    24814091.7324   24814107.2664
 -24339988.382 9 -18942744.26649  20893806.460    20893805.8694   20893816.0164
  -9216235.551 9  -6706152.42946  23666045.032    23666044.4194   23666062.2534
  -6717160.439 9  -5223615.68546  23750539.845    23750538.9044   23750554.0964
 -25588518.069 9 -19921186.83848  21055672.987    21055672.7314   21055683.2334
 00  4 20  0  2 44.0000000  0  8 26 30 17  3 23 21 22  6            -0.000000016
 -18480662.428 9 -14386377.06947  21760466.160    21760466.1334   21760477.0124
    301039.140 8    244499.15745  25539586.523    25539586.6024   25539614.7454
 -24744348.795 9 -19257998.83149  20767712.355    20767711.6624   20767721.6574
  -1340725.156 8  -1028810.67645  24813762.956    24813762.8504   24813778.3814
 -24340424.121 9 -18943083.80149  20893723.552    20893722.9574   20893733.1064
  -9217529.511 9  -6707160.70246  23665798.810    23665798.1994   23665816.0374
  -6716909.366 9  -5223420.04746  23750587.644    23750586.7014   23750601.8864
 -25587432.580 9 -19920341.00348  21055879.552    21055879.2884   21055889.8024
 00  4 20  0  2 45.0000000  0  8 26 30 17  3 23 21 22  6            -0.000000015
 -18480316.141 9 -14386107.23547  21760532.070    21760532.0374   21760542.9174
    302588.330 8    245706.31645  25539881.316    25539881.3974   25539909.5294
 -24744422.948 9 -19258056.61149  20767698.246    20767697.5424   20767707.5434
  -1342453.454 8  -1030157.39945  24813434.086    24813433.9874   24813449.5044
 -24340859.731 9 -18943423.23649  20893640.661    20893640.0644   20893650.2074
  -9218823.380 9  -6708168.90446  23665552.589    23665551.9804   23665569.8074
  -6716658.123 9  -5223224.27246  23750635.461    23750634.5184   23750649.6974
 -25586346.940 9 -19919495.05148  21056086.146    21056085.8954   21056096.3904
 00  4 20  0  2 45.0000000  0  8 26 30 17  3 23 21 22  6            -0.000000015
 -18479969.709 9 -14385837.28647  21760597.975    21760597.9424   21760608.8274
    304137.407 8    246913.38845  25540176.103    25540176.1834   25540204.3144
 -24744497.100 9 -19258114.39149  20767684.135    20767683.4324   20767693.4304
  -1344181.762 8  -1031504.12945  24813105.187    24813105.0854   24813120.6064
 -24341295.279 9 -18943762.62449  20893557.766    20893557.1714   20893567.3204
  -9220117.259 9  -6709177.11546  23665306.369    23665305.7604   23665323.5874
  -6716406.787 9  -5223028.42846  23750683.275    23750682.3254   23750697.5084
 -25585261.218 9 -19918649.03448  21056292.765    21056292.5124   21056303.0154
 00  4 20  0  2 46.0000000  0  8 26 30 17  3 23 21 22  6            -0.000000015
 -18479623.095 9 -14385567.19747  21760663.946    21760663.9164   21760674.7914
    305686.422 8    248120.41145  25540470.864    25540470.9494   25540499.0634
 -24744571.180 9 -19258172.11549  20767670.028    20767669.3224   20767679.3194
  -1345910.031 8  -1032850.82745  24812776.325    24812776.2134   24812791.7444
 -24341730.713 9 -18944101.92249  20893474.920    20893474.3294   20893484.4684
  -9221411.068 9  -6710185.27246  23665060.151    23665059.5404   23665077.3664
  -6716155.299 9  -5222832.46246  23750731.143    23750730.1924   23750745.3804
 -25584175.367 9 -19917802.91648  21056499.382    21056499.1194   21056509.6334
 00  4 20  0  2 46.0000000  0  8 26 30 17  3 23 21 22  6            -0.000000015
 -18479276.267 9 -14385296.94447  21760729.959    21760729.9304   21760740.8134
    307235.411 8    249327.41045  25540765.641    25540765.7254   25540793.8334
 -24744645.172 9 -19258229.77149  20767655.970    20767655.2814   20767665.2724
  -1347638.232 8  -1034197.47645  24812447.467    24812447.3704   24812462.8794
 -24342165.997 9 -18944441.10349  20893392.076    20893391.4864   20893401.6224
  -9222704.780 9  -6711193.35146  23664813.947    23664813.3414   23664831.1524
  -6715903.632 9  -5222636.35946  23750779.023    23750778.0694   23750793.2594
 -25583089.349 9 -19916956.67048  21056706.063    21056705.8064   21056716.3114
 00  4 20  0  2 47.0000000  0  8 26 30 17  3 23 21 22  6            -0.000000014
 -18478929.293 9 -14385026.57547  21760795.964    21760795.9354   21760806.8254
    308784.306 8    250534.33845  25541060.400    25541060.4814   25541088.5904
 -24744719.128 9 -19258287.40049  20767641.873    20767641.1814   20767651.1764
  -1349366.476 8  -1035544.15945  24812118.572    24812118.4584   24812133.9794
 -24342601.206 9 -18944780.22549  20893309.247    20893308.6544   20893318.7974
  -9223998.467 9  -6712201.41346  23664567.779    23664567.1714   23664584.9834
  -6715651.855 9  -5222440.17146  23750826.936    23750825.9764   23750841.1754
 -25582003.229 9 -19916110.34348  21056912.728    21056912.4734   21056922.9804
 00  4 20  0  2 47.0000000  0  8 26 30 17  3 23 21 22  6            -0.000000014
 -18478582.128 9 -14384756.05747  21760862.029    21760861.9994   21760872.8804
    310333.148 8    251741.22345  25541355.128    25541355.2074   25541383.3064
 -24744793.021 9 -19258344.98049  20767627.827    20767627.1414   20767637.1224
  -1351094.673 8  -1036890.80345  24811789.713    24811789.5964   24811805.1204
 -24343036.299 9 -18945119.25849  20893226.461    20893225.8714   20893236.0094
  -9225292.087 9  -6713209.41946  23664321.593    23664320.9924   23664338.8044
  -6715399.922 9  -5222243.86246  23750874.884    23750873.9224   23750889.1204
 -25580916.979 9 -19915263.91548  21057119.427    21057119.1604   21057129.6804
 00  4 20  0  2 48.0000000  0  8 26 30 17  3 23 21 22  6            -0.000000014
 -18478234.784 9 -14384485.40147  21760928.135    21760928.1034   21760938.9844
    311881.931 8    252948.06345  25541649.843    25541649.9234   25541678.0124
 -24744866.852 9 -19258402.50949  20767613.761    20767613.0714   20767623.0544
  -1352822.816 8  -1038237.40745  24811460.865    24811460.7634   24811476.2734
 -24343471.268 9 -18945458.19349  20893143.706    20893143.1084   20893153.2514
  -9226585.633 9  -6714217.37246  23664075.444    23664074.8434   23664092.6494
  -6715147.862 9  -5222047.45346  23750922.852    23750921.8894   23750937.0954
 -25579830.595 9 -19914417.38348  21057326.157    21057325.8874   21057336.4074
 00  4 20  0  2 48.0000000  0  8 26 30 17  3 23 21 22  6            -0.000000013
 -18477887.304 9 -14384214.63547  21760994.256    21760994.2274   21761005.1064
    313430.593 8    254154.81245  25541944.555    25541944.6394   25541972.7264
 -24744940.668 9 -19258460.02849  20767599.728    20767599.0404   20767609.0254
  -1354551.015 8  -1039584.05245  24811131.996    24811131.8914   24811147.4014
 -24343906.193 9 -18945797.09549  20893060.927    20893060.3354   20893070.4684
  -9227879.170 9  -6715225.31946  23663829.301    23663828.6934   23663846.5094
  -6714895.682 9  -5221850.94846  23750970.824    23750969.8564   23750985.0604
 -25578744.134 9 -19913570.79348  21057532.914    21057532.6444   21057543.1704
 00  4 20  0  2 49.0000000  0  8 26 30 17  3 23 21 22  6            -0.000000013
 -18477539.598 9 -14383943.69447  21761060.432    21761060.3914   21761071.2814
    314979.236 8    255361.54045  25542239.269    25542239.3554   25542267.4264
 -24745014.385 9 -19258517.47049  20767585.689    20767585.0004   20767594.9824
  -1356279.139 8  -1040930.64245  24810803.157    24810803.0484   24810818.5514
 -24344340.966 9 -18946135.87749  20892978.195    20892977.6034   20892987.7424
  -9229172.613 9  -6716233.19046  23663583.137    23663582.5344   23663600.3434
  -6714643.323 9  -5221654.30346  23751018.855    23751017.8934   23751033.0874
 -25577657.501 9 -19912724.06948  21057739.701    21057739.4404   21057749.9584
 00  4 20  0  2 49.0000000  0  8 26 30 17  3 23 21 22  6            -0.000000013
 -18477191.753 9 -14383672.64747  21761126.608    21761126.5664   21761137.4564
    316527.809 8    256568.21745  25542533.931    25542534.0214   25542562.0874
 -24745088.083 9 -19258574.89649  20767571.685    20767571.0004   20767580.9864
  -1358007.282 8  -1042277.24845  24810474.283    24810474.1764   24810489.6724
 -24344775.665 9 -18946474.60349  20892895.463    20892894.8704   20892905.0074
  -9230466.029 9  -6717241.04446  23663337.004    23663336.3944   23663354.2184
  -6714390.868 9  -5221457.58746  23751066.887    23751065.9294   23751081.1224
 -25576570.784 9 -19911877.27748  21057946.476    21057946.2174   21057956.7284
 00  4 20  0  2 50.0000000  0  8 26 30 17  3 23 21 22  6            -0.000000012
 -18476843.756 9 -14383401.47947  21761192.841    21761192.8004   21761203.6874
    318076.242 8    257774.78345  25542828.590    25542828.6764   25542856.7504
 -24745161.745 9 -19258632.29249  20767557.660    20767556.9694   20767566.9704
  -1359735.420 8  -1043623.84545  24810145.452    24810145.3444   24810160.8354
 -24345210.286 9 -18946813.26649  20892812.767    20892812.1774   20892822.3124
  -9231759.415 9  -6718248.86846  23663090.900    23663090.2844   23663108.1104
  -6714138.296 9  -5221260.78046  23751114.974    23751114.0164   23751129.2104
 -25575483.963 9 -19911030.40248  21058153.318    21058153.0644   21058163.5764
 00  4 20  0  2 50.0000000  0  8 26 30 17  3 23 21 22  6            -0.000000012
 -18476495.589 9 -14383130.17847  21761259.092    21761259.0544   21761269.9354
    319624.606 8    258981.29945  25543123.240    25543123.3324   25543151.3954
 -24745235.369 9 -19258689.66149  20767543.641    20767542.9494   20767552.9454
  -1361463.552 8  -1044970.43845  24809816.603    24809816.4914   24809831.9824
 -24345644.817 9 -18947151.86149  20892730.066    20892729.4744   20892739.6084
  -9233052.760 9  -6719256.66146  23662844.755    23662844.1454   23662861.9624
  -6713885.606 9  -5221063.87946  23751163.047    23751162.0924   23751177.2804
 -25574397.034 9 -19910183.44648  21058360.140    21058359.8814   21058370.4004
 00  4 20  0  2 51.0000000  0  8 26 30 17  3 23 21 22  6            -0.000000012
 -18476147.192 9 -14382858.69747  21761325.397    21761325.3584   21761336.2354
    321172.979 8    260187.82345  25543417.891    25543417.9894   25543446.0424
 -24745308.878 9 -19258746.94249  20767529.644    20767528.9594   20767538.9404
  -1363191.604 8  -1046316.97045  24809487.766    24809487.6594   24809503.1474
 -24346079.181 9 -18947490.32649  20892647.406    20892646.8124   20892656.9494
  -9234345.995 9  -6720264.36746  23662598.670    23662598.0554   23662615.8854
  -6713632.719 9  -5220866.82346  23751211.163    23751210.2194   23751225.3964
 -25573309.925 9 -19909336.35248  21058567.022    21058566.7584   21058577.2834
 00  4 20  0  2 51.0000000  0  8 26 30 17  3 23 21 22  6            -0.000000012
 -18475798.671 9 -14382587.12447  21761391.700    21761391.6624   21761402.5444
    322721.197 8    261394.22345  25543712.515    25543712.6144   25543740.6734
 -24745382.396 9 -19258804.22649  20767515.681    20767514.9984   20767524.9854
  -1364919.718 8  -1047663.55045  24809158.909    24809158.8064   24809174.2844
 -24346513.519 9 -18947828.76949  20892564.749    20892564.1594   20892574.2914
  -9235639.247 9  -6721272.09046  23662352.573    23662351.9554   23662369.7814
  -6713379.750 9  -5220669.70446  23751259.319    23751258.3764   23751273.5544
 -25572222.755 9 -19908489.20748  21058773.885    21058773.6244   21058784.1464
 00  4 20  0  2 52.0000000  0  8 26 30 17  3 23 21 22  6            -0.000000011
 -18475449.946 9 -14382315.39047  21761458.066    21761458.0264   21761468.9044
    324269.394 8    262600.60845  25544007.146    25544007.2604   25544035.3004
 -24745455.823 9 -19258861.44349  20767501.689    20767501.0084   20767510.9954
  -1366647.785 8  -1049010.09445  24808830.088    24808829.9844   24808845.4574
 -24346947.706 9 -18948167.09749  20892482.131    20892481.5364   20892491.6714
  -9236932.399 9  -6722279.73846  23662106.479    23662105.8664   23662123.6934
  -6713126.606 9  -5220472.44846  23751307.470    23751306.5234   23751321.7084
 -25571135.429 9 -19907641.94048  21058980.806    21058980.5414   21058991.0644
 00  4 20  0  2 52.0000000  0  8 26 30 17  3 23 21 22  6            -0.000000011
 -18475101.071 9 -14382043.54147  21761524.454    21761524.4104   21761535.2904
    325817.518 8    263806.93245  25544301.727    25544301.8474   25544329.8844
 -24745529.231 9 -19258918.64449  20767487.736    20767487.0484   20767497.0414
  -1368375.867 8  -1050356.64845  24808501.233    24808501.1314   24808516.5924
 -24347381.812 9 -18948505.36149  20892399.544    20892398.9534   20892409.0814
  -9238225.524 9  -6723287.36346  23661860.399    23661859.7864   23661877.6104
  -6712873.358 9  -5220275.11346  23751355.663    23751354.7194   23751369.8964
 -25570048.005 9 -19906794.60048  21059187.719    21059187.4684   21059197.9794
 00  4 20  0  2 53.0000000  0  8 26 30 17  3 23 21 22  6            -0.000000011
 -18474751.991 9 -14381771.53047  21761590.876    21761590.8344   21761601.7174
    327365.546 8    265013.18445  25544596.310    25544596.4334   25544624.4674
 -24745602.552 9 -19258975.77649  20767473.773    20767473.0874   20767483.0754
  -1370103.857 8  -1051703.13145  24808172.409    24808172.3094   24808187.7664
 -24347815.802 9 -18948843.53449  20892316.957    20892316.3604   20892326.4884
  -9239518.578 9  -6724294.93046  23661614.343    23661613.7264   23661631.5544
  -6712619.944 9  -5220077.64746  23751403.874    23751402.9264   23751418.1224
 -25568960.433 9 -19905947.14248  21059394.702    21059394.4454   21059404.9664
 00  4 20  0  2 53.0000000  0  8 26 30 17  3 23 21 22  6            -0.000000010
 -18474402.764 9 -14381499.40347  21761657.323    21761657.2784   21761668.1604
    328913.490 8    266219.36945  25544890.902    25544891.0294   25544919.0514
 -24745675.856 9 -19259032.89749  20767459.813    20767459.1274   20767469.1104
  -1371831.938 8  -1053049.68645  24807843.555    24807843.4574   24807858.9074
 -24348249.718 9 -18949181.64949  20892234.377    20892233.7884   20892243.9134
  -9240811.618 9  -6725302.49146  23661368.277    23661367.6664   23661385.4784
  -6712366.430 9  -5219880.10546  23751452.126    23751451.1734   23751466.3624
 -25567872.784 9 -19905099.62248  21059601.660    21059601.4014   21059611.9264
 00  4 20  0  2 54.0000000  0  8 26 30 17  3 23 21 22  6            -0.000000010
 -18474053.413 9 -14381227.18447  21761723.817    21761723.7824   21761734.6564
    330461.344 8    267425.48745  25545185.431    25545185.5664   25545213.5894
 -24745749.150 9 -19259090.01049  20767445.882    20767445.1974   20767455.1894
  -1373560.009 8  -1054396.23245  24807514.740    24807514.6444   24807530.0894
 -24348683.569 9 -18949519.71249  20892151.804    20892151.2154   20892161.3404
  -9242104.628 9  -6726310.02746  23661122.226    23661121.6174   23661139.4284
  -6712112.823 9  -5219682.48946  23751500.386    23751499.4404   23751514.6324
 -25566785.047 9 -19904252.03748  21059808.648    21059808.3984   21059818.9174
 00  4 20  0  2 54.0000000  0  8 26 30 17  3 23 21 22  6            -0.000000010
 -18473703.799 9 -14380954.75447  21761790.349    21761790.3164   21761801.1854
    332009.183 8    268631.59345  25545479.979    25545480.1124   25545508.1404
 -24745822.311 9 -19259147.01649  20767431.946    20767431.2664   20767441.2544
  -1375287.996 8  -1055742.71445  24807185.895    24807185.8024   24807201.2384
 -24349117.245 9 -18949857.63949  20892069.295    20892068.7024   20892078.8284
  -9243397.538 9  -6727317.48446  23660876.191    23660875.5874   23660893.3964
  -6711859.004 9  -5219484.71146  23751548.686    23751547.7364   23751562.9204
 -25565697.125 9 -19903404.30848  21060015.692    21060015.4254   21060025.9524
 00  4 20  0  2 55.0000000  0  8 26 30 17  3 23 21 22  6            -0.000000009
 -18473354.048 9 -14380682.21947  21761856.890    21761856.8604   21761867.7334
    333556.917 8    269837.61745  25545774.517    25545774.6484   25545802.6784
 -24745895.452 9 -19259204.00849  20767418.025    20767417.3464   20767427.3324
  -1377015.984 8  -1057089.19445  24806857.090    24806857.0004   24806872.4344
 -24349550.848 9 -18950195.51049  20891986.761    20891986.1694   20891996.2954
  -9244690.407 9  -6728324.90746  23660630.159    23660629.5584   23660647.3674
  -6711605.071 9  -5219286.84246  23751597.021    23751596.0634   23751611.2654
 -25564609.106 9 -19902556.50348  21060222.711    21060222.4614   21060232.9774
 00  4 20  0  2 55.0000000  0  8 26 30 17  3 23 21 22  6            -0.000000009
 -18473004.124 9 -14380409.55347  21761923.473    21761923.4344   21761934.3104
    335104.611 8    271043.60845  25546069.040    25546069.1644   25546097.1974
 -24745968.539 9 -19259260.95949  20767404.136    20767403.4564   20767413.4424
  -1378743.951 8  -1058435.66045  24806528.271    24806528.1884   24806543.6074
 -24349984.344 9 -18950533.30049  20891904.275    20891903.6864   20891913.8114
  -9245983.223 9  -6729332.29246  23660384.146    23660383.5384   23660401.3484
  -6711351.004 9  -5219088.86646  23751645.365    23751644.4094   23751659.6054
 -25563520.968 9 -19901708.60448  21060429.776    21060429.5284   21060440.0444
 00  4 20  0  2 56.0000000  0  8 26 30 17  3 23 21 22  6            -0.000000009
 -18472654.034 9 -14380136.75747  21761990.116    21761990.0784   21762000.9524
    336652.156 8    272249.48545  25546363.532    25546363.6604   25546391.6954
 -24746041.598 9 -19259317.88749  20767390.231    20767389.5454   20767399.5384
  -1380471.942 8  -1059782.14545  24806199.423    24806199.3454   24806214.7514
 -24350417.763 9 -18950871.02749  20891821.791    20891821.1934   20891831.3224
  -9247276.010 9  -6730339.64746  23660138.134    23660137.5284   23660155.3394
  -6711096.811 9  -5218890.79646  23751693.710    23751692.7464   23751707.9634
 -25562432.733 9 -19900860.62848  21060636.878    21060636.6254   21060647.1484
 00  4 20  0  2 56.0000000  0  8 26 30 17  3 23 21 22  6            -0.000000008
 -18472303.797 9 -14379863.84547  21762056.738    21762056.6924   21762067.5804
    338199.633 8    273455.30745  25546658.014    25546658.1274   25546686.1864
 -24746114.631 9 -19259374.79549  20767376.323    20767375.6454   20767385.6384
  -1382199.961 8  -1061128.65145  24805870.601    24805870.5234   24805885.9284
 -24350851.113 9 -18951208.70149  20891739.332    20891738.7404   20891748.8584
  -9248568.773 9  -6731346.99346  23659892.124    23659891.5184   23659909.3284
  -6710842.521 9  -5218692.64846  23751742.105    23751741.1424   23751756.3594
 -25561344.398 9 -19900012.57648  21060843.984    21060843.7214   21060854.2514
 00  4 20  0  2 57.0000000  0  8 26 30 17  3 23 21 22  6            -0.000000008
 -18471953.324 9 -14379590.74747  21762123.425    21762123.3864   21762134.2634
    339747.115 8    274661.13745  25546952.484    25546952.5934   25546980.6604
 -24746187.545 9 -19259431.61149  20767362.471    20767361.7854   20767371.7834
  -1383927.854 8  -1062475.05945  24805541.784    24805541.7014   24805557.1064
 -24351284.282 9 -18951546.23449  20891656.896    20891656.3174   20891666.4294
  -9249861.408 9  -6732354.23746  23659646.129    23659645.5294   23659663.3344
  -6710588.033 9  -5218494.34646  23751790.551    23751789.5984   23751804.8024
 -25560255.876 9 -19899164.37848  21061051.104    21061050.8384   21061061.3794
 00  4 20  0  2 57.0000000  0  8 26 30 17  3 23 21 22  6            -0.000000008
 -18471602.637 9 -14379317.48647  21762190.163    21762190.1204   21762201.0054
    341294.575 8    275866.94545  25547246.974    25547247.0894   25547275.1624
 -24746260.374 9 -19259488.36249  20767348.597    20767347.9044   20767357.9044
  -1385655.717 8  -1063821.44445  24805212.994    24805212.9184   24805228.3144
 -24351717.325 9 -18951883.67049  20891574.492    20891573.9044   20891584.0184
  -9251153.975 9  -6733361.42746  23659400.142    23659399.5394   23659417.3454
  -6710333.359 9  -5218295.89846  23751839.002    23751838.0544   23751853.2564
 -25559167.209 9 -19898316.06948  21061258.269    21061258.0144   21061268.5424
 00  4 20  0  2 58.0000000  0  8 26 30 17  3 23 21 22  6            -0.000000007
 -18471251.876 9 -14379044.16647  21762256.921    21762256.8834   21762267.7584
    342841.840 8    277072.60445  25547541.388    25547541.4954   25547569.5834
 -24746333.255 9 -19259545.15249  20767334.723    20767334.0444   20767344.0364
  -1387383.678 8  -1065167.90645  24804884.174    24804884.0864   24804899.4894
 -24352150.370 9 -18952221.10849  20891492.081    20891491.4924   20891501.6064
  -9252446.589 9  -6734368.65346  23659154.177    23659153.5794   23659171.3874
  -6710078.656 9  -5218097.43146  23751887.467    23751886.5214   23751901.7264
 -25558078.526 9 -19897467.74648  21061465.444    21061465.1914   21061475.7184
 00  4 20  0  2 58.0000000  0  8 26 30 17  3 23 21 22  6            -0.000000007
 -18470900.852 9 -14378770.64147  21762323.699    21762323.6574   21762334.5354
    344389.155 8    278278.30245  25547835.864    25547835.9714   25547864.0714
 -24746405.981 9 -19259601.82349  20767320.893    20767320.2134   20767330.1994
  -1389111.529 8  -1066514.28145  24804555.370    24804555.2844   24804570.6914
 -24352583.198 9 -18952558.37549  20891409.742    20891409.1494   20891419.2724
  -9253739.046 9  -6735375.75646  23658908.225    23658907.6294   23658925.4324
  -6709823.731 9  -5217898.79246  23751935.994    23751935.0474   23751950.2544
 -25556989.607 9 -19896619.23848  21061672.667    21061672.4084   21061682.9414
 00  4 20  0  2 59.0000000  0  8 26 30 17  3 23 21 22  6            -0.000000007
 -18470549.785 9 -14378497.07947  21762390.525    21762390.4814   21762401.3624
    345936.243 8    279483.82345  25548130.258    25548130.3674   25548158.4744
 -24746478.799 9 -19259658.56249  20767307.020    20767306.3334   20767316.3364
  -1390839.487 8  -1067860.74045  24804226.578    24804226.4914   24804241.9084
 -24353016.082 9 -18952895.68549  20891327.358    20891326.7664   20891336.8904
  -9255031.599 9  -6736382.93846  23658662.262    23658661.6704   23658679.4644
  -6709568.800 9  -5217700.14546  23751984.475    23751983.5334   23751998.7404
 -25555900.724 9 -19895770.75848  21061879.884    21061879.6244   21061890.1594
 00  4 20  0  2 59.0000000  0  8 26 30 17  3 23 21 22  6            -0.000000006
 -18470198.457 9 -14378223.31647  21762457.359    21762457.3344   21762468.2024
    347483.334 8    280689.34945  25548424.666    25548424.7734   25548452.8904
 -24746551.490 9 -19259715.20349  20767293.204    20767292.5134   20767302.5094
  -1392567.360 8  -1069207.13345  24803897.766    24803897.6794   24803913.0944
 -24353448.785 9 -18953232.85449  20891245.012    20891244.4234   20891254.5424
  -9256324.034 9  -6737390.02646  23658416.312    23658415.7204   23658433.5144
  -6709313.672 9  -5217501.34546  23752033.049    23752032.1204   23752047.3174
 -25554811.651 9 -19894922.13048  21062087.121    21062086.8614   21062097.4034
 00  4 20  0  3  0.0000000  0  8 26 30 17  3 23 21 22  6            -0.000000006
 -18469846.988 9 -14377949.44347  21762524.241    21762524.2084   21762535.0824
    349030.352 8    281894.81445  25548719.058    25548719.1594   25548747.2754
 -24746624.152 9 -19259771.82449  20767279.383    20767278.7024   20767288.6844
  -1394295.252 8  -1070553.54045  24803568.950    24803568.8674   24803584.2774
 -24353881.405 9 -18953569.95949  20891162.686    20891162.0904   20891172.2194
  -9257616.421 9  -6738397.07346  23658170.362    23658169.7714   23658187.5674
  -6709058.424 9  -5217302.45246  23752081.594    23752080.6674   23752095.8614
 -25553722.479 9 -19894073.42748  21062294.377    21062294.1174   21062304.6604
 00  4 20  0  3  0.0000000  0  8 26 30 17  3 23 21 22  6            -0.000000005
 -18469495.359 9 -14377675.44447  21762591.174    21762591.1524   21762602.0164
    350577.274 8    283100.20345  25549013.420    25549013.5264   25549041.6434
 -24746696.780 9 -19259828.41649  20767265.566    20767264.8824   20767274.8714
  -1396023.156 8  -1071899.95745  24803240.150    24803240.0644   24803255.4724
 -24354313.942 9 -18953906.99949  20891080.361    20891079.7674   20891089.8904
  -9258908.788 9  -6739404.10746  23657924.434    23657923.8414   23657941.6444
  -6708803.055 9  -5217103.46246  23752130.210    23752129.2734   23752144.4754
 -25552633.207 9 -19893224.64548  21062501.643    21062501.3944   21062511.9214
 00  4 20  0  3  1.0000000  0  8 26 30 17  3 23 21 22  6            -0.000000005
 -18469143.577 9 -14377401.33047  21762658.115    21762658.0854   21762668.9534
    352124.106 8    284305.52545  25549307.779    25549307.8824   25549336.0064
 -24746769.376 9 -19259884.98349  20767251.728    20767251.0314   20767261.0334
  -1397751.051 8  -1073246.36745  24802911.333    24802911.2424   24802926.6454
 -24354746.405 9 -18954243.98249  20890998.088    20890997.4934   20891007.6204
  -9260201.128 9  -6740411.11646  23657678.511    23657677.9214   23657695.7174
  -6708547.587 9  -5216904.39146  23752178.810    23752177.8804   23752193.0874
 -25551543.835 9 -19892375.78348  21062708.968    21062708.7104   21062719.2494
 00  4 20  0  3  1.0000000  0  8 26 30 17  3 23 21 22  6            -0.000000005
 -18468791.556 9 -14377127.02747  21762725.093    21762725.0594   21762735.9264
    353670.952 8    285510.85545  25549602.152    25549602.2484   25549630.3754
 -24746841.846 9 -19259941.45349  20767237.956    20767237.2614   20767247.2544
  -1399478.871 8  -1074592.71845  24802582.556    24802582.4694   24802597.8664
 -24355178.672 9 -18954580.81249  20890915.814    20890915.2204   20890925.3454
  -9261493.329 9  -6741418.02046  23657432.598    23657432.0024   23657449.8074
  -6708291.902 9  -5216705.16046  23752227.478    23752226.5464   23752241.7584
 -25550454.268 9 -19891526.77248  21062916.304    21062916.0574   21062926.5824
 00  4 20  0  3  2.0000000  0  8 26 30 17  3 23 21 22  6            -0.000000004
 -18468439.334 9 -14376852.57147  21762792.120    21762792.0934   21762802.9534
    355217.751 8    286716.14745  25549896.501    25549896.5954   25549924.7244
 -24746914.245 9 -19259997.86749  20767224.163    20767223.4704   20767233.4614
  -1401206.650 8  -1075939.03945  24802253.755    24802253.6674   24802269.0714
 -24355610.837 9 -18954917.56549  20890833.589    20890832.9974   20890843.1154
  -9262785.476 9  -6742424.87746  23657186.706    23657186.1024   23657203.9234
  -6708036.069 9  -5216505.80946  23752276.142    23752275.2124   23752290.4284
 -25549364.569 9 -19890677.65748  21063123.651    21063123.4034   21063133.9344
 00  4 20  0  3  2.0000000  0  8 26 30 17  3 23 21 22  6            -0.000000004
 -18468086.929 9 -14376577.97047  21762859.165    21762859.1464   21762870.0014
    356764.468 8    287921.37745  25550190.830    25550190.9214   25550219.0464
 -24746986.576 9 -19260054.22949  20767210.421    20767209.7304   20767219.7224
  -1402934.415 8  -1077285.34645  24801924.977    24801924.8854   24801940.2984
 -24356042.886 9 -18955254.22649  20890751.369    20890750.7744   20890760.8914
  -9264077.552 9  -6743431.68546  23656940.824    23656940.2224   23656958.0364
  -6707780.080 9  -5216306.33746  23752324.859    23752323.9294   23752339.1524
 -25548274.740 9 -19889828.44248  21063331.059    21063330.8094   21063341.3374
 00  4 20  0  3  3.0000000  0  8 26 30 17  3 23 21 22  6            -0.000000004
 -18467734.399 9 -14376303.27447  21762926.251    21762926.2304   21762937.0874
    358311.063 8    289126.51245  25550485.145    25550485.2374   25550513.3684
 -24747058.912 9 -19260110.59549  20767196.632    20767195.9304   20767205.9264
  -1404662.222 8  -1078631.68845  24801596.202    24801596.1124   24801611.5234
 -24356474.876 9 -18955590.83949  20890669.152    20890668.5614   20890678.6774
  -9265369.621 9  -6744438.48646  23656694.942    23656694.3424   23656712.1644
  -6707524.024 9  -5216106.81346  23752373.568    23752372.6354   23752387.8694
 -25547184.843 9 -19888979.17248  21063538.454    21063538.2064   21063548.7394
 00  4 20  0  3  3.0000000  0  8 26 30 17  3 23 21 22  6            -0.000000003
 -18467381.707 9 -14376028.44647  21762993.377    21762993.3534   21763004.2114
    359857.621 8    290331.61745  25550779.439    25550779.5234   25550807.6434
 -24747131.202 9 -19260166.92449  20767182.878    20767182.1794   20767192.1764
  -1406389.984 8  -1079977.99445  24801267.424    24801267.3404   24801282.7424
 -24356906.792 9 -18955927.39649  20890586.978    20890586.3884   20890596.5044
  -9266661.660 9  -6745445.26346  23656449.084    23656448.4824   23656466.3024
  -6707267.830 9  -5215907.18346  23752422.329    23752421.4014   23752436.6434
 -25546094.852 9 -19888129.82848  21063745.851    21063745.5924   21063756.1394
 00  4 20  0  3  4.0000000  0  8 26 30 17  3 23 21 22  6            -0.000000003
 -18467028.839 9 -14375753.48347  21763060.509    21763060.4874   21763071.3444
    361404.071 8    291536.63945  25551073.723    25551073.8094   25551101.9324
 -24747203.450 9 -19260223.22049  20767169.152    20767168.4484   20767178.4514
  -1408117.788 8  -1081324.33245  24800938.614    24800938.5274   24800953.9314
 -24357338.613 9 -18956263.88049  20890504.806    20890504.2154   20890514.3324
  -9267953.656 9  -6746452.00746  23656203.213    23656202.6124   23656220.4314
  -6707011.520 9  -5215707.46446  23752471.103    23752470.1874   23752485.4204
 -25545004.747 9 -19887280.39848  21063953.288    21063953.0294   21063963.5754
 00  4 20  0  3  4.0000000  0  8 26 30 17  3 23 21 22  6            -0.000000002
 -18466675.758 9 -14375478.35347  21763127.701    21763127.6804   21763138.5414
    362950.515 8    292741.65645  25551368.027    25551368.0964   25551396.2314
 -24747275.598 9 -19260279.44049  20767155.414    20767154.7184   20767164.7104
  -1409845.522 8  -1082670.61545  24800609.847    24800609.7654   24800625.1684
 -24357770.275 9 -18956600.24049  20890422.646    20890422.0524   20890432.1724
  -9269245.543 9  -6747458.66646  23655957.386    23655956.7924   23655974.6114
  -6706755.021 9  -5215507.59446  23752519.917    23752518.9934   23752534.2374
 -25543914.472 9 -19886430.83448  21064160.765    21064160.5154   21064171.0514
 00  4 20  0  3  5.0000000  0  8 26 30 17  3 23 21 22  6            -0.000000002
 -18466322.615 9 -14375203.17547  21763194.888    21763194.8644   21763205.7214
    364496.748 8    293946.50945  25551662.248    25551662.3134   25551690.4524
 -24747347.808 9 -19260335.70849  20767141.670    20767140.9774   20767150.9644
  -1411573.378 8  -1084016.99545  24800281.037    24800280.9534   24800296.3594
 -24358201.973 9 -18956936.62449  20890340.499    20890339.9094   20890350.0204
  -9270537.511 9  -6748465.38746  23655711.514    23655710.9234   23655728.7384
  -6706498.514 9  -5215307.71946  23752568.718    23752567.8094   23752583.0434
 -25542824.207 9 -19885581.27748  21064368.250    21064368.0014   21064378.5344
 00  4 20  0  3  5.0000000  0  8 26 30 17  3 23 21 22  6            -0.000000002
 -18465969.232 9 -14374927.81047  21763262.139    21763262.1174   21763272.9724
    366042.961 8    295151.34745  25551956.481    25551956.5394   25551984.6784
 -24747419.905 9 -19260391.88549  20767127.954    20767127.2574   20767137.2464
  -1413301.153 8  -1085363.31045  24799952.259    24799952.1804   24799967.5934
 -24358633.506 9 -18957272.88249  20890258.393    20890257.7964   20890267.9094
  -9271829.360 9  -6749472.01446  23655465.688    23655465.0934   23655482.9084
  -6706241.818 9  -5215107.69646  23752617.561    23752616.6464   23752631.8864
 -25541733.763 9 -19884731.58248  21064575.744    21064575.4884   21064586.0224
 00  4 20  0  3  6.0000000  0  8 26 30 17  3 23 21 22  6            -0.000000001
 -18465615.663 9 -14374652.30047  21763329.421    21763329.3914   21763340.2694
    367589.184 8    296356.19245  25552250.725    25552250.7844   25552278.9064
 -24747491.938 9 -19260448.01449  20767114.255    20767113.5664   20767123.5484
  -1415028.877 8  -1086709.58645  24799623.479    24799623.3984   24799638.8134
 -24359064.911 9 -18957609.04149  20890176.270    20890175.6734   20890185.7904
  -9273121.137 9  -6750478.59246  23655219.861    23655219.2734   23655237.0724
  -6705984.973 9  -5214907.55846  23752666.435    23752665.5124   23752680.7674
 -25540643.178 9 -19883881.77648  21064783.269    21064783.0144   21064793.5594
 00  4 20  0  3  6.0000000  0  8 26 30 17  3 23 21 22  6            -0.000000001
 -18465261.954 9 -14374376.68447  21763396.736    21763396.7144   21763407.5844
    369135.241 8    297560.90945  25552544.933    25552544.9914   25552573.1064
 -24747563.946 9 -19260504.12449  20767100.552    20767099.8564   20767109.8444
  -1416756.648 8  -1088055.89945  24799294.713    24799294.6354   24799310.0514
 -24359496.269 9 -18957945.16549  20890094.189    20890093.5894   20890103.7064
  -9274412.908 9  -6751485.16146  23654974.049    23654973.4634   23654991.2644
  -6705728.029 9  -5214707.33846  23752715.341    23752714.4284   23752729.6774
 -25539552.527 9 -19883031.92048  21064990.810    21064990.5604   21065001.1004
 00  4 20  0  3  7.0000000  0  8 26 30 17  3 23 21 22  6            -0.000000001
 -18464908.006 9 -14374100.88247  21763464.075    21763464.0474   21763474.9194
    370681.302 8    298765.62845  25552839.149    25552839.2074   25552867.3194
 -24747635.848 9 -19260560.15049  20767086.862    20767086.1654   20767096.1504
  -1418484.356 8  -1089402.16045  24798965.946    24798965.8734   24798981.2914
 -24359927.468 9 -18958281.16349  20890012.143    20890011.5464   20890021.6564
  -9275704.567 9  -6752491.64446  23654728.251    23654727.6634   23654745.4594
  -6705470.894 9  -5214506.97546  23752764.266    23752763.3544   23752778.5874
 -25538461.701 9 -19882181.92648  21065198.415    21065198.1574   21065208.7054
 00  4 20  0  3  7.0000000  0  8 26 30 17  3 23 21 22  6            -0.000000000
 -18464553.868 9 -14373824.93147  21763531.475    21763531.4514   21763542.3264
    372227.319 8    299970.31245  25553133.358    25553133.4234   25553161.5144
 -24747707.686 9 -19260616.12849  20767073.186    20767072.4954   20767082.4734
  -1420212.008 8  -1090748.38345  24798637.170    24798637.1004   24798652.5324
 -24360358.545 9 -18958617.06549  20889930.109    20889929.5134   20889939.6254
  -9276996.163 9  -6753498.07546  23654482.468    23654481.8844   23654499.6674
  -6705213.618 9  -5214306.49946  23752813.211    23752812.2914   23752827.5384
 -25537370.737 9 -19881331.82548  21065405.990    21065405.7434   21065416.2824
 00  4 20  0  3  8.0000000  0  8 26 30 17  3 23 21 22  6             0.000000000
 -18464199.618 9 -14373548.89347  21763598.880    21763598.8544   21763609.7224
    373773.163 8    301174.86245  25553427.514    25553427.5804   25553455.6644
 -24747779.527 9 -19260672.10649  20767059.508    20767058.8144   20767068.7944
  -1421939.741 8  -1092094.66745  24798308.382    24798308.3084   24798323.7424
 -24360789.601 9 -18958952.95149  20889848.088    20889847.4904   20889857.6014
  -9278287.777 9  -6754504.52646  23654236.652    23654236.0644   23654253.8434
  -6704956.264 9  -5214105.96546  23752862.174    23752861.2574   23752876.4994
 -25536279.739 9 -19880481.69748  21065613.609    21065613.3594   21065623.9054
 00  4 20  0  3  8.0000000  0  8 26 30 17  3 23 21 22  6             0.000000001
 -18463845.189 9 -14373272.71347  21763666.340    21763666.3274   21763677.1814
    375318.993 8    302379.40545  25553721.694    25553721.7554   25553749.8314
 -24747851.308 9 -19260728.04149  20767045.862    20767045.1744   20767055.1664
  -1423667.452 8  -1093440.93545  24797979.631    24797979.5664   24797995.0064
 -24361220.541 9 -18959288.74749  20889766.068    20889765.4764   20889775.5834
  -9279579.324 9  -6755510.92346  23653990.874    23653990.2844   23654008.0644
  -6704698.766 9  -5213905.31746  23752911.194    23752910.2734   23752925.5194
 -25535188.607 9 -19879631.46748  21065821.261    21065821.0164   21065831.5494
 00  4 20  0  3  9.0000000  0  8 26 30 17  3 23 21 22  6             0.000000001
 -18463490.584 9 -14372996.39947  21763733.790    21763733.7714   21763744.6354
    376864.736 8    303583.87545  25554015.822    25554015.8914   25554043.9534
 -24747923.039 9 -19260783.93549  20767032.202    20767031.5134   20767041.4944
  -1425395.134 8  -1094787.17845  24797650.870    24797650.8034   24797666.2524
 -24361651.378 9 -18959624.46249  20889684.085    20889683.4934   20889693.5954
  -9280870.809 9  -6756517.27046  23653745.126    23653744.5354   23653762.3114
  -6704441.156 9  -5213704.58346  23752960.210    23752959.2984   23752974.5384
 -25534097.356 9 -19878781.14448  21066028.919    21066028.6724   21066039.2154
 00  4 20  0  3  9.0000000  0  8 26 30 17  3 23 21 22  6             0.000000002
 -18463135.767 9 -14372719.91747  21763801.307    21763801.2944   21763812.1474
    378410.442 8    304788.31745  25554309.986    25554310.0684   25554338.1064
 -24747994.683 9 -19260839.76049  20767018.568    20767017.8734   20767027.8624
  -1427122.797 8  -1096133.40745  24797322.089    24797322.0214   24797337.4764
 -24362082.085 9 -18959960.07849  20889602.123    20889601.5304   20889611.6354
  -9282162.230 9  -6757523.56946  23653499.380    23653498.7854   23653516.5664
  -6704183.375 9  -5213503.71746  23753009.255    23753008.3354   23753023.5894
 -25533005.970 9 -19877930.71448  21066236.602    21066236.3584   21066246.8934
 00  4 20  0  3 10.0000000  0  8 26 30 17  3 23 21 22  6             0.000000002
 -18462780.729 9 -14372443.26147  21763868.895    21763868.8774   21763879.7384
    379956.112 8    305992.73545  25554604.111    25554604.1954   25554632.2234
 -24748066.227 9 -19260895.51049  20767004.971    20767004.2824   20767014.2644
  -1428850.399 8  -1097479.58645  24796993.354    24796993.2794   24797008.7544
 -24362512.650 9 -18960295.58149  20889520.191    20889519.5974   20889529.7004
  -9283453.556 9  -6758529.78946  23653253.639    23653253.0354   23653270.8204
  -6703925.416 9  -5213302.71146  23753058.358    23753057.4504   23753072.6964
 -25531914.422 9 -19877080.16148  21066444.305    21066444.0644   21066454.6004
 00  4 20  0  3 10.0000000  0  8 26 30 17  3 23 21 22  6             0.000000002
 -18462425.573 9 -14372166.51847  21763936.476    21763936.4604   21763947.3174
    381501.660 8    307197.05545  25554898.226    25554898.3214   25554926.3314
 -24748137.787 9 -19260951.26949  20766991.355    20766990.6624   20767000.6404
  -1430578.035 8  -1098825.79445  24796664.594    24796664.5164   24796680.0024
 -24362943.172 9 -18960631.05149  20889438.274    20889437.6834   20889447.7884
  -9284744.872 9  -6759536.00346  23653007.892    23653007.2854   23653025.0724
  -6703667.398 9  -5213101.66146  23753107.438    23753106.5364   23753121.7734
 -25530822.821 9 -19876229.56048  21066652.037    21066651.7904   21066662.3314
 00  4 20  0  3 11.0000000  0  8 26 30 17  3 23 21 22  6             0.000000003
 -18462070.289 9 -14371889.67247  21764004.074    21764004.0734   21764014.9134
    383047.092 8    308401.28245  25555192.312    25555192.4084   25555220.4254
 -24748209.339 9 -19261007.02349  20766977.732    20766977.0314   20766987.0194
  -1432305.742 8  -1100172.05645  24796335.799    24796335.7244   24796351.2134
 -24363373.644 9 -18960966.48349  20889356.350    20889355.7604   20889365.8594
  -9286036.216 9  -6760542.23846  23652762.146    23652761.5354   23652779.3304
  -6703409.300 9  -5212900.54646  23753156.551    23753155.6434   23753170.8864
 -25529731.161 9 -19875378.91848  21066859.770    21066859.5274   21066870.0674
 00  4 20  0  3 11.0000000  0  8 26 30 17  3 23 21 22  6             0.000000003
 -18461714.784 9 -14371612.65547  21764071.721    21764071.7074   21764082.5634
    384592.498 8    309605.49145  25555486.397    25555486.4944   25555514.5114
 -24748280.788 9 -19261062.69849  20766964.121    20766963.4204   20766973.4114
  -1434033.362 8  -1101518.25045  24796007.044    24796006.9814   24796022.4684
 -24363803.967 9 -18961301.79949  20889274.447    20889273.8474   20889283.9544
  -9287327.448 9  -6761548.38946  23652516.435    23652515.8254   23652533.6124
  -6703151.036 9  -5212699.30346  23753205.694    23753204.7794   23753220.0294
 -25528639.331 9 -19874528.14348  21067067.525    21067067.2834   21067077.8234
 00  4 20  0  3 12.0000000  0  8 26 30 17  3 23 21 22  6             0.000000004
 -18461359.102 9 -14371335.49947  21764139.413    21764139.4004   21764150.2644
    386137.844 8    310809.65345  25555780.473    25555780.5714   25555808.5854
 -24748352.183 9 -19261118.33049  20766950.542    20766949.8404   20766959.8274
  -1435760.943 8  -1102864.41445  24795678.291    24795678.2294   24795693.7184
 -24364234.172 9 -18961637.02249  20889192.609    20889192.0134   20889202.1254
  -9288618.617 9  -6762554.48546  23652270.724    23652270.1144   23652287.9054
  -6702892.611 9  -5212497.93346  23753254.871    23753253.9554   23753269.2114
 -25527547.370 9 -19873677.26448  21067275.318    21067275.0794   21067285.6154
 00  4 20  0  3 12.0000000  0  8 26 30 17  3 23 21 22  6             0.000000004
 -18461003.308 9 -14371058.25747  21764207.090    21764207.0834   21764217.9394
    387683.032 8    312013.69245  25556074.509    25556074.6074   25556102.6214
 -24748423.602 9 -19261173.98149  20766936.966    20766936.2694   20766946.2624
  -1437488.652 8  -1104210.67845  24795349.542    24795349.4874   24795364.9724
 -24364664.366 9 -18961972.23849  20889110.733    20889110.1404   20889120.2394
  -9289909.826 9  -6763560.61346  23652025.018    23652024.4154   23652042.1984
  -6702634.141 9  -5212296.52746  23753304.059    23753303.1404   23753318.3884
 -25526455.383 9 -19872826.36448  21067483.135    21067482.8954   21067493.4374
 00  4 20  0  3 13.0000000  0  8 26 30 17  3 23 21 22  6             0.000000005
 -18460647.271 9 -14370780.82447  21764274.861    21764274.8464   21764285.7084
    389228.239 8    313217.74345  25556368.551    25556368.6544   25556396.6624
 -24748494.890 9 -19261229.53049  20766923.388    20766922.6994   20766932.6804
  -1439216.214 8  -1105556.82645  24795020.775    24795020.7244   24795036.2174
 -24365094.377 9 -18962307.31049  20889028.895    20889028.2974   20889038.4094
  -9291200.904 9  -6764566.64046  23651779.319    23651778.7244   23651796.4924
  -6702375.465 9  -5212094.96346  23753353.293    23753352.3774   23753367.6264
 -25525363.207 9 -19871975.31948  21067690.947    21067690.7114   21067701.2524
 00  4 20  0  3 13.0000000  0  8 26 30 17  3 23 21 22  6             0.000000005
 -18460291.080 9 -14370503.27347  21764342.619    21764342.6194   21764353.4704
    390773.364 8    314421.73545  25556662.570    25556662.6714   25556690.6884
 -24748566.143 9 -19261285.05149  20766909.823    20766909.1284   20766919.1154
  -1440943.792 8  -1106902.98945  24794692.021    24794691.9624   24794707.4664
 -24365524.296 9 -18962642.31149  20888947.094    20888946.4934   20888956.6024
  -9292491.945 9  -6765572.64646  23651533.647    23651533.0644   23651550.8244
  -6702116.680 9  -5211893.31146  23753402.545    23753401.6334   23753416.8714
 -25524270.922 9 -19871124.18848  21067898.815    21067898.5774   21067909.1214
 00  4 20  0  3 14.0000000  0  8 26 30 17  3 23 21 22  6             0.000000005
 -18459934.788 9 -14370225.64447  21764410.421    21764410.4224   21764421.2754
    392318.332 8    315625.60245  25556956.578    25556956.6674   25556984.7014
 -24748637.423 9 -19261340.59349  20766896.261    20766895.5674   20766905.5624
  -1442671.450 8  -1108249.21545  24794363.262    24794363.2004   24794378.7064
 -24365954.205 9 -18962977.30349  20888865.266    20888864.6704   20888874.7814
  -9293783.028 9  -6766578.67846  23651287.957    23651287.3744   23651305.1254
  -6701857.840 9  -5211691.62046  23753451.806    23753450.8894   23753466.1264
 -25523178.610 9 -19870273.03948  21068106.673    21068106.4334   21068116.9744
 00  4 20  0  3 14.0000000  0  8 26 30 17  3 23 21 22  6             0.000000006
 -18459578.223 9 -14369947.80147  21764478.268    21764478.2654   21764489.1154
    393863.312 8    316829.48045  25557250.582    25557250.6644   25557278.7084
 -24748708.553 9 -19261396.02049  20766882.725    20766882.0374   20766892.0084
  -1444398.981 8  -1109595.34045  24794034.532    24794034.4684   24794049.9684
 -24366383.908 9 -18963312.13749  20888783.495    20888782.8974   20888793.0114
  -9295073.957 9  -6767584.58846  23651042.301    23651041.7154   23651059.4694
  -6701598.787 9  -5211489.76046  23753501.073    23753500.1544   23753515.3894
 -25522086.080 9 -19869421.71848  21068314.571    21068314.3304   21068324.8744
 00  4 20  0  3 15.0000000  0  8 26 30 17  3 23 21 22  6             0.000000006
 -18459221.515 9 -14369669.84647  21764546.169    21764546.1684   21764557.0184
    395408.208 8    318033.29045  25557544.572    25557544.6504   25557572.6994
 -24748779.665 9 -19261451.43149  20766869.196    20766868.4964   20766878.4784
  -1446126.532 8  -1110941.48245  24793705.776    24793705.7054   24793721.2114
 -24366813.543 9 -18963646.91549  20888701.761    20888701.1634   20888711.2714
  -9296364.856 9  -6768590.47846  23650796.658    23650796.0754   23650813.8254
  -6701339.630 9  -5211287.82246  23753550.395    23753549.4804   23753564.7174
 -25520993.460 9 -19868570.32848  21068522.498    21068522.2654   21068532.8024
 00  4 20  0  3 15.0000000  0  8 26 30 17  3 23 21 22  6             0.000000007
 -18458864.681 9 -14369391.79547  21764614.068    21764614.0614   21764624.9214
    396952.981 8    319237.00345  25557838.541    25557838.6174   25557866.6674
 -24748850.773 9 -19261506.84149  20766855.681    20766854.9854   20766864.9784
  -1447854.153 8  -1112287.67745  24793377.031    24793376.9634   24793392.4834
 -24367243.130 9 -18963981.65749  20888620.003    20888619.4104   20888629.5124
  -9297655.788 9  -6769596.39546  23650550.997    23650550.4154   23650568.1624
  -6701080.390 9  -5211085.81946  23753599.736    23753598.8264   23753614.0574
 -25519900.791 9 -19867718.89948  21068730.416    21068730.1824   21068740.7234
 00  4 20  0  3 16.0000000  0  8 26 30 17  3 23 21 22  6             0.000000007
 -18458507.605 9 -14369113.55447  21764682.004    21764682.0044   21764692.8604
    398497.704 8    320440.67845  25558132.484    25558132.5544   25558160.6134
 -24748921.760 9 -19261562.15349  20766842.152    20766841.4554   20766851.4454
  -1449581.678 8  -1113633.79845  24793048.312    24793048.2404   24793063.7584
 -24367672.539 9 -18964316.26149  20888538.288    20888537.6864   20888547.8004
  -9298946.595 9  -6770602.21346  23650305.352    23650304.7654   23650322.5134
  -6700820.953 9  -5210883.66146  23753649.113    23753648.2014   23753663.4244
 -25518807.929 9 -19866867.32048  21068938.389    21068938.1584   21068948.6944
 00  4 20  0  3 16.0000000  0  8 26 30 17  3 23 21 22  6             0.000000007
 -18458150.374 9 -14368835.19347  21764749.972    21764749.9674   21764760.8274
    400042.417 8    321644.34845  25558426.451    25558426.5104   25558454.5784
 -24748992.714 9 -19261617.44249  20766828.661    20766827.9644   20766837.9534
  -1451309.201 8  -1114979.91845  24792719.547    24792719.4684   24792735.0014
 -24368101.865 9 -18964650.79949  20888456.594    20888455.9934   20888466.1074
  -9300237.352 9  -6771607.98846  23650059.722    23650059.1354   23650076.8824
  -6700561.405 9  -5210681.41446  23753698.504    23753697.5974   23753712.8154
 -25517714.966 9 -19866015.66348  21069146.381    21069146.1344   21069156.6944
 00  4 20  0  3 17.0000000  0  8 26 30 17  3 23 21 22  6             0.000000008
 -18457792.989 9 -14368556.71247  21764817.989    21764817.9904   21764828.8394
    401586.981 8    322847.89845  25558720.372    25558720.4174   25558748.5034
 -24749063.638 9 -19261672.70749  20766815.178    20766814.4744   20766824.4754
  -1453036.744 8  -1116326.05445  24792390.833    24792390.7464   24792406.2814
 -24368531.116 9 -18964985.27949  20888374.911    20888374.3094   20888384.4204
  -9301528.093 9  -6772613.75446  23649814.091    23649813.5054   23649831.2514
  -6700301.759 9  -5210479.09646  23753747.899    23753746.9834   23753762.2174
 -25516621.918 9 -19865163.93748  21069354.379    21069354.1304   21069364.6894
 00  4 20  0  3 17.0000000  0  8 26 30 17  3 23 21 22  6             0.000000008
 -18457435.431 9 -14368278.09747  21764886.024    21764886.0234   21764896.8904
    403131.488 8    324051.40545  25559014.294    25559014.3334   25559042.4184
 -24749134.506 9 -19261727.92949  20766801.688    20766800.9834   20766810.9784
  -1454764.285 8  -1117672.19045  24792062.077    24792061.9934   24792077.5334
 -24368960.257 9 -18965319.67449  20888293.236    20888292.6364   20888302.7404
  -9302818.784 9  -6773619.48446  23649568.477    23649567.8954   23649585.6334
  -6700041.987 9  -5210276.67846  23753797.335    23753796.4194   23753811.6634
 -25515528.745 9 -19864312.11548  21069562.387    21069562.1564   21069572.7054
 00  4 20  0  3 18.0000000  0  8 26 30 17  3 23 21 22  6             0.000000009
 -18457077.650 9 -14367999.30547  21764954.111    21764954.1064   21764964.9734
    404675.974 8    325254.89345  25559308.191    25559308.2294   25559336.3204
 -24749205.267 9 -19261783.06849  20766788.210    20766787.5124   20766797.4994
  -1456491.754 8  -1119018.26645  24791733.364    24791733.2714   24791748.8164
 -24369389.242 9 -18965653.94649  20888211.602    20888211.0034   20888221.1074
  -9304109.362 9  -6774625.12246  23649322.887    23649322.3054   23649340.0454
  -6699782.019 9  -5210074.10546  23753846.806    23753845.8854   23753861.1274
 -25514435.402 9 -19863460.16148  21069770.455    21069770.2224   21069780.7734
 00  4 20  0  3 18.0000000  0  8 26 30 17  3 23 21 22  6             0.000000009
 -18456719.721 9 -14367720.39947  21765022.216    21765022.2194   21765033.0754
    406220.372 8    326458.31545  25559602.073    25559602.1064   25559630.1994
 -24749276.015 9 -19261838.19649  20766774.739    20766774.0414   20766784.0304
  -1458219.222 8  -1120364.34345  24791404.620    24791404.5184   24791420.0854
 -24369818.157 9 -18965988.16449  20888129.971    20888129.3694   20888139.4784
  -9305399.928 9  -6775630.75346  23649077.308    23649076.7264   23649094.4704
  -6699521.957 9  -5209871.45746  23753896.281    23753895.3614   23753910.6044
 -25513341.979 9 -19862608.14548  21069978.534    21069978.2984   21069988.8514
 00  4 20  0  3 19.0000000  0  8 26 30 17  3 23 21 22  6             0.000000010
 -18456361.648 9 -14367441.38347  21765090.352    21765090.3524   21765101.2084
    407764.632 8    327661.62945  25559895.935    25559895.9624   25559924.0644
 -24749346.741 9 -19261893.30649  20766761.297    20766760.6014   20766770.5784
  -1459946.728 8  -1121710.44845  24791075.903    24791075.8064   24791091.3694
 -24370247.000 9 -18966322.32549  20888048.379    20888047.7864   20888057.8884
  -9306690.497 9  -6776636.38546  23648831.715    23648831.1364   23648848.8834
  -6699261.805 9  -5209668.74346  23753945.809    23753944.8864   23753960.1434
 -25512248.473 9 -19861756.06548  21070186.617    21070186.3834   21070196.9334
 00  4 20  0  3 19.0000000  0  8 26 30 17  3 23 21 22  6             0.000000010
 -18456003.435 9 -14367162.25447  21765158.530    21765158.5444   21765169.3804
    409308.826 8    328864.89245  25560189.813    25560189.8294   25560217.9474
 -24749417.449 9 -19261948.40049  20766747.834    20766747.1404   20766757.1154
  -1461674.242 8  -1123056.55945  24790747.163    24790747.0544   24790762.6374
 -24370675.772 9 -18966656.43149  20887966.770    20887966.1724   20887976.2804
  -9307981.026 9  -6777641.98746  23648586.118    23648585.5364   23648603.2784
  -6699001.558 9  -5209465.95246  23753995.317    23753994.3924   23754009.6504
 -25511154.874 9 -19860903.91148  21070394.717    21070394.4794   21070405.0274
 00  4 20  0  3 20.0000000  0  8 26 30 17  3 23 21 22  6             0.000000010
 -18455645.065 9 -14366883.00347  21765226.725    21765226.7274   21765237.5824
    410852.886 8    330068.05345  25560483.633    25560483.6464   25560511.7654
 -24749488.128 9 -19262003.47449  20766734.394    20766733.6894   20766743.6764
  -1463401.763 8  -1124402.67845  24790418.435    24790418.3214   24790433.9064
 -24371104.462 9 -18966990.47349  20887885.209    20887884.6094   20887894.7174
  -9309271.533 9  -6778647.57046  23648340.551    23648339.9664   23648357.7164
  -6698741.194 9  -5209263.07446  23754044.862    23754043.9384   23754059.1924
 -25510061.183 9 -19860051.68448  21070602.848    21070602.6154   21070613.1634
 00  4 20  0  3 20.0000000  0  8 26 30 17  3 23 21 22  6             0.000000011
 -18455286.394 9 -14366603.51647  21765294.966    21765294.9704   21765305.8164
    412397.057 8    331271.30045  25560777.490    25560777.4924   25560805.6194
 -24749558.628 9 -19262058.40949  20766720.968    20766720.2594   20766730.2654
  -1465129.159 8  -1125748.69845  24790089.713    24790089.5894   24790105.1874
 -24371532.921 9 -18967324.33949  20887803.661    20887803.0654   20887813.1684
  -9310561.865 9  -6779653.01946  23648094.994    23648094.4054   23648112.1524
  -6698480.570 9  -5209059.99146  23754094.459    23754093.5334   23754108.7904
 -25508967.247 9 -19859199.26948  21070811.008    21070810.7714   21070821.3244
 00  4 20  0  3 21.0000000  0  8 26 30 17  3 23 21 22  6             0.000000011
 -18454927.622 9 -14366323.95547  21765363.250    21765363.2534   21765374.1034
    413941.054 8    332474.41045  25561071.301    25561071.3094   25561099.4284
 -24749629.137 9 -19262113.35249  20766707.551    20766706.8584   20766716.8414
  -1466856.593 8  -1127094.75045  24789761.004    24789760.8774   24789776.4814
 -24371961.340 9 -18967658.17149  20887722.130    20887721.5314   20887731.6294
  -9311852.207 9  -6780658.47446  23647849.441    23647848.8554   23647866.6014
  -6698219.892 9  -5208856.86646  23754144.070    23754143.1394   23754158.3944
 -25507873.259 9 -19858346.81048  21071019.200    21071018.9674   21071029.5174
 00  4 20  0  3 21.0000000  0  8 26 30 17  3 23 21 22  6             0.000000012
 -18454568.683 9 -14366044.26447  21765431.547    21765431.5464   21765442.4054
    415484.934 8    333677.42745  25561365.077    25561365.0854   25561393.2054
 -24749699.626 9 -19262168.27849  20766694.136    20766693.4374   20766703.4274
  -1468584.045 8  -1128440.81645  24789432.283    24789432.1444   24789447.7594
 -24372389.683 9 -18967991.94449  20887640.638    20887640.0384   20887650.1434
  -9313142.530 9  -6781663.91946  23647603.910    23647603.3254   23647621.0664
  -6697959.109 9  -5208653.65646  23754193.707    23754192.7754   23754208.0294
 -25506779.174 9 -19857494.27848  21071227.391    21071227.1534   21071237.7034
 00  4 20  0  3 22.0000000  0  8 26 30 17  3 23 21 22  6             0.000000012
 -18454209.593 9 -14365764.45347  21765499.895    21765499.8984   21765510.7504
    417028.748 8    334880.39745  25561658.872    25561658.8814   25561686.9964
 -24749770.087 9 -19262223.18249  20766680.725    20766680.0274   20766690.0054
  -1470311.557 8  -1129786.92545  24789103.526    24789103.3824   24789119.0094
 -24372817.946 9 -18968325.65249  20887559.145    20887558.5444   20887568.6454
  -9314432.827 9  -6782669.33946  23647358.370    23647357.7954   23647375.5204
  -6697698.219 9  -5208450.36646  23754243.339    23754242.4004   23754257.6484
 -25505684.999 9 -19856641.67448  21071435.588    21071435.3394   21071445.9044
 00  4 20  0  3 22.0000000  0  8 26 30 17  3 23 21 22  6             0.000000013
 -18453850.306 9 -14365484.48447  21765568.250    21765568.2514   21765579.0994
    418572.535 8    336083.34445  25561952.655    25561952.6584   25561980.7804
 -24749840.461 9 -19262278.01949  20766667.337    20766666.6364   20766676.6164
  -1472038.948 8  -1131132.94145  24788774.834    24788774.6794   24788790.3164
 -24373246.073 9 -18968659.25749  20887477.650    20887477.0514   20887487.1554
  -9315723.032 9  -6783674.68946  23647112.841    23647112.2664   23647129.9964
  -6697437.155 9  -5208246.94046  23754293.018    23754292.0764   23754307.3394
 -25504590.663 9 -19855788.94448  21071643.838    21071643.5954   21071654.1534
 00  4 20  0  3 23.0000000  0  8 26 30 17  3 23 21 22  6             0.000000013
 -18453490.800 9 -14365204.35247  21765636.670    21765636.6734   21765647.5234
    420116.264 8    337286.24745  25562246.397    25562246.4054   25562274.5154
 -24749910.755 9 -19262332.79549  20766653.971    20766653.2754   20766663.2584
  -1473766.310 8  -1132478.93745  24788446.120    24788445.9574   24788461.6104
 -24373674.063 9 -18968992.75549  20887396.223    20887395.6274   20887405.7274
  -9317013.173 9  -6784679.98746  23646867.351    23646866.7754   23646884.5064
  -6697175.952 9  -5208043.40846  23754342.744    23754341.8014   23754357.0554
 -25503496.183 9 -19854936.10648  21071852.132    21071851.8914   21071862.4514
 00  4 20  0  3 23.0000000  0  8 26 30 17  3 23 21 22  6             0.000000013
 -18453131.109 9 -14364924.07547  21765705.105    21765705.1164   21765715.9554
    421659.924 8    338489.09745  25562540.158    25562540.1614   25562568.2824
 -24749980.985 9 -19262387.51949  20766640.613    20766639.9144   20766649.8994
  -1475493.660 8  -1133824.92145  24788117.419    24788117.2554   24788132.9104
 -24374101.940 9 -18969326.16649  20887314.808    20887314.2034   20887324.3054
  -9318303.241 9  -6785685.23046  23646621.827    23646621.2454   23646638.9824
  -6696914.594 9  -5207839.75346  23754392.487    23754391.5574   23754406.7994
 -25502401.570 9 -19854083.16348  21072060.431    21072060.1864   21072070.7474
 00  4 20  0  3 24.0000000  0  8 26 30 17  3 23 21 22  6             0.000000014
 -18452771.352 9 -14364643.74747  21765773.579    21765773.5884   21765784.4324
    423203.407 8    339691.80945  25562833.882    25562833.8884   25562862.0064
 -24750051.273 9 -19262442.28849  20766627.217    20766626.5244   20766636.4944
  -1477221.098 8  -1135170.97545  24787788.684    24787788.5124   24787804.1654
 -24374529.823 9 -18969659.58049  20887233.358    20887232.7604   20887242.8574
  -9319593.372 9  -6786690.52246  23646376.328    23646375.7554   23646393.4804
  -6696653.231 9  -5207636.09446  23754442.217    23754441.2734   23754456.5364
 -25501306.953 9 -19853230.21648  21072268.727    21072268.4924   21072279.0444
 00  4 20  0  3 24.0000000  0  8 26 30 17  3 23 21 22  6             0.000000014
 -18452411.321 9 -14364363.20247  21765842.074    21765842.0814   21765852.9224
    424746.894 8    340894.52445  25563127.590    25563127.6054   25563155.7144
 -24750121.422 9 -19262496.94849  20766613.887    20766613.1934   20766623.1754
  -1478948.441 8  -1136516.95445  24787460.004    24787459.8204   24787475.4984
 -24374957.519 9 -18969992.84749  20887151.976    20887151.3764   20887161.4774
  -9320883.373 9  -6787695.71146  23646130.857    23646130.2954   23646148.0054
  -6696391.654 9  -5207432.26746  23754492.002    23754491.0484   23754506.3214
 -25500212.133 9 -19852377.11048  21072477.068    21072476.8284   21072487.3884
 00  4 20  0  3 25.0000000  0  8 26 30 17  3 23 21 22  6             0.000000015
 -18452051.170 9 -14364082.55947  21765910.610    21765910.6244   21765921.4584
    426290.287 8    342097.16345  25563421.295    25563421.3014   25563449.4064
 -24750191.554 9 -19262551.59549  20766600.534    20766599.8324   20766609.8224
  -1480675.802 8  -1137862.94745  24787131.304    24787131.1074   24787146.7994
 -24375385.148 9 -18970326.06249  20887070.595    20887069.9924   20887080.0984
  -9322173.359 9  -6788700.88446  23645885.374    23645884.8054   23645902.5224
  -6696129.990 9  -5207228.37346  23754541.773    23754540.8334   23754556.0884
 -25499117.225 9 -19851523.93648  21072685.400    21072685.1644   21072695.7194
 00  4 20  0  3 25.0000000  0  8 26 30 17  3 23 21 22  6             0.000000015
 -18451690.833 9 -14363801.77647  21765979.183    21765979.1964   21765990.0334
    427833.619 8    343299.75345  25563714.982    25563714.9974   25563743.0984
 -24750261.632 9 -19262606.19849  20766587.202    20766586.5014   20766596.4964
  -1482403.141 8  -1139208.92245  24786802.594    24786802.3944   24786818.0824
 -24375812.669 9 -18970659.19449  20886989.259    20886988.6594   20886998.7614
  -9323463.298 9  -6789706.02646  23645639.907    23645639.3454   23645657.0454
  -6695868.188 9  -5207024.37446  23754591.600    23754590.6594   23754605.9154
 -25498022.198 9 -19850670.67048  21072893.783    21072893.5294   21072904.1064
 00  4 20  0  3 26.0000000  0  8 26 30 17  3 23 21 22  6             0.000000016
 -18451330.327 9 -14363520.86247  21766047.787    21766047.7894   21766058.6324
    429376.851 8    344502.26945  25564008.667    25564008.6844   25564036.7834
 -24750331.663 9 -19262660.76849  20766573.877    20766573.1814   20766583.1654
  -1484130.519 8  -1140554.93045  24786473.894    24786473.6924   24786489.3894
 -24376240.096 9 -18970992.25349  20886907.922    20886907.3254   20886917.4254
  -9324753.198 9  -6790711.13746  23645394.447    23645393.8854   23645411.5904
  -6695606.266 9  -5206820.28046  23754641.461    23754640.5144   23754655.7724
 -25496927.062 9 -19849817.31648  21073102.194    21073101.9554   21073112.5154
 00  4 20  0  3 26.0000000  0  8 26 30 17  3 23 21 22  6             0.000000016
 -18450969.621 9 -14363239.79547  21766116.428    21766116.4314   21766127.2844
    430920.047 8    345704.75745  25564302.316    25564302.3414   25564330.4394
 -24750401.617 9 -19262715.28049  20766560.559    20766559.8604   20766569.8454
  -1485857.819 8  -1141900.87345  24786145.183    24786144.9794   24786160.6624
 -24376667.396 9 -18971325.21449  20886826.583    20886825.9814   20886836.0864
  -9326043.018 9  -6791716.18046  23645148.976    23645148.4154   23645166.1104
  -6695344.207 9  -5206616.07946  23754691.319    23754690.3804   23754705.6384
 -25495831.783 9 -19848963.85448  21073310.607    21073310.3714   21073320.9314
 00  4 20  0  3 27.0000000  0  8 26 30 17  3 23 21 22  6             0.000000016
 -18450608.756 9 -14362958.60147  21766185.087    21766185.0944   21766195.9304
    432463.170 8    346907.18445  25564595.963    25564595.9884   25564624.0954
 -24750471.521 9 -19262769.75149  20766547.247    20766546.5494   20766556.5254
  -1487585.101 8  -1143246.80645  24785816.488    24785816.2774   24785831.9834
 -24377094.593 9 -18971658.09549  20886745.314    20886744.7184   20886754.8104
  -9327332.792 9  -6792721.19646  23644903.537    23644902.9754   23644920.6724
  -6695082.012 9  -5206411.77046  23754741.213    23754740.2654   23754755.5344
 -25494736.387 9 -19848110.29948  21073519.058    21073518.8164   21073529.3784
 00  4 20  0  3 27.0000000  0  8 26 30 17  3 23 21 22  6             0.000000017
 -18450247.776 9 -14362677.31847  21766253.775    21766253.7864   21766264.6194
    434006.153 8    348109.50545  25564889.591    25564889.6144   25564917.7194
 -24750541.451 9 -19262824.24049  20766533.951    20766533.2484   20766543.2464
  -1489312.472 8  -1144592.80945  24785487.785    24785487.5744   24785503.2754
 -24377521.766 9 -18971990.95549  20886664.021    20886663.4244   20886673.5174
  -9328622.601 9  -6793726.23546  23644658.086    23644657.5254   23644675.2184
  -6694819.786 9  -5206207.43646  23754791.105    23754790.1514   23754805.4274
 -25493640.955 9 -19847256.71648  21073727.517    21073727.2824   21073737.8454
